GFSCGP_850_thetae_000.txt.gz
Theta_e
328 329 329 326 320 318 317 318 317 315 316 319 318 318 317 317 315 314 317 319 319 319 318 317 318 318 319 319 320 322 324 326 329 329 329 329 328 328 327 327 327 329 330 331
328 329 326 323 319 317 317 317 316 316 319 320 319 318 316 314 314 317 318 319 320 319 318 318 318 318 318 319 319 319 319 321 322 326 329 329 328 328 328 329 330 331 330 330
329 328 325 322 318 319 317 316 317 320 319 318 320 319 317 316 317 318 319 320 320 320 319 318 317 317 317 318 318 318 319 319 321 324 326 329 329 328 329 331 331 329 329 329
326 320 324 323 319 316 317 316 319 321 319 321 318 320 316 315 316 316 317 319 319 319 319 318 318 318 317 317 317 317 318 319 321 322 324 325 328 328 326 325 324 325 325 325
326 320 322 321 319 316 318 319 320 319 317 317 318 318 316 315 317 316 315 318 318 318 318 318 317 317 317 317 317 317 316 317 317 317 317 318 318 317 316 316 317 319 321 324
318 318 317 317 317 317 317 317 315 314 315 319 317 318 317 316 317 315 315 317 317 318 318 317 318 317 317 317 316 316 316 315 315 315 315 315 315 315 315 315 315 315 314 314
318 314 312 316 315 314 315 316 320 321 320 321 316 317 318 315 314 317 314 316 317 317 317 317 317 317 317 316 316 315 315 315 315 315 315 314 314 314 315 315 315 315 315 315
319 319 313 312 315 315 314 316 320 326 324 323 317 318 317 313 315 318 318 318 317 318 317 317 317 317 316 316 315 315 315 315 314 314 313 312 312 312 313 314 314 314 313 312
317 318 314 314 313 315 316 318 317 320 318 320 319 318 316 313 314 315 316 317 317 318 318 317 316 316 316 315 315 315 315 314 314 311 308 309 309 309 309 310 310 310 310 309
318 317 316 314 314 313 316 314 319 317 324 323 318 319 319 317 316 314 314 316 318 317 317 317 316 315 315 315 314 314 314 313 311 307 307 308 308 308 308 308 308 308 307 307
318 317 319 315 316 316 315 314 314 314 316 320 319 318 313 313 313 315 315 318 318 317 317 316 316 315 315 315 314 314 314 312 309 306 307 307 307 308 308 308 307 307 307 306
322 317 318 320 316 315 315 316 313 316 318 314 313 317 312 312 311 314 317 319 318 317 316 316 315 314 314 314 313 312 311 309 306 306 307 306 305 305 306 306 305 304 303 301
321 321 321 323 319 317 319 317 314 314 314 318 318 318 312 314 312 315 316 318 318 316 316 315 314 313 312 312 311 310 309 306 306 306 306 305 305 304 303 301 300 299 297 296
318 317 320 324 321 318 320 320 316 315 316 316 316 318 316 315 315 316 318 318 316 316 315 314 312 311 311 310 309 308 306 306 306 305 304 303 301 299 297 295 293 292 291 291
315 317 317 316 316 316 318 318 318 318 316 317 316 316 315 313 311 313 315 315 315 315 313 312 311 310 309 308 307 305 306 306 304 302 300 298 296 293 291 291 291 290 290 290
314 316 313 312 312 312 313 312 311 313 316 316 315 315 313 314 314 316 316 314 315 314 311 310 310 309 308 305 305 307 306 304 301 298 295 292 291 291 290 290 290 289 289 289
313 311 311 311 312 314 316 314 311 310 309 310 312 311 312 313 314 314 315 314 314 311 310 310 309 307 304 306 306 305 303 300 296 292 290 290 290 290 289 289 288 288 288 288
311 310 310 312 314 319 316 312 313 313 313 312 311 311 312 314 313 314 315 316 313 311 309 308 306 305 306 306 304 302 298 294 290 290 290 289 289 288 288 288 288 288 287 287
308 309 311 314 315 315 316 315 316 317 315 313 314 314 314 313 312 313 313 314 313 310 308 306 305 305 305 303 302 298 293 290 290 290 289 288 288 288 287 287 287 287 287 286
308 307 311 306 313 318 315 314 314 313 313 313 314 313 314 313 312 309 312 312 311 308 306 306 305 305 304 301 298 293 290 289 289 288 288 287 287 287 287 286 286 286 286 286
309 309 311 312 313 312 311 312 314 316 311 311 311 311 311 312 312 312 311 310 308 307 307 306 305 305 305 301 293 290 289 288 288 287 287 287 287 286 286 286 286 285 285 285
312 310 311 310 312 312 312 314 316 311 311 310 311 310 310 310 311 311 311 310 309 308 306 305 304 305 303 293 289 288 287 287 287 287 287 286 286 286 285 285 285 285 285 285
314 312 313 311 310 311 313 312 311 312 311 311 311 310 310 309 309 309 309 307 306 305 304 304 303 301 296 289 288 287 287 287 287 286 286 286 286 285 285 284 284 284 284 284
311 310 312 313 311 309 311 311 311 311 311 311 310 310 309 308 308 308 307 306 305 304 302 301 300 294 288 288 287 287 286 286 286 286 286 285 285 284 284 284 284 283 284 284
309 311 310 310 310 310 310 310 310 310 310 309 309 308 309 308 306 306 305 304 304 302 300 297 292 288 288 287 287 286 286 286 285 285 285 285 284 284 283 283 283 283 283 284
309 309 310 310 309 310 309 309 309 309 309 308 308 308 307 306 305 304 303 303 301 298 295 292 288 288 287 286 286 286 286 285 285 285 284 284 284 283 283 283 283 283 283 284

GFSCGP_850_thetae_003.txt.gz
Theta_e
328 328 329 326 323 323 319 318 318 315 314 315 315 316 316 316 317 313 316 318 318 317 317 318 318 319 319 319 319 320 321 321 322 325 327 328 328 328 328 328 328 329 330 331
328 329 326 324 321 318 318 318 318 316 317 316 317 316 315 313 313 313 316 318 318 318 317 317 318 318 318 318 318 319 319 320 322 323 326 327 328 328 328 329 330 330 331 330
327 326 326 326 325 321 318 318 318 317 317 317 317 318 317 314 315 316 316 318 319 318 317 317 317 317 317 317 317 317 318 320 321 323 326 328 328 328 328 327 325 324 324 324
327 323 327 326 323 325 328 316 317 317 318 320 316 320 315 314 315 314 316 318 318 318 318 317 317 317 317 316 316 316 317 317 317 318 320 321 322 320 318 316 316 317 318 319
325 324 326 329 326 318 322 316 316 317 317 316 317 317 316 313 315 314 313 315 317 317 317 317 317 317 316 316 315 315 315 315 315 315 315 315 315 315 315 315 315 314 314 314
319 322 325 325 320 315 316 316 314 314 314 318 316 317 318 314 315 314 313 314 317 317 317 317 317 316 316 315 315 315 315 315 315 315 315 314 314 314 314 313 313 312 312 312
316 316 315 315 315 314 314 316 320 321 320 321 315 316 320 316 312 314 313 314 316 316 316 316 316 316 316 316 315 315 315 315 314 314 314 313 312 311 311 310 309 309 309 309
319 322 312 311 314 314 313 317 319 323 322 319 313 317 318 312 311 316 317 315 316 316 316 316 316 316 316 315 315 315 314 314 314 311 309 309 309 309 308 308 307 307 307 307
317 318 312 312 312 314 314 317 315 320 317 319 318 316 315 313 312 312 314 314 316 316 316 315 315 315 315 315 314 314 314 313 313 309 307 307 307 307 307 307 307 307 306 306
315 315 315 313 313 311 314 312 318 315 324 323 317 316 318 316 315 312 311 313 316 316 315 315 315 315 314 314 314 314 313 313 310 306 306 307 306 306 305 305 305 305 304 303
314 314 317 314 315 314 312 312 312 314 314 319 318 317 312 314 313 313 312 316 316 315 315 315 315 314 314 314 313 313 312 310 307 306 306 306 306 305 304 303 302 300 298 297
319 314 316 317 315 312 313 313 311 315 316 312 312 315 309 311 311 314 315 315 315 315 315 315 314 314 313 314 313 311 309 308 305 306 305 305 304 304 301 299 296 294 293 292
319 318 320 321 318 316 317 314 312 312 312 314 315 316 310 310 310 313 315 317 317 316 315 314 314 313 313 312 310 309 308 305 306 306 306 305 302 299 296 293 292 292 292 292
318 316 317 320 320 316 318 317 313 314 315 314 314 316 315 312 313 315 316 317 316 314 315 314 313 312 311 310 309 306 304 306 307 306 304 301 297 293 291 291 291 291 291 290
314 317 316 314 314 316 317 318 314 314 313 315 315 314 315 313 311 312 314 314 314 314 313 312 312 311 310 308 304 304 306 306 304 303 299 295 291 291 291 290 290 290 290 290
312 315 313 311 311 311 312 313 315 315 316 314 315 314 311 312 314 314 315 314 313 314 313 311 310 309 307 304 305 306 305 304 301 297 293 290 290 290 290 289 290 290 290 289
311 310 310 312 312 313 313 311 310 309 309 310 310 310 310 312 312 314 315 315 315 314 312 310 309 307 303 304 305 305 304 302 297 291 290 290 289 289 289 289 288 288 288 288
309 309 309 310 313 316 314 312 312 311 312 310 313 313 312 313 313 313 314 315 315 314 311 308 307 304 304 305 305 303 302 296 291 289 289 289 288 288 288 288 288 287 287 287
307 309 312 316 315 314 316 314 312 315 315 312 314 313 312 312 311 312 313 312 313 312 309 308 305 304 305 306 305 303 296 290 289 289 289 288 288 288 288 287 287 286 286 286
308 308 313 309 315 320 315 313 313 311 316 311 312 311 312 311 311 308 312 312 311 309 308 306 305 305 305 304 301 295 291 290 289 288 288 288 287 287 287 286 286 285 285 285
310 309 313 314 315 314 311 312 313 315 311 310 310 309 309 308 310 310 311 311 309 308 307 307 305 304 302 301 298 292 292 289 288 288 287 287 286 286 286 286 285 285 284 284
310 310 311 311 314 316 311 313 314 310 309 310 310 310 310 309 309 309 310 309 308 307 306 304 303 302 301 299 295 291 288 288 287 287 287 286 286 286 285 285 285 284 284 283
315 311 312 311 311 310 311 311 311 311 310 310 310 310 309 309 309 308 308 308 307 306 305 303 302 301 298 294 290 288 287 287 287 286 286 286 286 285 285 284 284 283 283 282
309 308 311 312 309 309 310 311 311 311 311 310 310 309 309 308 308 307 306 306 306 304 303 302 300 299 293 289 288 287 286 286 286 286 286 285 285 285 284 284 283 282 282 282
308 309 310 310 309 309 309 310 310 310 310 309 309 308 308 307 307 306 305 304 304 303 302 300 296 291 288 288 287 286 286 286 286 285 285 285 285 284 283 283 282 282 282 283
308 308 310 310 309 309 308 309 308 308 308 308 308 307 307 306 306 305 304 303 302 301 299 295 291 287 288 287 287 286 285 285 285 285 285 284 283 283 283 282 282 282 282 283

GFSCGP_850_thetae_006.txt.gz
Theta_e
325 327 329 325 326 323 320 319 321 316 314 315 314 313 314 315 316 315 314 316 317 317 317 318 318 318 318 318 319 318 318 319 319 321 324 326 327 327 328 328 329 329 330 330
327 327 325 322 323 324 319 319 318 317 315 315 315 315 314 313 314 314 314 316 317 316 317 317 317 317 317 317 317 318 318 319 320 322 325 326 327 327 328 327 327 325 324 324
326 327 324 325 321 323 320 320 320 320 315 315 314 316 315 313 314 314 315 316 317 316 316 316 316 316 316 317 317 317 317 317 317 318 321 325 327 325 322 319 317 317 318 318
326 324 326 326 326 324 327 317 319 318 318 319 315 319 315 313 314 312 314 317 317 317 316 316 316 316 316 315 315 315 315 315 315 315 315 316 316 315 314 314 314 314 314 314
326 325 327 328 326 323 327 318 318 318 316 315 316 317 315 312 314 314 312 315 317 316 316 316 316 316 315 315 315 315 315 315 314 314 314 314 314 314 314 313 312 311 310 310
320 322 324 326 323 321 318 317 315 313 313 318 316 317 316 314 313 313 312 314 316 316 316 316 315 315 315 315 315 315 315 315 314 314 313 313 312 311 310 309 309 308 308 308
317 323 318 322 319 315 317 318 323 322 320 320 314 315 316 314 312 312 312 314 316 316 316 316 315 315 315 315 315 315 315 314 313 311 309 309 309 308 308 307 307 307 308 308
323 324 315 313 322 320 318 317 318 324 321 319 312 317 316 313 311 312 315 316 316 315 316 316 315 315 315 315 315 315 314 313 312 311 307 307 307 307 306 306 306 306 305 304
322 322 311 312 312 319 314 318 315 317 315 318 318 314 314 313 311 310 312 314 315 315 315 315 315 315 315 314 314 314 314 313 311 308 306 307 307 307 307 307 306 305 302 299
315 314 314 311 311 310 313 313 318 315 324 323 318 315 317 315 315 311 309 312 314 315 315 315 314 314 314 314 314 313 313 311 308 306 306 307 307 308 307 305 302 299 295 293
312 313 316 312 313 313 312 313 311 314 314 319 318 317 311 312 312 311 310 312 314 315 315 315 314 314 313 313 313 313 311 309 306 306 307 307 307 305 302 299 296 293 293 292
315 312 314 315 314 310 311 311 312 317 316 311 312 315 310 308 308 311 312 313 314 315 315 315 314 313 313 313 312 311 309 306 305 307 307 307 304 301 297 294 292 292 292 292
316 316 319 321 318 315 315 312 310 310 310 311 315 315 310 307 310 313 314 315 316 315 314 314 313 312 312 311 310 309 306 305 306 307 307 305 301 296 292 292 292 292 291 291
318 316 316 320 319 315 317 314 311 313 314 313 312 315 314 311 312 313 314 315 316 315 314 313 312 312 311 310 309 306 305 306 307 307 303 298 294 292 291 290 291 291 291 290
316 318 315 312 315 316 316 316 311 313 314 316 316 313 314 312 312 312 313 313 312 313 313 312 312 311 310 309 306 304 306 307 306 303 297 294 293 291 290 290 290 290 290 290
312 315 312 311 311 311 315 315 312 313 312 313 313 314 311 311 312 314 315 315 313 313 312 312 311 311 309 306 304 306 306 305 303 299 296 293 291 290 290 289 290 289 289 289
311 310 312 314 311 312 312 310 313 312 311 312 314 311 310 313 312 314 314 315 315 315 313 311 310 309 307 303 305 305 305 303 300 300 295 291 289 289 289 289 289 289 289 288
309 308 308 308 312 311 311 312 308 310 310 310 311 311 312 312 312 312 312 313 314 314 313 310 309 307 304 304 305 305 302 301 299 295 291 289 289 289 288 288 288 288 288 287
307 309 311 313 311 312 316 311 312 314 315 312 312 311 311 311 312 312 313 313 312 312 311 309 308 305 304 305 303 302 301 297 293 290 288 289 288 288 287 288 288 287 286 286
308 308 311 308 314 316 314 312 312 312 317 311 311 311 311 311 310 308 311 311 311 310 308 308 305 304 304 303 303 301 298 295 289 288 288 288 287 287 287 286 286 286 285 285
310 309 312 315 315 313 312 312 312 316 314 311 311 310 310 308 309 310 309 309 309 307 307 305 304 303 303 303 301 300 293 289 289 288 288 287 287 286 286 286 285 285 284 284
310 310 311 311 314 316 310 312 314 310 310 310 310 310 309 309 308 308 308 308 308 307 306 304 303 303 303 301 298 290 288 288 288 288 287 287 286 286 286 285 285 285 284 284
313 310 311 311 312 309 310 311 311 311 310 310 310 309 309 309 308 308 307 307 307 306 305 303 302 302 300 296 291 288 287 288 287 287 287 287 286 286 286 285 284 284 283 282
309 308 311 311 310 309 310 310 310 310 310 310 310 309 309 308 308 307 306 306 306 305 303 302 301 299 295 291 288 287 287 287 287 287 286 286 286 286 285 285 284 283 282 282
307 308 309 309 308 309 309 310 310 310 310 309 309 308 308 307 307 306 305 305 304 303 302 301 299 296 292 289 288 287 287 287 286 286 286 286 286 285 285 284 282 282 282 282
306 308 310 310 309 309 309 309 309 309 308 308 307 306 305 306 305 305 304 303 303 301 300 299 297 296 289 288 288 287 286 286 285 285 286 285 285 284 283 282 282 281 281 282

GFSCGP_850_thetae_009.txt.gz
Theta_e
319 325 329 325 326 323 319 322 323 320 315 315 316 315 317 316 315 314 313 315 316 317 317 317 318 318 318 318 318 318 319 320 321 322 324 325 326 327 327 328 328 327 326 324
321 325 325 323 323 321 319 321 320 318 315 315 317 318 317 315 314 314 313 315 316 316 316 316 316 316 317 317 317 317 317 317 318 319 323 326 327 326 325 322 321 319 317 317
321 325 324 324 324 326 321 322 320 322 317 315 315 319 316 314 313 312 313 316 316 316 316 315 316 316 316 316 316 316 316 316 316 316 318 321 321 318 315 314 314 314 314 314
322 323 325 326 325 325 327 319 321 319 322 325 316 323 317 316 313 312 313 315 315 315 315 315 315 315 315 315 315 315 315 315 315 314 315 315 314 314 314 314 313 311 309 308
323 326 325 326 325 323 325 321 322 320 320 315 316 319 318 311 314 314 312 315 315 315 316 315 315 315 315 315 315 315 315 315 314 314 314 313 313 311 310 308 308 308 308 308
322 322 325 325 322 323 314 318 318 315 315 320 317 320 320 317 314 312 311 314 315 315 315 315 315 315 315 314 315 314 314 314 312 312 310 310 309 308 308 308 308 309 309 309
321 325 322 324 320 317 318 324 327 325 321 324 313 316 319 314 312 313 314 313 315 316 315 315 314 314 314 314 314 314 314 313 312 310 308 307 307 307 308 309 309 309 309 308
324 328 320 321 321 321 323 324 325 327 323 321 312 319 319 312 312 312 314 315 315 315 315 314 314 314 314 314 314 314 313 312 310 308 307 307 307 308 308 309 308 306 303 300
321 322 314 315 315 320 318 324 317 317 314 320 319 317 315 313 311 309 311 313 315 315 315 314 314 314 313 313 313 313 312 311 309 307 306 307 308 309 309 307 305 302 298 296
318 316 313 310 314 311 318 316 323 317 324 324 319 316 321 315 314 310 309 312 314 314 315 314 313 313 313 313 313 312 311 310 308 306 307 308 308 307 306 304 301 298 294 293
310 313 314 311 314 313 314 318 315 316 316 322 320 319 311 312 311 312 310 312 314 314 314 314 313 312 312 312 312 311 310 307 306 306 308 307 307 305 302 299 296 293 292 291
311 312 313 314 313 311 311 314 315 319 316 312 314 319 310 308 308 310 310 312 314 314 314 314 313 312 312 311 311 310 308 305 306 307 307 307 305 303 299 295 292 291 291 290
314 315 318 320 317 314 313 310 311 311 311 313 318 319 309 309 311 311 311 312 313 314 314 313 312 312 311 311 310 308 306 305 307 308 306 304 302 299 295 292 291 290 290 290
316 314 317 321 318 314 316 311 310 314 315 314 313 315 314 312 312 311 312 313 314 314 313 313 312 311 311 310 309 306 305 306 307 306 305 303 300 295 292 290 290 290 290 290
315 318 315 311 315 315 315 315 311 313 315 318 316 313 313 311 311 311 312 313 313 313 312 312 312 311 310 309 307 304 305 306 306 306 302 300 295 292 290 289 289 289 289 289
313 316 312 311 312 314 317 314 313 312 311 312 312 313 309 311 311 312 314 314 313 312 312 312 311 311 310 308 304 305 306 306 306 302 298 294 291 289 289 289 289 289 289 289
315 312 313 315 311 311 315 312 313 313 310 314 315 316 308 312 311 312 313 313 313 313 313 312 312 311 309 306 304 305 306 305 302 298 295 292 289 288 289 289 289 289 289 289
312 311 310 310 311 314 314 310 311 313 309 309 310 308 309 311 311 311 312 313 312 313 313 311 310 309 307 303 304 305 304 303 299 296 292 289 288 288 288 288 289 289 289 288
307 309 311 313 311 311 314 310 310 313 313 309 310 309 310 310 311 311 312 313 313 312 312 310 309 308 305 303 304 304 302 300 296 292 289 288 288 288 288 288 289 288 287 287
308 308 314 310 313 315 313 312 311 312 316 310 310 309 309 310 312 309 310 311 311 311 310 309 307 305 303 303 303 303 300 297 292 289 288 288 287 287 288 288 288 287 286 285
311 310 312 315 314 313 311 311 311 316 315 311 312 311 310 309 309 310 309 309 309 309 308 306 305 303 302 302 302 300 296 293 289 288 288 287 287 287 288 287 287 286 285 285
311 311 312 311 313 314 310 312 314 311 310 311 310 310 309 309 308 308 308 308 308 308 306 305 303 302 302 302 300 295 291 289 288 288 287 287 287 287 287 287 286 285 284 283
312 309 311 311 311 308 309 310 310 312 310 310 310 309 308 308 308 308 307 306 307 306 305 303 302 301 301 300 295 291 290 288 287 287 287 287 287 287 287 286 285 284 283 282
308 307 310 310 310 308 309 310 310 311 311 310 309 309 309 308 308 307 306 305 305 304 303 302 301 300 300 295 294 290 288 287 287 287 287 287 287 287 286 285 284 283 282 281
307 308 308 308 307 308 309 309 310 310 310 309 309 309 308 307 307 306 306 305 304 304 302 301 301 299 296 296 289 287 287 287 287 286 287 288 287 286 284 283 282 281 281 282
305 307 309 310 308 309 309 309 309 309 309 308 308 307 306 305 304 304 304 304 303 303 302 301 299 297 295 289 287 287 287 286 286 287 287 287 285 284 283 282 281 281 281 282

GFSCGP_850_thetae_012.txt.gz
Theta_e
316 318 321 326 327 325 324 325 327 326 323 322 325 326 323 324 322 321 320 319 319 318 317 318 318 319 319 319 319 320 321 322 323 325 326 327 327 327 326 325 324 322 320 318
317 320 320 324 325 325 326 326 326 325 320 321 326 327 326 325 322 321 320 319 319 317 317 316 317 317 317 316 316 316 317 318 320 324 325 326 325 323 321 318 315 314 314 313
318 317 320 324 326 326 326 325 325 326 323 323 323 328 326 320 317 316 317 319 318 318 317 316 316 316 315 315 315 316 316 315 316 318 319 319 317 315 314 314 313 312 309 308
316 318 322 326 326 326 328 325 325 326 328 331 324 331 327 324 321 318 317 318 318 317 316 316 315 315 315 315 315 315 315 315 315 314 314 314 314 313 312 309 308 308 309 309
316 317 324 326 326 324 326 325 326 326 327 325 328 327 327 320 321 319 319 318 317 317 316 316 315 314 315 315 315 315 315 315 314 314 313 312 310 308 307 308 309 309 310 308
315 320 319 326 324 324 322 323 324 323 323 330 327 326 327 324 321 319 318 318 317 317 316 315 314 314 314 314 314 314 314 313 312 311 310 308 308 308 308 309 310 308 307 305
315 321 323 324 325 320 324 327 331 332 331 330 319 322 326 322 318 319 319 318 317 316 315 314 314 314 314 314 314 314 313 313 311 309 308 308 308 309 310 309 308 307 306 304
318 327 326 325 325 323 323 327 328 330 330 328 318 325 324 318 316 315 318 318 317 316 316 315 314 314 314 314 313 313 312 311 309 308 308 308 309 309 308 308 307 305 303 300
319 324 321 324 320 322 323 327 322 323 321 325 325 323 321 317 317 315 316 317 317 316 315 315 314 314 313 313 313 312 311 310 308 307 307 308 309 309 309 307 304 303 299 296
317 320 319 317 320 315 324 324 325 323 328 328 325 324 325 321 319 316 316 317 317 316 315 314 313 313 312 312 312 311 310 308 307 307 307 308 309 308 306 304 302 298 294 293
318 320 315 317 322 324 325 326 325 324 323 327 326 325 320 319 318 317 316 317 317 316 315 313 312 312 312 312 311 310 308 307 306 306 308 308 307 305 303 301 298 294 292 291
318 320 324 319 315 318 323 324 324 328 324 321 322 324 316 316 315 314 316 316 316 316 315 313 312 311 312 311 310 309 307 305 306 307 307 306 304 303 300 297 295 292 291 290
317 320 322 322 319 315 323 321 325 323 319 324 326 325 315 317 317 314 315 315 315 315 314 312 311 310 310 310 309 308 306 305 306 307 306 304 302 300 297 294 291 290 290 289
316 320 321 324 323 321 322 322 323 325 326 324 322 323 319 318 318 316 315 315 315 314 313 312 311 309 308 308 308 307 305 305 306 306 304 301 299 298 294 290 289 289 289 289
319 321 320 319 319 320 320 320 319 322 324 324 324 322 321 320 320 318 316 315 314 314 313 312 311 309 307 308 307 305 304 306 305 304 301 299 297 293 291 289 289 289 289 289
317 321 317 317 317 319 319 319 320 321 322 322 321 321 319 316 316 315 315 315 315 314 312 311 311 309 306 306 306 304 305 305 304 302 300 298 294 291 289 289 288 289 289 289
321 319 319 322 315 317 321 320 319 319 319 319 321 321 316 315 315 315 315 314 314 313 312 311 310 308 306 307 305 304 305 304 303 300 298 295 291 289 288 288 288 289 289 289
320 320 317 317 316 323 320 314 318 319 319 318 318 316 316 316 315 313 313 314 313 313 312 311 310 308 308 307 304 304 304 303 301 298 295 292 289 288 288 288 288 289 289 288
317 319 321 320 319 318 315 314 314 318 320 316 317 314 314 312 312 312 310 311 311 311 311 311 310 309 308 305 303 303 303 301 298 295 292 289 288 288 288 288 289 289 287 286
311 318 322 316 319 323 316 314 312 315 319 314 314 314 314 313 317 315 309 310 310 310 310 310 309 308 305 303 302 302 301 298 296 293 289 288 288 287 288 288 288 287 286 285
316 315 320 321 322 318 314 313 313 318 320 313 313 313 313 315 314 310 309 308 308 308 308 308 307 305 303 302 302 301 298 296 294 290 288 288 287 287 287 288 287 286 285 284
317 319 318 320 322 321 312 312 317 315 312 313 313 312 311 309 308 308 308 307 307 307 307 306 304 303 302 302 301 299 296 293 290 288 288 287 287 287 288 287 286 285 284 283
317 318 316 317 317 312 310 312 311 313 312 310 310 309 309 308 308 307 307 306 306 306 306 305 303 302 301 301 300 295 292 290 288 288 287 287 287 288 286 285 285 284 283 283
310 310 315 313 312 310 309 309 310 310 310 310 309 309 308 308 307 307 306 305 305 305 305 304 303 302 301 300 295 293 290 288 288 288 287 287 287 287 286 284 283 283 283 283
312 312 313 312 310 309 309 309 310 310 310 309 309 308 308 307 307 307 306 306 305 304 304 303 302 300 299 295 292 291 288 288 287 287 286 287 286 285 284 283 283 282 282 282
310 313 316 317 313 313 311 309 309 309 309 309 308 308 307 305 305 304 304 304 304 303 302 301 300 298 294 292 290 288 288 287 286 286 287 286 285 284 283 283 282 282 282 282

GFSCGP_850_thetae_015.txt.gz
Theta_e
313 317 319 320 320 324 325 328 328 327 326 327 327 326 326 324 325 325 323 322 323 322 320 320 320 321 322 325 328 329 329 330 331 332 331 327 323 322 325 324 321 316 314 313
315 317 317 317 320 324 327 327 328 326 326 325 325 326 326 326 326 326 324 323 322 321 319 319 319 319 319 321 323 327 328 330 330 326 324 322 321 320 317 314 314 312 309 309
314 315 316 317 319 325 327 327 326 326 326 324 325 328 328 327 326 324 322 323 322 320 319 319 319 318 318 317 317 317 317 318 319 320 319 318 315 314 313 311 309 308 309 310
313 314 312 318 319 322 329 326 325 326 328 329 327 329 327 327 323 321 320 322 322 320 319 318 318 318 317 315 315 315 315 315 315 316 317 316 314 312 309 308 309 310 310 309
314 314 314 319 320 325 327 325 325 327 329 329 329 330 328 327 325 323 322 322 321 320 318 318 318 317 316 315 315 315 315 315 314 314 313 312 310 309 309 309 310 308 308 308
313 312 316 319 321 323 325 326 327 326 326 329 328 329 328 327 325 324 322 321 320 319 318 318 317 316 315 314 314 314 314 313 312 311 310 309 309 309 310 309 309 308 306 305
313 313 316 320 325 324 326 327 330 331 331 328 326 328 328 322 321 322 321 321 320 319 318 317 316 316 315 314 313 312 312 312 311 310 309 309 309 310 309 309 309 308 306 304
317 319 315 319 323 323 326 328 327 328 329 328 323 327 326 321 320 321 320 320 319 318 318 317 317 316 315 313 312 312 312 311 309 309 309 309 309 309 309 309 308 306 304 302
319 320 319 322 323 322 323 329 324 327 325 328 326 326 322 321 320 318 320 320 319 319 318 317 317 316 314 313 311 312 311 310 309 308 308 308 309 309 308 307 306 304 302 300
316 321 318 321 322 320 325 326 328 326 328 329 327 326 326 322 321 319 319 320 320 319 318 317 316 315 313 311 311 311 310 309 308 307 307 308 308 307 306 305 303 301 298 296
315 313 317 320 325 325 325 327 327 326 326 329 329 327 324 321 320 320 319 320 320 319 318 317 316 314 312 310 311 311 310 308 306 306 307 307 307 306 304 303 300 297 294 292
318 321 321 321 319 323 324 326 326 328 327 325 325 325 319 320 319 318 319 319 320 319 318 316 315 313 310 310 309 309 308 306 305 307 307 307 306 304 302 299 296 293 291 291
319 321 327 324 320 319 325 324 326 326 326 327 326 326 319 321 320 317 318 319 319 318 317 316 315 312 310 309 307 306 305 304 305 306 306 305 303 301 299 297 293 291 291 290
319 321 323 325 324 323 325 325 325 325 327 326 326 325 320 321 321 319 318 319 318 318 317 315 314 312 310 308 306 304 302 303 306 306 305 303 302 300 296 293 291 290 290 290
320 323 322 321 322 323 324 325 325 326 326 326 325 324 324 323 322 320 318 318 318 317 316 315 314 313 310 307 305 302 301 304 305 305 304 302 300 296 293 290 289 289 290 291
320 323 321 322 321 321 322 322 323 324 325 325 325 325 324 322 320 320 319 318 318 317 316 315 314 313 310 307 304 301 302 304 304 304 302 300 297 293 290 289 289 290 290 290
320 322 322 323 319 321 323 322 322 322 322 323 324 324 324 319 319 319 319 318 317 316 316 315 314 313 310 306 303 300 301 304 304 302 300 297 294 291 289 289 289 289 289 288
321 322 321 322 320 325 321 318 320 321 321 322 322 323 320 319 318 318 318 317 316 316 315 314 313 312 308 304 301 299 301 303 302 300 297 294 291 289 289 289 289 288 288 288
320 322 324 323 325 325 322 316 319 321 321 320 320 320 318 317 315 313 313 314 313 313 313 313 312 308 304 302 300 301 302 302 300 297 294 291 289 289 289 288 288 289 288 287
319 321 324 323 323 324 319 316 315 319 322 321 321 320 317 315 318 316 311 310 310 311 311 310 308 305 304 300 301 301 301 301 297 295 292 290 289 289 288 288 289 288 287 286
317 321 322 323 324 325 317 315 315 319 322 315 317 317 316 317 316 312 309 308 308 308 308 308 307 304 300 301 301 300 301 299 295 293 291 289 288 288 288 289 288 288 287 286
321 321 322 323 324 325 315 314 318 318 315 315 315 315 315 312 310 309 307 307 307 307 307 306 303 301 301 301 301 301 299 295 294 293 289 288 288 287 288 288 288 287 285 285
322 321 322 321 322 314 314 314 314 315 315 314 314 313 311 310 309 307 307 306 306 306 305 304 302 301 301 301 301 299 297 295 294 289 288 288 287 288 288 288 286 285 284 284
313 312 318 315 314 314 313 311 312 314 313 312 311 310 310 309 308 307 306 305 304 304 304 303 301 300 301 301 300 297 297 295 289 288 287 287 288 289 288 286 285 284 284 284
314 313 316 315 313 311 311 311 311 310 310 309 309 309 309 307 307 306 306 305 304 304 303 303 301 298 299 300 298 296 295 289 288 287 287 288 289 287 286 285 284 284 283 283
313 316 316 317 315 315 314 311 310 309 309 308 308 308 307 306 305 305 304 304 304 304 303 302 301 300 299 298 296 293 288 288 287 287 288 288 287 286 285 284 284 284 284 284

GFSCGP_850_thetae_018.txt.gz
Theta_e
313 315 317 317 317 319 321 324 327 325 326 326 326 326 325 325 324 324 325 324 323 322 321 320 321 323 327 328 329 329 329 330 331 331 331 331 330 326 324 322 318 314 312 310
313 315 314 314 316 318 320 323 326 326 325 325 325 326 325 323 323 324 324 325 323 321 320 320 320 321 325 329 330 331 332 332 332 331 329 325 323 321 317 314 312 310 309 310
313 313 313 314 314 318 318 323 325 327 326 325 324 325 323 323 323 324 325 326 323 321 320 319 319 319 321 325 327 330 330 329 328 326 323 320 316 314 312 310 309 309 310 310
312 311 312 314 314 316 319 319 322 327 327 329 323 325 324 323 324 323 325 323 322 320 319 319 319 318 318 318 318 318 319 318 318 317 316 315 314 311 309 309 310 310 310 310
312 312 312 314 315 315 319 321 323 325 328 329 329 326 326 324 325 323 317 321 321 320 319 319 318 318 316 316 316 316 316 316 317 317 316 313 310 309 309 310 309 309 308 309
311 312 312 313 313 313 315 320 323 326 328 331 327 328 326 325 323 320 318 321 321 319 319 318 318 317 316 315 314 314 314 314 313 312 311 310 309 310 310 309 309 308 308 308
312 312 311 313 315 315 317 321 327 331 331 328 324 325 326 320 320 321 319 321 320 319 318 318 317 317 315 314 313 312 312 311 310 310 309 309 310 309 309 309 309 308 307 307
313 313 313 312 312 318 320 317 325 331 329 325 323 327 324 319 319 321 321 321 320 319 318 317 317 316 314 313 312 311 311 310 309 309 309 309 309 309 310 309 308 308 306 305
316 316 315 313 311 319 321 317 320 327 321 325 323 324 319 318 318 317 320 320 319 319 318 317 316 316 314 312 311 311 310 309 309 309 309 309 309 309 309 308 308 306 304 302
311 316 317 316 316 317 323 320 328 327 328 329 325 324 322 318 317 317 318 319 319 318 318 317 317 316 314 312 311 310 309 309 309 308 308 308 308 308 308 307 306 304 301 298
310 312 319 318 322 320 321 325 327 327 326 328 326 323 319 318 318 316 317 319 319 319 317 317 317 315 313 312 311 309 309 309 308 307 308 308 308 307 306 305 303 301 297 294
311 313 319 319 318 320 320 325 325 326 327 325 323 321 317 316 317 316 317 320 319 319 318 317 316 314 312 311 309 309 308 307 307 307 307 307 307 305 304 303 300 297 294 292
312 314 323 323 320 324 324 324 325 325 324 326 323 320 317 316 315 318 318 320 320 319 318 317 315 314 312 310 309 308 306 306 306 306 306 306 305 304 302 300 297 294 291 291
317 319 318 326 325 324 326 326 325 325 326 325 324 318 319 318 316 316 318 320 320 319 317 316 315 313 311 309 308 306 305 305 305 305 305 305 304 302 301 298 294 291 291 291
315 323 320 319 324 323 325 325 325 325 325 325 324 321 318 318 316 316 318 320 319 318 317 316 315 313 311 309 307 305 304 304 304 305 305 304 302 301 299 295 291 290 290 290
314 322 321 321 322 323 325 324 324 324 323 322 323 323 321 318 319 318 318 319 318 318 317 316 315 313 311 309 306 304 303 303 303 304 304 303 301 299 295 292 290 290 290 290
319 321 322 320 320 321 322 322 323 323 322 323 325 323 321 317 317 317 318 318 318 318 317 316 315 313 311 308 306 304 302 302 302 303 303 301 299 296 293 290 289 289 290 290
319 320 322 321 320 322 320 317 319 320 320 320 319 319 319 317 316 317 319 318 318 317 316 316 315 314 311 308 305 303 301 301 302 302 301 299 297 293 290 289 289 289 290 290
318 320 324 321 323 322 322 316 318 319 320 318 318 318 315 315 315 313 315 316 316 315 315 315 314 313 310 307 304 302 300 301 301 301 298 296 292 290 289 289 289 290 290 289
319 319 323 321 321 323 317 316 314 317 319 315 316 317 314 315 314 311 312 314 313 313 313 313 312 311 308 304 302 301 301 301 301 298 296 294 290 289 289 289 290 290 289 287
321 321 323 323 323 321 316 314 314 319 319 314 316 317 314 312 313 311 311 310 311 311 311 310 309 307 305 303 301 300 300 300 298 296 295 290 289 289 288 290 290 289 287 286
320 321 323 321 323 322 314 314 317 316 315 315 316 315 311 310 309 309 308 307 307 307 306 306 306 304 302 300 300 300 300 298 296 295 291 289 288 288 290 289 288 288 287 286
321 319 320 320 321 315 314 314 314 315 314 314 313 312 311 309 308 306 306 305 305 305 304 304 304 303 301 300 300 300 299 296 295 291 289 288 289 290 289 288 288 287 286 284
315 312 316 316 313 312 313 313 314 315 314 313 312 311 310 308 307 306 305 304 304 304 304 303 303 302 301 300 300 299 296 295 291 289 288 289 289 289 289 289 287 285 285 284
312 311 314 313 312 311 312 312 313 313 312 311 310 310 308 307 306 305 304 304 303 303 302 302 301 300 300 300 299 296 295 292 289 288 288 289 289 289 289 287 286 284 284 284
311 313 315 316 314 314 312 312 311 311 310 309 309 308 307 306 306 305 305 304 303 303 302 300 298 298 298 298 297 295 292 289 288 288 288 289 289 289 288 286 285 284 283 283

GFSCGP_850_thetae_021.txt.gz
Theta_e
312 312 314 314 315 315 316 317 319 321 322 324 325 325 325 324 323 322 322 321 320 322 322 321 320 322 325 326 326 328 326 329 332 335 335 334 333 331 330 329 322 315 311 309
311 313 312 313 315 317 317 317 318 319 320 323 324 325 324 323 322 323 324 324 320 321 321 320 321 325 328 329 329 329 330 332 333 334 333 332 331 327 323 317 312 309 310 310
312 311 312 313 313 316 317 317 317 318 320 322 323 326 324 322 323 323 324 325 321 321 320 321 321 325 329 329 330 331 331 330 330 330 330 327 322 317 313 310 309 310 310 310
311 310 311 313 313 313 315 314 316 317 321 326 324 330 323 323 320 318 320 321 321 320 320 320 320 323 327 330 330 330 331 331 330 326 323 320 315 313 310 309 310 310 310 310
311 311 311 311 312 312 313 314 315 316 319 321 325 329 322 320 323 322 320 318 320 320 320 319 319 319 323 324 328 328 326 324 320 317 315 314 311 309 309 309 309 310 310 309
310 310 311 311 310 311 312 314 314 318 321 324 322 328 324 322 322 321 319 318 318 319 319 318 318 318 318 318 318 318 317 317 317 316 314 311 310 310 310 309 309 309 308 308
311 311 311 312 313 312 313 314 314 319 321 323 323 326 326 320 317 321 316 317 317 318 318 318 318 317 316 316 316 316 316 316 315 313 310 309 309 309 309 309 308 308 308 308
310 308 311 311 312 314 313 312 315 316 322 323 325 329 323 322 316 320 317 317 317 318 318 318 318 316 315 314 313 313 313 312 311 310 309 309 309 309 309 308 308 308 307 306
310 311 312 311 311 311 313 313 313 320 322 326 325 320 317 316 316 317 317 316 316 317 318 318 317 316 314 313 312 312 311 310 309 309 309 309 309 309 308 308 307 306 305 303
311 313 311 311 312 311 315 315 316 317 326 328 324 320 319 317 316 317 317 316 316 317 317 317 317 315 313 312 311 310 310 310 309 308 308 308 308 308 308 307 306 306 304 300
311 311 313 310 314 315 316 316 319 319 319 327 325 322 316 316 316 317 317 316 316 317 317 317 316 315 313 311 311 310 309 309 308 307 308 308 308 307 307 306 306 304 301 297
311 312 314 314 318 316 317 317 318 319 326 324 319 318 314 314 313 315 316 316 317 317 317 316 316 315 313 312 311 311 309 308 307 307 307 307 307 307 306 305 304 301 296 293
311 313 314 321 319 319 320 319 321 319 323 326 319 318 315 312 313 314 316 317 316 317 317 316 316 315 313 312 311 310 308 306 306 305 306 306 306 306 305 304 301 297 293 292
310 314 317 323 323 323 323 321 318 320 326 325 321 318 317 314 314 312 316 317 317 317 317 316 315 314 313 312 310 308 307 305 305 305 305 305 305 304 303 301 297 294 292 291
314 316 317 316 318 322 323 322 321 324 324 325 318 318 316 314 313 313 317 317 317 316 316 316 315 314 313 311 309 307 306 305 303 303 304 304 304 303 301 299 295 292 291 290
312 315 320 322 323 322 325 325 324 324 323 323 322 323 316 314 315 314 316 317 316 316 315 315 315 314 313 311 308 306 304 303 302 303 303 303 302 301 300 297 292 291 290 291
315 317 323 320 323 324 326 324 323 323 322 322 324 321 314 315 314 313 316 317 317 316 316 316 315 314 313 310 308 306 304 302 302 302 302 302 300 299 296 292 290 290 290 291
316 318 321 321 317 320 317 317 321 323 321 320 321 319 316 313 312 315 317 318 318 318 317 316 315 314 312 310 308 305 303 301 301 302 302 300 298 297 293 290 289 290 291 290
315 318 323 320 320 318 317 315 317 318 318 316 318 316 313 313 314 312 315 318 318 318 317 316 315 314 311 309 306 304 302 301 301 301 300 298 297 294 290 289 290 290 290 289
318 318 321 318 317 321 316 314 313 314 318 314 313 314 313 313 314 310 313 315 316 316 316 315 314 313 311 307 305 304 301 300 300 300 298 297 294 290 289 289 291 290 289 288
320 321 318 321 322 317 315 313 313 318 316 312 313 314 312 311 311 311 313 314 314 314 314 314 312 311 308 305 303 301 300 300 299 297 296 294 290 289 289 290 290 289 288 287
320 321 322 320 322 319 313 313 316 313 313 312 311 311 309 309 309 310 311 311 312 312 311 311 310 307 304 303 302 301 300 299 297 296 294 290 288 289 290 290 290 289 287 285
320 318 321 318 319 315 313 313 315 315 314 311 311 310 312 309 309 309 308 308 308 308 308 307 306 304 301 300 299 300 300 298 296 293 289 288 289 290 290 290 288 287 285 284
315 311 315 315 313 312 312 313 315 314 314 312 312 311 311 308 307 306 305 305 305 304 304 303 303 301 299 298 299 299 298 296 293 289 288 289 290 290 290 289 287 286 285 283
310 310 313 312 311 311 312 312 314 313 312 311 310 310 309 308 306 305 304 304 303 303 302 301 301 300 300 299 299 297 295 293 289 288 288 289 290 290 289 287 286 285 283 283
309 311 313 315 312 312 311 312 312 312 311 310 309 307 306 306 305 304 303 303 302 302 301 300 300 299 299 298 297 295 293 288 288 288 289 289 289 289 288 286 286 284 283 282

GFSCGP_850_thetae_024.txt.gz
Theta_e
312 311 313 312 313 314 314 314 316 316 317 319 322 322 321 322 322 321 322 323 323 322 321 321 321 321 320 321 322 323 324 324 329 333 335 335 332 331 331 330 329 326 318 311
312 313 311 310 311 315 315 316 316 315 315 317 320 322 321 321 322 323 323 322 323 320 320 321 321 320 321 322 324 324 323 322 329 333 335 335 332 330 330 330 322 311 309 310
311 310 310 311 312 314 315 316 315 316 315 315 316 318 320 321 321 322 322 323 323 321 321 321 321 321 324 325 327 327 327 330 332 334 335 333 332 330 327 316 310 310 309 310
311 310 311 312 312 313 314 314 316 316 316 316 319 322 319 321 322 320 322 322 322 320 321 321 322 324 326 327 328 330 331 332 333 333 333 332 330 325 314 310 310 310 310 310
311 310 311 311 312 312 313 312 313 315 316 316 316 319 319 319 321 322 320 321 322 321 321 321 321 324 328 328 329 330 330 330 330 330 327 325 320 313 310 309 310 310 309 309
310 310 310 310 310 311 312 312 313 312 314 317 314 319 319 322 322 321 320 318 319 318 320 321 323 326 329 329 330 329 330 330 328 322 318 314 313 310 310 310 309 309 309 309
311 312 311 312 312 311 311 313 313 315 314 313 312 316 316 318 319 319 320 316 318 318 319 320 322 323 325 327 329 328 327 324 318 315 314 312 310 310 310 309 309 309 308 307
313 312 311 311 312 312 312 312 311 310 313 311 319 320 320 318 317 318 319 319 317 316 318 319 319 320 321 321 323 320 318 316 316 315 312 309 309 309 309 309 309 308 307 306
312 311 310 310 311 311 312 313 310 310 314 319 320 321 319 320 314 314 315 315 315 316 317 318 318 318 318 318 317 317 316 316 315 312 309 308 309 308 309 308 308 307 306 304
308 307 309 310 310 311 312 311 312 312 313 315 322 322 323 320 317 315 315 315 315 316 316 317 317 316 316 315 315 314 314 313 311 309 308 308 308 308 308 307 307 306 304 301
308 308 311 310 311 311 313 312 313 311 313 317 320 323 319 318 318 315 316 315 315 315 316 317 316 315 314 313 312 311 310 309 308 307 308 308 308 307 307 306 306 305 302 298
309 311 311 310 311 311 311 312 313 314 314 320 320 320 314 313 315 316 315 315 315 315 316 317 316 314 312 312 310 309 308 308 307 307 307 307 307 306 306 305 305 302 299 295
311 313 314 314 313 312 313 314 314 316 317 315 323 320 313 311 312 315 314 314 314 315 316 317 315 313 312 311 310 309 308 306 306 306 306 306 306 305 305 304 303 300 296 293
310 314 313 317 320 319 318 316 316 317 319 315 316 319 315 312 312 313 314 314 314 316 316 316 315 314 312 311 310 308 307 305 304 304 304 305 305 304 304 303 301 297 293 291
311 316 315 315 313 315 320 319 319 314 317 318 321 322 318 314 312 313 315 314 314 314 315 315 315 314 313 311 310 308 306 304 303 303 303 304 304 303 302 300 297 293 291 290
312 313 311 314 316 317 320 321 319 316 314 315 317 324 315 311 311 313 314 314 314 314 314 315 315 315 313 312 310 307 305 304 303 302 303 303 303 302 300 298 294 291 290 291
314 313 316 323 322 321 326 324 314 314 317 316 324 320 313 315 313 312 314 315 315 315 315 315 316 315 314 312 310 307 305 304 302 301 302 302 301 299 298 295 291 290 291 291
313 314 319 323 323 321 317 316 322 322 321 319 321 316 314 313 311 313 315 316 316 316 315 315 316 315 313 312 309 307 304 303 302 301 301 301 299 298 296 291 289 290 291 290
313 315 320 323 320 318 316 314 317 322 321 315 319 314 311 312 313 312 315 317 317 316 316 316 316 315 313 311 308 306 303 302 301 300 300 299 298 296 291 289 290 291 291 289
315 316 320 314 318 321 316 314 312 313 317 313 313 312 311 311 315 311 313 315 316 316 316 316 315 314 313 309 307 304 302 301 300 300 299 298 296 292 289 290 291 290 289 288
320 318 319 317 321 316 314 313 312 318 315 312 312 312 312 311 310 312 312 313 316 316 316 315 314 313 311 307 305 302 301 300 300 299 297 296 291 289 290 291 291 290 288 287
320 321 321 318 319 316 313 313 316 311 312 311 310 310 310 309 310 311 312 313 314 314 314 313 313 309 306 304 303 302 300 299 299 297 296 291 289 289 291 291 290 288 287 287
318 317 318 317 316 312 313 313 314 313 313 310 309 310 312 310 310 311 310 311 312 312 311 309 309 305 302 301 301 301 300 299 298 296 291 289 289 290 290 289 289 288 287 285
314 311 316 317 314 313 312 314 314 313 313 312 311 310 311 310 309 309 309 309 309 308 308 307 306 303 300 299 298 300 299 297 296 291 289 289 289 289 289 289 288 287 285 284
312 310 312 312 311 311 312 312 313 313 312 311 310 310 310 309 307 307 306 305 304 304 303 303 302 301 300 298 299 299 297 295 290 288 288 289 289 289 289 289 287 285 284 282
307 311 314 315 312 311 310 312 312 312 311 310 310 308 307 307 306 304 304 303 303 302 301 301 300 300 299 298 298 296 294 290 288 288 288 288 289 289 288 287 287 284 283 282

GFSCGP_850_thetae_027.txt.gz
Theta_e
311 310 312 312 311 313 313 314 314 314 314 314 315 317 318 319 319 320 321 323 324 324 324 323 322 322 322 321 321 326 330 334 333 335 335 336 333 333 333 332 330 329 327 323
311 312 309 309 309 311 313 314 315 313 313 313 314 314 313 313 314 319 320 321 322 324 324 323 321 321 321 321 321 322 325 329 331 333 334 334 333 331 330 330 330 327 315 309
311 310 310 310 310 312 312 313 313 314 312 312 313 314 312 312 315 318 320 321 322 322 322 323 321 321 321 321 321 322 323 324 325 332 334 334 332 331 329 328 327 316 309 309
311 310 310 310 310 311 312 311 313 314 315 314 313 314 313 313 314 316 318 320 321 322 322 322 321 321 321 322 323 324 324 322 325 333 334 333 332 331 328 326 316 310 309 310
311 310 310 310 311 311 312 312 313 314 313 313 313 313 311 313 314 316 316 320 321 322 322 322 321 321 322 324 325 327 327 327 330 333 333 334 333 331 327 316 310 309 310 309
309 309 310 310 310 310 311 312 312 313 313 314 311 312 311 310 312 317 316 319 320 321 322 321 321 322 324 326 327 329 331 332 332 332 332 331 330 327 318 310 309 309 309 309
312 312 310 310 311 310 311 313 313 314 314 311 309 311 311 310 312 316 316 318 320 321 319 320 320 324 325 326 328 329 330 330 330 329 326 325 322 315 310 309 309 309 309 308
313 315 311 310 311 312 311 312 314 312 311 308 310 313 312 310 311 312 312 315 317 318 318 319 321 324 325 327 328 329 329 330 328 324 319 315 311 309 309 309 309 308 308 307
312 308 309 310 310 311 312 313 311 312 309 313 314 312 313 311 315 314 314 316 316 316 316 318 321 324 326 327 328 328 328 328 324 316 313 311 309 308 308 308 308 307 307 306
308 308 308 309 310 311 311 310 313 313 311 310 307 311 318 314 312 312 311 313 315 315 316 318 321 323 325 326 326 325 324 322 316 314 311 308 308 307 307 307 307 306 306 303
309 308 306 310 311 311 312 312 311 311 309 307 311 308 307 314 315 314 312 313 314 315 315 316 318 321 321 321 321 319 317 316 314 312 308 308 307 307 307 306 306 306 304 300
309 309 309 309 310 310 310 311 312 311 310 309 311 313 312 311 311 313 313 314 315 314 313 315 318 318 317 317 316 315 314 313 311 308 307 306 306 306 306 306 305 303 301 297
310 312 312 313 311 311 312 311 312 312 312 311 311 310 311 311 312 314 314 314 314 313 313 315 316 316 315 314 313 312 311 309 307 306 306 306 306 305 305 305 303 301 298 294
310 313 313 313 316 312 313 313 313 313 314 313 312 311 310 310 313 314 314 314 313 314 314 315 315 314 313 311 310 309 307 306 305 305 305 305 305 304 304 303 301 299 295 292
311 314 314 313 312 312 314 316 314 313 314 316 314 312 311 313 317 315 313 312 313 313 314 315 314 313 311 310 308 307 306 304 304 304 304 304 304 303 302 301 299 296 293 291
311 313 310 312 313 314 316 315 315 314 313 315 316 316 314 313 312 312 312 313 313 313 313 315 315 313 311 310 308 306 305 304 303 303 303 303 303 302 301 299 297 294 291 290
312 312 314 316 319 318 319 316 317 316 316 315 316 315 314 314 312 313 312 313 313 314 315 315 315 314 312 310 309 307 305 304 302 302 302 301 301 300 299 297 295 291 290 292
314 312 314 319 320 324 320 317 316 317 315 313 314 314 314 314 311 313 314 314 314 314 314 315 315 314 312 311 309 307 305 303 302 301 301 300 300 299 297 296 291 290 292 292
314 314 319 323 321 319 314 317 316 317 318 313 312 315 312 310 312 311 314 315 315 315 315 316 315 315 314 312 309 307 304 303 301 300 300 300 299 298 295 290 289 291 292 291
316 315 317 319 320 320 316 313 311 313 317 312 316 315 312 311 315 313 313 315 315 315 315 315 315 314 313 311 309 306 304 302 300 299 299 299 297 295 291 289 291 291 291 291
317 319 320 318 320 315 314 312 311 316 315 311 312 312 311 312 309 310 312 314 315 315 315 315 314 314 312 310 307 304 302 300 299 299 298 296 295 291 289 290 291 291 290 289
318 319 319 316 318 315 310 311 314 310 312 310 309 310 308 308 307 308 311 313 313 314 314 313 313 312 310 308 305 302 301 299 298 298 296 295 291 289 290 291 290 290 289 288
317 316 316 314 314 311 312 312 313 312 311 310 309 309 311 308 307 307 308 310 312 312 312 312 312 310 306 303 302 302 300 299 298 296 295 290 288 289 290 290 290 290 288 286
312 311 315 315 313 312 312 313 313 312 311 310 309 309 311 310 308 307 308 309 310 310 311 309 308 305 301 300 300 300 299 298 296 294 290 288 289 289 289 289 289 288 286 284
312 310 312 312 310 311 312 312 313 311 311 310 308 309 310 311 308 309 308 308 308 308 307 306 306 304 301 299 298 298 297 296 294 290 288 288 289 289 289 289 287 286 284 283
307 311 314 315 312 312 311 312 312 311 310 310 310 308 309 310 309 309 307 307 307 306 304 303 302 301 298 297 298 297 295 293 289 288 288 288 288 288 289 288 287 284 283 282

GFSCGP_850_thetae_030.txt.gz
Theta_e
310 310 313 314 312 313 314 314 316 314 313 312 313 313 313 313 314 316 318 319 319 320 322 324 324 323 323 322 322 322 323 325 330 334 336 337 337 333 333 333 331 330 328 328
310 311 309 308 309 311 312 314 314 312 311 312 312 313 312 311 312 314 316 317 319 321 321 323 324 324 322 322 322 321 321 326 331 334 336 336 336 333 333 332 331 328 327 324
309 309 309 310 309 310 310 310 310 310 310 310 311 312 310 309 310 311 312 313 316 319 321 321 322 323 322 321 321 321 321 326 332 335 336 336 334 331 331 329 329 326 320 311
310 309 310 309 310 309 311 310 311 311 312 312 311 313 310 311 309 308 310 313 316 317 319 321 321 322 322 321 321 321 321 323 328 333 335 335 334 331 329 327 325 322 311 309
311 309 310 311 310 309 311 310 311 312 313 311 312 314 309 308 309 308 309 314 315 316 316 319 321 322 322 321 321 321 322 323 324 329 333 334 333 330 327 325 324 313 309 309
310 309 309 309 309 309 310 311 312 313 313 315 312 311 310 308 308 307 310 313 315 319 320 320 321 322 322 321 322 323 323 324 323 327 332 332 332 329 327 324 315 309 309 309
312 312 310 309 310 310 311 314 314 315 315 312 308 310 311 307 307 309 309 313 315 317 318 320 320 321 321 321 323 325 326 326 326 330 330 330 330 329 328 322 310 309 309 309
313 308 311 310 310 310 311 312 314 314 312 307 307 310 309 307 308 309 309 312 312 317 318 319 320 321 321 322 324 326 329 330 330 328 328 328 328 326 317 309 308 308 308 307
312 309 308 309 310 309 312 313 311 313 312 313 310 309 309 310 308 310 309 310 311 311 313 317 318 319 321 323 324 326 329 330 330 328 327 324 319 312 308 308 308 307 307 306
310 310 307 309 309 310 311 310 312 312 313 313 308 306 308 307 307 307 307 307 311 314 314 315 317 319 323 325 326 328 329 329 328 325 320 314 310 308 307 307 307 306 306 305
309 309 307 309 310 310 312 312 312 311 311 307 308 306 303 304 306 309 312 311 311 312 314 316 317 319 324 326 327 327 327 327 324 317 312 309 307 307 306 306 306 306 305 303
308 311 310 309 309 309 310 311 311 310 309 309 305 308 308 308 309 312 312 312 313 313 314 315 316 319 323 325 325 326 324 324 318 312 310 307 306 306 306 305 305 305 303 302
308 311 310 310 310 309 311 311 311 310 310 310 308 308 306 306 307 311 313 314 313 313 312 313 314 319 321 322 322 321 319 317 313 310 307 305 305 305 305 305 305 303 302 300
309 311 311 312 313 311 313 311 311 312 313 311 311 309 308 309 310 310 313 314 313 312 312 310 313 318 320 319 319 316 314 313 310 307 305 305 304 305 304 304 303 302 300 298
310 314 312 312 312 312 313 314 312 312 312 313 312 311 309 309 311 311 314 313 312 311 310 310 313 315 315 314 313 311 310 308 306 304 304 304 304 304 303 303 302 300 298 295
312 313 311 312 312 313 313 313 314 313 312 312 312 313 313 312 313 313 312 313 313 311 310 309 312 313 313 312 310 308 307 305 304 303 303 303 303 303 302 301 300 297 295 291
311 311 314 315 314 315 320 316 315 314 314 313 314 313 312 313 314 313 312 313 313 312 311 311 313 313 312 310 309 307 305 303 302 302 302 302 302 301 300 299 297 295 291 291
312 313 313 316 317 324 320 318 316 315 315 312 313 314 314 313 313 312 312 313 313 313 311 312 313 312 310 308 307 306 304 303 302 301 301 301 300 300 298 297 295 292 291 292
313 315 316 321 320 319 318 318 314 314 315 314 314 313 312 312 310 311 312 313 314 314 314 315 314 313 311 309 308 306 304 302 301 300 300 300 299 298 296 294 292 290 292 292
313 313 317 317 320 322 315 312 313 313 318 312 311 313 312 312 316 312 312 313 314 314 315 315 314 313 312 309 308 306 304 301 300 299 299 298 297 295 294 292 290 291 291 291
317 318 319 319 320 315 313 311 311 315 314 311 313 312 313 313 312 310 312 314 314 314 314 314 314 314 312 310 307 305 302 300 299 298 297 296 295 294 292 290 291 291 291 291
316 319 318 317 318 314 310 311 314 309 310 310 310 311 311 312 309 305 310 312 312 313 312 313 313 312 310 308 306 303 301 299 298 297 296 295 294 292 289 290 290 290 290 289
315 314 314 314 313 310 312 311 312 311 310 309 308 309 310 307 304 306 308 310 311 312 312 311 312 310 308 306 304 302 300 297 296 296 295 294 291 289 290 290 290 290 289 288
311 309 314 314 313 311 312 312 311 310 309 308 308 308 308 305 305 306 307 308 309 310 310 309 309 307 304 301 301 301 298 296 296 295 294 290 288 289 289 289 289 289 288 285
310 310 312 311 310 310 311 311 311 310 308 308 307 308 307 308 306 307 306 307 307 308 307 307 306 303 300 298 298 297 297 296 296 294 290 288 289 289 289 289 289 288 285 283
307 312 313 314 312 311 310 311 310 310 309 308 309 307 306 308 308 307 306 306 307 306 304 303 302 300 298 297 297 296 296 294 292 289 288 288 288 288 289 289 288 285 283 282

GFSCGP_850_thetae_033.txt.gz
Theta_e
310 312 313 314 312 312 312 314 315 315 313 313 314 314 313 313 313 312 313 313 314 315 318 320 323 324 324 324 324 323 323 323 323 324 329 335 335 337 335 334 332 332 329 328
310 312 310 309 311 312 314 315 314 312 311 312 312 312 311 311 311 312 312 312 313 314 316 317 320 323 323 324 323 322 322 323 324 325 328 334 335 335 334 332 332 331 329 326
310 309 309 310 309 310 310 312 312 312 310 310 310 311 310 309 309 310 310 311 311 313 313 315 317 319 321 323 323 322 322 322 323 325 330 335 336 333 332 330 329 329 327 323
310 309 309 309 310 309 311 309 310 310 311 312 310 312 309 310 310 309 309 309 310 311 311 311 315 318 320 322 322 321 321 321 323 328 332 334 336 333 331 330 329 328 324 314
309 310 310 310 310 309 310 309 310 311 312 311 311 312 311 308 309 309 309 309 310 311 312 311 312 317 320 321 322 321 321 321 323 329 333 335 334 332 330 328 326 322 318 311
308 308 309 309 309 309 309 310 311 312 312 315 312 312 312 311 309 308 309 309 309 310 312 314 314 315 319 321 321 321 321 322 323 329 333 334 334 332 328 324 322 318 315 308
312 312 310 309 310 309 310 314 314 315 315 314 309 312 312 309 310 309 308 308 310 311 313 314 317 318 318 321 321 321 321 323 323 326 331 332 332 331 327 323 322 318 310 308
312 309 311 310 310 311 311 311 313 314 312 310 307 312 311 308 309 309 308 308 309 310 311 315 317 318 319 321 321 321 322 324 323 325 328 330 329 326 323 321 315 310 308 308
312 309 307 308 309 309 312 313 310 312 312 314 312 308 307 307 307 307 308 309 310 311 312 313 312 318 319 320 321 321 323 324 323 324 328 327 325 323 319 313 308 307 308 308
309 308 305 308 309 310 311 309 313 312 313 313 311 309 310 307 308 307 306 311 312 313 311 312 313 317 318 320 321 323 325 326 326 327 325 325 324 315 312 308 307 307 307 307
309 309 306 309 309 309 311 311 312 311 312 313 311 310 305 306 306 306 311 311 313 313 314 311 313 315 317 319 323 326 327 328 327 325 324 322 315 309 306 306 306 307 307 306
308 310 310 307 307 308 309 311 311 313 312 311 310 311 307 305 307 310 307 312 313 315 314 311 313 315 317 320 324 326 326 327 325 323 319 313 309 306 305 306 306 306 306 304
308 310 310 307 308 308 310 310 311 311 311 312 312 310 307 305 306 307 310 312 313 314 313 313 313 315 317 321 324 325 325 324 321 315 311 307 305 305 305 305 306 305 303 302
308 310 308 310 311 312 312 310 311 311 313 312 312 310 309 308 308 308 310 312 313 312 311 311 311 313 316 320 322 323 322 318 315 308 306 305 304 305 305 305 304 302 301 300
309 313 310 310 311 311 312 312 312 312 312 312 312 311 310 309 309 310 312 312 312 310 308 308 309 312 316 318 320 319 317 312 308 306 305 304 304 304 304 303 302 300 299 297
310 313 312 313 313 313 313 313 313 311 312 311 312 312 310 309 310 312 313 313 312 310 308 307 308 312 315 317 317 315 312 308 306 305 304 303 303 303 302 301 300 299 297 294
313 312 314 315 315 315 319 317 318 314 312 311 313 312 310 311 312 313 312 312 313 312 308 307 309 312 314 315 315 312 309 307 304 303 303 303 302 302 301 299 298 296 294 292
313 312 313 315 316 323 320 318 315 316 314 312 312 312 311 311 312 312 312 311 313 312 309 309 310 311 311 311 309 308 306 304 302 302 302 301 301 300 299 297 296 294 292 292
310 313 316 319 319 318 316 314 316 318 317 313 313 312 312 313 312 310 310 312 313 313 311 311 311 311 310 308 307 306 303 302 301 301 301 300 299 298 297 296 294 292 291 292
313 313 317 316 320 320 316 312 311 312 317 313 313 312 312 312 316 311 309 312 312 312 313 313 311 310 309 306 305 303 301 300 300 299 299 298 297 296 296 295 292 291 291 291
316 315 316 317 321 314 312 310 311 314 315 310 312 312 312 314 310 307 309 311 312 313 313 312 311 309 307 305 303 302 300 299 299 298 298 297 296 295 294 292 290 291 291 290
316 318 320 317 317 315 310 311 314 310 310 310 310 311 315 310 306 310 310 310 311 312 312 312 310 308 306 304 302 301 299 298 298 297 297 296 295 294 291 290 290 290 290 290
314 313 315 313 313 310 311 311 311 310 308 308 307 309 311 311 306 308 308 309 309 310 310 310 310 307 304 302 302 301 299 298 297 296 296 296 294 290 289 290 289 289 290 288
311 308 313 314 313 311 311 311 311 309 307 307 308 308 309 308 306 307 306 305 305 307 308 308 308 305 302 301 300 301 298 296 297 297 296 293 289 289 289 289 289 289 288 285
310 309 312 311 311 310 311 310 310 308 307 307 306 307 307 308 307 306 304 304 304 306 306 306 306 304 300 298 298 297 297 296 296 295 292 289 289 289 288 289 289 287 285 283
306 311 313 314 312 311 309 310 308 308 308 307 309 305 305 307 306 305 303 304 306 306 304 304 302 300 297 297 297 296 295 294 295 291 289 288 288 288 288 289 287 284 283 283

GFSCGP_850_thetae_036.txt.gz
Theta_e
313 315 316 315 315 315 315 316 317 317 315 315 316 316 316 315 315 315 315 315 316 317 318 318 320 321 322 321 321 324 324 324 323 324 331 334 334 335 336 335 335 334 331 330
313 314 313 313 313 314 315 316 316 315 314 314 314 313 313 312 312 312 313 313 313 313 315 316 318 320 322 322 323 324 324 324 323 324 327 329 332 334 334 335 334 333 331 330
314 313 311 312 313 314 314 315 315 315 313 312 312 313 314 313 312 312 311 311 312 312 312 313 315 318 320 322 322 324 324 323 322 323 328 327 331 334 334 334 333 331 330 328
313 312 311 312 312 312 314 312 312 312 312 315 312 316 315 315 314 313 312 312 312 312 312 312 313 315 318 321 322 323 323 323 323 324 325 326 330 334 334 332 331 330 327 326
313 312 312 312 312 311 312 311 311 312 313 313 314 313 314 314 314 313 314 313 313 312 312 312 313 313 316 319 319 321 322 322 322 323 324 329 332 333 333 330 329 326 326 320
311 310 311 312 311 311 311 311 311 312 313 316 314 315 315 315 314 314 313 312 312 312 312 312 313 314 314 317 318 320 321 321 321 323 326 330 332 333 333 329 326 326 322 315
312 312 311 310 311 311 311 313 315 316 316 316 312 313 314 313 313 313 313 312 312 311 311 312 314 315 316 317 317 320 321 321 321 323 328 330 332 333 332 329 328 326 320 312
315 316 313 311 311 312 312 312 315 315 314 313 311 313 313 312 312 311 311 311 310 312 313 312 314 316 317 317 315 320 321 321 322 324 328 330 332 331 330 327 326 322 314 311
314 312 309 311 311 311 312 313 312 314 313 315 312 311 312 312 311 311 311 311 311 312 312 313 312 315 318 319 317 319 321 322 322 324 327 330 329 330 327 324 319 314 309 308
312 314 309 310 310 311 312 311 313 313 313 313 312 312 312 312 311 311 311 311 312 312 312 314 313 314 316 319 319 320 321 321 322 323 325 328 327 327 322 317 313 308 307 307
311 310 310 309 310 312 311 312 313 312 313 314 314 314 311 310 310 311 310 311 311 313 314 314 314 315 318 319 319 320 320 321 321 322 324 327 324 318 317 312 306 305 306 306
310 310 311 311 309 310 310 311 311 314 313 313 314 314 311 311 310 311 311 310 311 313 314 315 314 316 317 317 316 317 319 321 321 322 324 322 319 317 313 305 304 305 306 305
310 311 313 313 312 310 311 311 311 313 313 315 316 313 310 310 309 309 310 310 311 314 313 312 311 313 314 313 313 316 319 321 322 324 321 320 316 307 304 304 304 305 304 303
309 311 312 313 315 314 314 312 312 311 314 314 315 313 311 310 311 311 310 310 313 315 312 311 311 311 311 311 310 315 321 322 323 321 319 315 308 304 304 304 304 304 302 301
310 313 312 312 312 312 313 313 313 313 312 314 314 313 313 312 312 312 311 313 314 314 310 309 308 309 308 306 312 320 321 319 319 317 310 305 303 303 304 304 303 302 300 299
310 313 313 313 312 313 315 315 315 314 314 312 313 313 312 312 311 312 311 312 314 313 311 308 306 306 302 308 315 319 317 316 312 308 305 304 303 303 303 302 301 299 298 297
312 312 313 317 314 316 322 319 318 317 315 313 315 314 312 312 312 312 313 313 314 313 309 306 305 301 302 311 317 315 314 309 305 304 303 303 302 302 301 300 299 297 296 295
313 312 313 317 316 323 321 317 317 316 316 313 312 313 312 313 313 313 312 311 312 313 308 305 302 301 306 311 311 313 307 305 304 302 302 301 301 301 299 298 296 295 294 293
312 313 316 318 319 318 319 317 314 316 318 314 314 313 313 313 313 311 309 312 315 310 306 304 306 307 306 308 308 306 303 301 301 301 301 300 300 299 298 296 295 294 292 292
312 311 314 318 319 321 318 315 312 314 321 312 314 313 314 314 320 314 308 311 310 306 304 305 307 306 308 306 305 304 302 301 300 300 300 299 298 297 296 295 293 292 291 291
317 315 315 317 319 318 316 315 312 318 316 311 312 313 313 316 309 306 307 308 311 311 310 308 308 308 307 305 304 302 300 300 300 299 299 298 296 296 294 293 291 291 291 290
317 318 320 319 320 320 312 317 318 315 312 310 310 311 313 310 304 304 307 307 306 306 308 309 308 306 304 303 301 300 300 299 299 298 297 296 296 294 292 290 290 290 290 290
318 317 319 317 319 315 313 314 312 309 309 309 308 309 310 306 304 305 305 305 306 307 306 306 306 303 300 299 301 301 299 298 297 297 296 294 293 292 290 290 289 289 289 289
315 313 317 318 318 316 313 310 309 308 306 305 307 307 308 307 305 305 305 304 304 304 305 304 304 302 299 299 299 300 298 297 296 295 294 293 291 289 289 289 289 289 288 286
316 313 316 317 317 315 310 309 308 308 307 305 306 306 306 305 301 304 304 304 303 304 303 303 302 301 299 298 298 298 296 295 295 295 293 290 289 289 288 289 289 288 285 284
313 316 317 319 314 314 311 308 308 307 306 304 305 304 304 306 305 305 304 304 305 305 303 302 301 300 297 297 297 295 294 294 295 293 289 288 288 288 289 289 286 285 284 283

GFSCGP_850_thetae_039.txt.gz
Theta_e
315 316 317 317 317 318 318 318 319 319 318 318 318 317 317 317 317 317 317 318 318 319 320 320 320 321 322 322 324 325 325 325 325 328 332 336 337 336 337 336 335 332 331 330
315 317 316 315 315 316 317 318 318 317 316 316 316 316 315 315 315 315 315 315 316 316 316 317 319 319 320 322 324 324 324 325 326 329 331 335 336 335 336 335 333 333 332 331
317 315 313 315 315 315 316 316 316 316 315 314 314 316 317 317 316 315 314 314 314 314 315 315 315 317 319 320 321 323 324 325 326 328 332 335 336 335 336 334 332 333 332 331
315 314 312 313 314 314 316 314 314 314 314 317 314 318 316 316 317 317 315 314 314 314 314 314 314 314 315 318 321 322 324 325 327 328 331 330 327 330 331 331 332 333 332 330
315 313 314 313 313 313 314 313 313 313 314 314 315 316 316 316 316 316 316 315 315 315 314 314 314 314 314 315 319 322 324 326 329 327 330 328 327 325 327 330 331 331 329 328
314 311 313 314 312 312 312 312 312 312 313 316 315 316 316 315 314 315 315 315 314 313 313 313 313 314 314 314 316 322 324 327 329 328 325 325 325 324 327 330 329 329 327 327
313 313 311 311 313 312 312 313 317 318 316 316 314 314 315 314 314 314 314 314 314 313 313 312 312 313 314 314 315 321 324 327 327 324 324 325 326 325 327 331 329 328 327 324
314 318 314 312 312 313 312 313 316 317 315 316 315 314 314 314 314 313 312 313 312 312 312 313 313 313 316 315 316 320 324 325 324 323 325 326 325 324 328 330 329 326 325 322
315 314 312 312 312 311 312 313 312 314 313 314 313 313 314 314 314 313 313 312 311 312 312 313 313 314 314 317 318 321 324 324 323 324 325 325 323 325 327 328 327 323 320 314
314 315 311 312 311 312 312 312 313 314 315 316 315 315 315 314 314 313 313 312 312 313 312 313 314 316 314 317 319 321 323 323 322 323 322 319 321 326 327 328 323 321 311 307
312 312 312 310 312 313 312 313 312 313 314 316 316 316 312 312 312 312 311 311 312 311 313 314 315 316 315 317 321 322 323 321 320 318 317 319 323 326 326 323 318 314 307 305
311 312 312 312 311 310 312 312 311 314 314 314 316 317 313 312 312 311 311 312 311 311 311 315 315 317 317 320 322 322 321 319 317 313 314 321 323 322 321 315 314 308 306 304
311 311 313 315 313 311 312 311 312 313 314 316 317 316 311 312 311 310 310 310 311 311 312 315 314 316 319 321 321 319 317 314 311 311 315 321 318 318 314 314 309 304 304 303
311 312 313 315 317 314 316 314 313 313 315 315 316 315 314 313 313 312 311 311 311 312 314 314 314 314 316 317 317 314 311 308 308 312 316 315 314 314 313 306 303 303 303 302
311 313 312 312 313 313 315 315 316 315 314 315 315 315 315 314 313 313 313 312 312 313 314 314 313 313 314 314 312 307 304 304 308 312 312 312 310 308 305 302 301 302 302 302
310 313 314 312 313 314 317 316 317 317 317 316 316 315 314 313 312 312 313 312 312 314 315 312 311 312 311 307 303 301 301 304 310 313 311 307 306 303 301 301 302 301 301 301
312 312 312 315 315 315 321 321 319 318 317 317 316 315 314 313 313 313 313 313 314 314 313 310 309 307 302 301 302 298 301 307 311 311 305 304 302 300 300 301 301 300 300 299
313 312 312 318 316 323 321 317 317 316 317 316 315 315 314 313 313 311 310 311 312 314 309 308 305 301 299 300 298 299 305 307 307 303 302 301 302 301 300 302 300 300 299 297
312 313 316 316 316 317 319 318 317 317 318 315 315 316 315 315 315 310 311 313 313 310 308 303 299 297 297 299 299 300 301 302 302 302 302 301 301 302 300 300 299 298 296 294
312 313 315 315 318 319 319 317 314 316 321 314 313 314 316 316 318 310 309 307 307 305 304 299 298 298 300 297 298 301 301 303 303 300 298 299 299 299 299 298 297 295 295 292
315 315 315 316 317 318 317 316 314 320 318 314 312 312 315 313 309 308 306 304 303 301 302 302 301 301 301 303 303 300 298 295 296 298 298 298 298 298 297 297 298 292 291 291
318 318 318 317 319 320 315 318 320 317 314 313 312 311 308 307 305 304 303 303 301 300 300 299 297 297 296 296 297 297 299 298 299 299 299 298 297 298 298 294 291 291 290 290
319 317 321 319 320 318 317 317 315 311 311 311 310 311 314 310 304 306 307 305 302 301 302 300 301 298 297 299 303 302 300 299 299 298 299 299 298 295 293 291 290 290 290 290
317 316 317 318 319 318 317 315 311 309 308 307 308 309 309 306 304 301 301 302 301 301 301 301 301 301 300 299 299 301 300 299 300 299 296 295 294 292 290 289 289 290 289 286
317 316 318 318 318 317 313 311 309 306 305 304 304 305 304 304 301 300 298 298 299 299 298 298 300 300 299 299 299 298 298 297 297 296 295 293 290 289 289 289 290 288 285 285
316 316 317 318 316 316 313 310 308 306 303 303 303 302 301 301 300 299 297 298 298 297 298 298 298 299 298 297 297 296 295 295 296 295 292 290 289 289 289 289 286 286 285 284

GFSCGP_850_thetae_042.txt.gz
Theta_e
318 320 320 320 320 320 320 318 317 317 317 317 316 316 316 316 316 316 317 318 318 319 320 320 320 321 320 321 323 326 326 326 325 328 334 337 338 337 336 335 333 333 333 331
315 316 316 316 316 317 316 316 317 316 316 315 314 314 314 314 314 315 315 316 317 317 318 318 319 320 320 321 321 322 325 326 325 325 327 333 336 337 335 335 335 334 333 331
316 315 315 315 316 315 315 315 315 315 314 313 313 313 313 315 313 314 314 314 315 315 315 316 316 317 319 320 321 322 322 324 325 325 325 330 336 336 336 335 335 334 334 331
315 314 313 314 315 315 315 314 314 314 314 314 313 315 313 313 313 313 314 315 315 315 314 314 314 315 316 317 319 319 321 323 324 325 327 330 334 336 336 335 334 334 332 331
315 314 314 314 314 313 314 313 313 313 313 312 313 313 313 315 313 313 313 315 315 315 315 314 314 314 314 314 316 318 319 321 324 325 327 331 333 333 331 332 334 332 329 330
314 312 313 314 313 313 312 312 312 312 312 313 312 314 313 312 313 313 312 315 315 315 314 314 314 313 313 314 314 314 319 320 323 326 328 332 331 331 331 333 332 331 328 328
313 313 312 312 313 312 312 312 311 316 314 311 313 313 313 312 312 312 312 314 314 314 313 313 312 312 313 313 314 314 315 322 323 327 330 332 331 330 327 327 328 329 326 324
313 315 313 311 312 313 312 313 311 316 315 314 312 313 311 312 312 312 313 312 312 312 312 312 312 313 313 314 314 314 314 324 325 328 330 331 329 327 324 324 324 327 326 324
314 315 312 312 312 312 312 312 311 313 311 308 310 309 310 311 311 310 312 312 312 312 312 312 313 313 314 315 315 315 314 323 326 328 329 328 324 325 325 324 326 327 325 323
314 315 312 313 311 311 312 311 313 310 306 312 312 311 312 311 311 311 310 309 311 312 312 312 313 314 313 315 315 317 316 321 326 327 326 325 326 326 324 324 327 323 322 318
312 312 312 311 311 312 311 312 312 311 313 311 314 313 311 312 312 311 311 312 311 311 311 312 313 313 313 315 315 318 319 323 325 324 324 325 326 324 322 324 323 321 317 311
311 312 312 311 311 310 311 312 310 311 310 311 311 314 312 311 310 310 309 311 311 311 311 311 315 314 313 317 317 320 321 322 323 323 324 324 323 320 322 321 318 315 309 310
311 312 308 313 312 310 310 311 311 311 312 313 313 312 310 310 312 312 311 311 310 310 311 312 314 314 316 319 320 321 322 321 322 322 322 320 317 319 317 315 311 307 308 307
311 312 311 312 313 313 310 312 311 312 314 313 313 312 312 313 314 314 313 312 312 311 311 311 314 314 315 319 320 320 319 318 318 318 315 314 314 312 311 308 307 306 305 303
310 312 312 312 311 311 312 313 314 314 314 316 315 316 315 315 314 313 313 313 312 312 312 312 314 314 315 318 316 315 315 313 313 311 310 309 308 309 308 305 304 306 302 301
310 311 308 308 310 311 312 313 315 314 316 317 318 318 314 313 313 313 313 313 313 314 313 314 313 313 314 315 312 311 310 309 308 306 303 303 304 304 304 303 301 300 301 301
312 310 312 314 314 314 316 317 318 318 318 317 318 317 315 314 314 313 313 312 313 313 314 312 311 312 310 307 307 306 304 301 301 299 300 301 303 302 301 302 304 303 300 301
311 312 311 314 313 318 319 318 317 317 316 316 316 316 315 315 311 309 309 308 312 312 313 310 309 308 307 305 304 303 300 298 297 296 297 299 300 301 301 298 297 297 297 299
312 312 314 315 314 313 316 317 317 316 316 316 315 314 316 316 312 309 307 305 309 309 306 306 305 304 301 299 297 296 295 295 295 296 299 300 301 300 299 301 298 297 298 298
312 312 314 314 315 317 316 315 315 314 318 314 313 313 315 311 315 309 305 301 302 302 302 300 298 296 295 294 294 294 294 296 297 299 300 300 302 302 299 298 298 297 298 297
314 314 315 315 316 313 314 315 315 319 316 313 312 312 309 308 308 305 303 302 299 298 296 296 295 295 294 294 295 297 299 302 303 303 303 303 299 296 297 297 300 298 293 291
315 316 316 313 315 314 316 317 319 314 313 312 312 312 307 306 304 303 300 300 300 300 300 299 298 297 297 299 301 303 303 304 303 300 295 295 297 298 300 297 293 291 290 290
317 315 317 315 314 314 317 316 313 311 310 310 311 314 309 306 305 302 300 298 297 296 296 296 296 296 296 302 304 300 296 295 295 296 297 297 297 296 293 291 290 290 290 291
314 315 315 317 317 317 314 313 310 309 306 307 309 311 311 308 304 304 302 301 300 298 296 296 296 295 295 296 297 298 297 296 296 297 298 295 295 292 290 290 290 290 290 287
315 314 315 315 314 315 313 311 309 307 306 305 306 309 308 307 302 300 299 298 297 295 295 299 300 299 298 297 296 295 296 297 299 297 295 294 292 290 289 290 290 289 286 286
314 314 314 314 315 315 312 310 308 307 305 304 304 304 304 304 302 301 299 297 296 296 298 298 298 298 296 296 296 295 296 296 297 297 293 291 290 289 290 290 287 286 285 284

GFSCGP_850_thetae_045.txt.gz
Theta_e
320 318 319 317 317 317 317 318 315 314 315 314 315 315 313 314 315 315 316 316 317 318 320 320 320 320 320 319 320 321 324 328 334 335 335 337 339 338 336 335 334 334 332 331
316 317 316 317 318 319 317 315 314 314 314 312 312 312 312 312 312 313 314 314 315 316 317 318 319 320 320 320 320 320 322 326 329 335 334 332 335 337 337 335 334 333 333 332
314 313 314 314 315 315 314 314 314 314 312 310 310 312 311 310 311 312 313 313 313 314 316 316 317 317 318 319 320 320 321 322 326 327 329 332 332 335 335 335 334 334 333 332
315 313 313 314 315 313 315 312 313 313 311 311 309 312 309 310 310 311 311 312 313 314 314 315 315 315 315 316 317 318 320 321 322 325 325 325 331 334 335 334 334 334 334 333
313 313 313 313 314 313 313 312 312 312 310 309 310 310 309 308 312 310 309 312 314 315 315 314 314 314 314 314 314 315 316 318 319 321 325 325 325 329 331 333 333 333 331 332
312 311 312 312 312 312 311 311 311 310 309 309 309 310 309 310 312 311 311 313 314 314 314 314 314 314 313 314 314 314 314 316 318 318 322 325 325 325 329 331 330 331 331 331
311 312 311 311 312 311 313 310 304 315 314 309 310 311 310 309 310 310 309 312 313 314 313 313 313 312 312 312 313 313 313 314 315 319 318 324 325 326 327 328 328 328 330 331
307 308 311 310 311 312 311 310 306 313 313 311 309 312 310 309 311 310 312 311 312 313 313 312 312 312 312 312 313 313 314 313 313 317 320 322 325 328 330 328 328 329 329 329
310 312 312 311 311 310 311 311 309 311 307 301 307 306 307 307 309 307 309 310 311 311 312 311 312 312 313 313 312 313 314 314 314 315 324 324 327 329 328 328 329 329 327 327
314 314 312 313 311 311 309 308 308 302 302 309 309 308 309 310 310 309 308 309 311 311 311 312 312 313 313 312 311 312 314 315 315 322 325 326 329 329 327 328 327 324 325 324
312 310 312 312 311 310 311 313 311 309 308 307 311 310 307 309 311 309 308 310 311 312 311 311 311 311 311 311 310 314 314 316 316 323 325 326 329 326 326 326 323 322 323 321
311 310 313 310 309 308 309 309 308 303 306 307 305 311 309 309 308 310 311 313 312 312 310 310 312 313 313 312 312 315 316 317 320 323 324 326 327 326 325 323 322 322 319 317
311 311 302 312 309 309 309 309 309 309 310 305 308 311 307 307 310 312 313 313 313 312 312 310 312 312 311 313 316 319 319 320 321 322 325 322 323 323 323 322 320 317 316 313
310 310 306 308 308 310 308 310 309 309 310 311 310 311 310 311 314 314 313 312 312 312 312 312 311 312 311 313 319 320 319 320 322 323 322 321 321 319 318 317 313 310 309 307
309 308 310 310 310 310 309 310 311 310 311 313 312 314 314 315 316 314 312 312 311 312 312 313 312 312 313 315 318 319 319 320 321 321 320 319 316 313 311 309 305 303 304 301
308 305 307 302 308 309 308 310 311 311 312 313 314 315 315 315 315 314 313 313 312 310 312 313 313 313 315 315 316 315 315 313 314 315 314 312 308 306 305 300 300 299 299 301
311 309 301 305 310 311 313 313 312 313 314 315 319 317 316 316 316 310 308 306 308 311 312 312 312 312 312 312 312 309 308 307 307 307 304 302 300 299 298 299 299 301 301 299
310 310 306 306 308 313 315 314 315 315 315 314 316 316 315 314 309 306 303 302 305 312 310 309 308 306 304 305 306 304 303 302 302 300 297 296 296 298 298 299 299 299 301 301
309 309 312 312 310 311 317 316 316 315 314 316 315 314 313 312 311 306 302 301 301 305 305 303 302 301 302 302 301 302 300 299 297 294 296 296 296 298 301 301 301 303 302 299
311 311 313 313 311 315 316 314 314 313 316 313 313 313 312 310 314 308 301 298 299 299 301 303 303 300 298 295 296 298 295 295 296 297 297 299 301 301 301 303 301 296 292 292
312 314 314 313 315 311 310 312 315 318 315 311 312 312 308 309 307 302 300 297 297 297 297 296 296 297 296 295 296 296 297 299 299 299 300 300 300 301 300 298 293 296 297 291
313 315 316 315 314 313 311 314 318 313 312 311 312 311 306 305 303 302 301 300 298 296 295 296 295 297 297 298 299 299 298 299 300 300 300 300 297 294 292 299 296 290 290 290
315 312 314 311 311 310 313 314 312 311 310 309 310 312 310 305 302 300 299 299 300 299 298 299 299 298 298 298 300 300 300 300 300 299 296 294 295 300 293 290 290 290 290 291
314 313 315 314 315 313 313 311 310 309 308 307 309 313 310 307 303 300 298 298 298 300 300 299 300 300 299 300 300 300 298 297 295 293 295 297 294 290 289 290 290 290 288 286
311 313 313 313 312 312 311 311 310 308 307 307 308 311 310 308 305 304 300 297 297 297 298 299 298 298 297 297 295 294 294 294 296 297 293 291 290 289 289 290 289 287 286 286
312 312 314 314 313 313 312 311 309 308 307 306 307 307 305 305 303 301 300 299 298 298 296 296 296 296 294 294 295 294 294 295 296 294 291 289 289 289 289 286 286 285 285 284

GFSCGP_850_thetae_048.txt.gz
Theta_e
320 321 321 321 320 316 317 318 316 314 313 312 312 311 311 312 313 314 315 315 316 317 318 318 319 319 319 319 320 320 320 321 331 334 334 333 334 334 336 337 336 336 335 333
319 318 317 318 318 318 318 318 315 313 313 312 311 311 311 311 311 312 313 314 314 315 316 317 318 318 319 319 319 319 319 319 320 329 332 333 331 332 332 333 335 334 334 333
316 314 314 315 316 318 313 313 314 314 311 309 309 311 310 309 310 311 312 312 313 313 314 314 315 317 317 317 318 319 320 320 319 321 329 332 333 332 332 332 333 335 334 333
314 313 314 314 315 313 315 311 312 312 311 311 309 311 308 309 309 308 309 311 312 313 314 314 314 314 315 316 316 317 318 319 320 321 326 331 333 332 330 330 330 332 334 333
313 313 312 313 314 312 313 311 311 311 309 308 309 310 308 307 310 309 308 312 314 314 314 314 314 314 314 314 314 314 315 317 317 319 320 328 333 332 329 327 329 329 332 332
311 311 311 311 311 311 311 309 308 308 306 305 308 309 308 308 311 311 310 310 312 314 314 314 314 314 314 314 313 313 313 314 315 315 317 320 323 331 332 329 328 327 329 330
312 311 310 311 311 310 309 306 303 305 304 308 308 309 308 308 308 308 307 308 310 311 312 312 312 313 313 313 313 313 313 313 314 314 314 317 319 320 325 328 327 327 328 328
310 309 311 309 310 310 310 307 304 309 312 309 307 310 309 308 307 307 308 310 311 311 311 311 311 311 312 312 312 312 312 312 312 313 313 313 316 319 321 325 326 326 326 326
307 310 311 309 310 309 310 305 307 307 303 301 306 305 304 306 308 307 308 311 311 311 312 311 310 312 312 312 312 312 312 311 311 312 313 313 313 318 319 323 325 326 326 326
310 309 312 311 311 311 308 308 306 298 300 307 307 307 308 308 309 308 307 309 311 313 313 313 313 313 313 311 311 312 312 310 310 313 313 314 313 318 322 323 326 326 325 325
311 307 312 312 310 310 310 310 309 305 304 305 310 309 305 308 309 308 306 311 313 313 313 312 310 310 312 311 311 311 310 310 311 314 315 315 318 324 326 324 325 325 324 325
311 309 309 311 309 308 308 309 307 303 304 304 303 309 307 307 307 308 310 313 314 313 312 312 312 311 312 311 311 311 310 310 314 314 316 317 327 326 325 326 324 324 325 323
310 309 305 311 308 308 308 308 308 306 307 301 308 309 306 305 308 310 313 314 313 312 312 312 311 312 312 311 311 311 311 317 316 316 318 323 325 324 325 324 322 322 319 318
310 307 305 307 306 306 304 309 308 306 305 305 306 309 309 309 310 313 315 315 312 313 313 312 312 312 312 312 312 311 312 318 319 320 322 323 322 323 322 321 319 317 315 312
308 308 309 308 308 309 308 308 308 305 309 309 310 311 311 312 313 314 314 312 312 312 312 312 311 311 312 313 314 314 316 318 318 318 319 320 318 315 316 315 311 309 306 305
306 303 307 301 306 307 307 308 308 309 310 311 311 312 311 312 315 311 309 307 306 307 310 312 312 312 313 312 312 312 314 312 310 309 311 313 309 310 310 307 304 302 301 300
310 308 302 304 308 310 309 310 310 310 309 312 313 314 314 315 313 307 304 302 301 305 310 311 311 310 311 309 308 309 308 307 304 305 304 303 307 307 303 300 299 300 300 300
310 308 301 303 306 310 312 313 312 311 311 311 313 315 313 314 309 304 301 299 299 300 302 305 305 304 305 305 305 305 304 305 304 303 300 299 300 299 297 297 299 299 299 299
307 308 305 309 309 310 315 316 316 315 314 314 313 312 314 311 310 305 302 298 298 299 300 300 301 302 304 305 304 302 301 301 300 299 297 296 297 297 299 300 300 299 300 300
310 309 309 312 309 314 314 313 313 311 314 312 312 312 313 310 315 308 301 297 297 297 297 299 300 300 300 299 300 301 299 298 298 296 298 300 300 300 299 299 300 299 299 295
313 313 313 311 313 312 308 309 314 317 314 311 312 312 309 310 307 303 299 297 296 296 296 296 296 296 296 296 296 297 296 298 299 300 299 298 298 300 300 300 300 299 297 293
311 311 314 313 314 311 310 312 317 313 312 311 311 311 308 307 304 302 301 299 297 296 295 295 295 294 294 294 295 296 299 299 299 298 299 300 300 300 299 299 297 291 289 289
312 309 312 312 311 308 311 313 313 311 310 309 310 312 310 308 304 302 301 301 300 300 299 298 298 297 296 297 299 300 299 299 300 299 299 299 298 297 292 290 289 289 289 290
311 310 313 312 313 310 312 312 312 310 308 308 308 312 311 309 304 302 301 301 303 302 301 301 300 299 299 300 300 301 300 299 299 298 296 297 292 290 289 289 289 290 289 287
311 311 313 312 311 312 311 312 311 310 308 307 308 311 311 310 305 303 301 301 302 302 302 302 301 300 300 300 300 299 297 295 294 294 293 291 290 289 289 290 290 288 287 287
310 311 313 314 313 312 313 313 312 310 308 307 308 309 309 309 308 304 301 300 300 303 302 302 301 302 301 299 295 294 294 295 296 293 291 290 289 290 291 289 287 287 285 284

GFSCGP_850_thetae_051.txt.gz
Theta_e
320 321 322 320 317 316 315 317 317 315 313 312 311 310 310 311 311 311 313 316 318 318 318 318 318 318 318 319 318 321 322 320 320 320 332 336 335 334 336 336 335 333 334 333
320 321 318 320 320 320 318 318 317 313 312 312 310 310 310 310 311 312 313 314 314 315 317 317 318 318 318 318 319 318 319 319 319 319 320 331 333 333 332 332 331 329 332 334
318 316 318 319 318 319 317 314 313 314 311 309 308 309 309 308 309 310 311 312 312 312 313 313 314 315 316 316 318 318 319 319 319 319 319 324 334 334 333 332 331 331 330 331
313 312 316 314 316 313 313 311 312 311 311 312 308 311 308 307 307 307 309 310 310 311 312 313 314 314 314 313 314 316 317 317 318 318 318 319 320 327 331 331 330 329 331 331
313 313 313 314 314 311 313 310 310 309 308 308 309 309 308 306 309 309 307 308 309 310 311 312 313 314 314 314 314 314 315 315 316 317 317 320 323 325 331 331 331 329 329 329
311 311 311 311 310 311 309 309 307 306 306 304 307 309 308 308 309 307 306 309 310 311 310 311 312 313 314 314 314 314 314 313 313 314 315 316 317 322 327 333 330 331 329 327
311 310 309 310 310 310 308 306 303 305 305 308 307 309 308 307 307 308 306 309 311 312 312 312 311 311 312 313 314 314 314 314 314 313 313 313 314 316 319 322 328 330 330 328
312 313 311 309 310 310 309 307 304 308 311 309 306 310 309 306 306 306 309 310 311 312 313 313 313 312 310 311 312 312 312 313 313 312 313 313 313 313 314 318 319 323 328 329
306 310 309 309 309 309 309 305 306 304 301 303 306 304 302 306 307 307 308 310 311 313 314 313 312 312 313 312 312 312 312 312 311 311 311 311 311 312 313 313 317 320 323 326
308 310 311 311 310 309 308 307 307 299 299 306 305 305 305 307 308 307 305 308 311 314 314 313 313 312 311 311 312 311 311 312 312 312 311 310 310 313 313 313 314 319 322 324
309 307 312 311 310 310 309 307 306 304 303 303 308 306 304 306 307 307 305 308 313 314 315 313 312 312 312 312 312 311 311 311 310 310 310 310 312 313 314 314 317 321 324 325
309 306 312 312 308 307 308 308 306 303 304 301 301 307 305 305 305 306 309 309 314 315 314 312 313 313 312 311 312 311 311 311 311 311 311 313 314 315 316 319 321 322 324 324
309 305 303 308 306 306 308 308 306 304 301 301 303 307 305 304 307 308 312 313 314 313 312 313 313 313 312 312 311 312 311 311 311 311 316 316 317 318 323 321 321 320 321 320
309 305 305 306 305 304 304 308 307 303 302 304 304 306 308 308 308 311 314 313 312 311 310 311 312 312 311 312 311 312 313 313 313 313 316 318 319 320 320 320 318 318 319 319
307 308 307 307 307 308 308 307 307 302 307 303 307 308 308 309 310 312 311 309 307 307 309 309 312 311 312 312 312 313 313 313 314 315 315 315 316 316 316 316 316 316 313 313
305 306 306 302 306 306 306 307 307 307 308 308 309 310 309 310 313 313 307 304 303 303 304 310 309 309 310 310 309 309 310 309 308 311 311 309 310 310 309 310 308 309 305 301
309 308 303 304 306 308 307 308 307 307 307 310 311 310 313 313 314 308 304 300 300 299 298 302 304 305 306 307 305 307 307 306 306 305 303 301 301 300 301 299 300 300 299 299
307 308 302 303 305 308 309 310 309 309 310 309 310 311 312 313 311 305 303 299 298 298 298 299 299 301 303 303 304 306 305 306 308 306 305 302 300 298 298 299 298 298 299 299
307 308 307 308 309 307 313 315 313 313 313 311 309 310 312 311 308 306 304 299 297 298 298 298 298 298 299 300 301 303 303 305 304 303 302 300 299 299 299 300 301 300 299 300
308 307 308 312 311 312 312 311 312 310 314 311 311 311 314 311 316 310 302 298 297 296 297 298 298 297 297 297 297 298 297 297 297 296 295 295 295 297 299 299 299 300 299 298
313 312 311 312 311 309 308 308 313 317 314 311 311 311 311 311 310 306 302 299 297 296 296 296 296 297 297 296 296 297 295 295 296 296 297 297 298 300 300 299 299 300 299 295
311 311 312 311 313 311 309 312 317 313 312 311 310 311 311 309 306 305 304 301 298 296 295 295 295 295 295 295 295 296 298 297 298 298 299 298 299 299 299 299 296 290 289 288
311 307 309 309 309 308 310 312 313 312 311 309 309 311 311 308 306 305 304 302 301 300 298 297 296 295 294 296 298 299 298 299 299 299 299 298 298 296 291 289 289 289 289 289
309 309 310 311 312 309 312 313 312 312 311 309 308 309 312 311 307 306 303 303 303 302 300 300 300 299 299 298 299 300 299 299 299 299 298 294 291 290 289 289 290 289 288 286
310 310 311 311 311 313 313 313 313 312 311 309 308 309 311 310 308 307 305 304 304 303 301 301 300 300 300 299 299 299 298 297 297 296 293 291 290 289 289 289 288 286 286 286
308 309 311 313 312 311 312 313 312 312 310 308 307 309 310 310 309 306 305 305 305 304 302 301 300 300 300 300 297 296 296 296 295 293 290 289 289 289 289 287 286 286 286 285

GFSCGP_850_thetae_054.txt.gz
Theta_e
319 319 322 320 317 315 315 316 316 315 313 312 312 310 310 311 311 310 312 314 316 318 318 318 318 318 317 318 318 318 318 319 320 320 320 322 328 334 335 334 333 335 335 333
320 318 319 319 317 318 317 316 317 314 311 311 310 309 309 311 310 312 313 314 314 315 315 315 315 315 316 317 317 318 318 318 318 318 319 320 321 323 330 333 333 331 332 334
318 318 319 320 319 320 317 317 314 314 310 308 307 309 308 308 308 309 309 310 310 310 310 311 311 312 312 313 315 316 318 318 318 318 318 318 319 321 325 333 332 331 331 331
314 315 319 318 318 318 318 312 312 311 311 313 307 313 308 307 306 306 305 307 308 310 310 310 311 313 313 313 313 313 315 317 317 317 317 318 318 319 319 321 329 331 331 330
313 316 315 318 316 315 313 310 310 309 308 308 309 309 307 306 308 306 305 308 311 312 312 312 310 311 312 313 313 313 313 314 316 316 316 317 317 318 319 321 324 330 332 332
310 310 310 310 309 311 308 308 306 305 305 305 307 308 306 307 307 306 306 309 311 313 314 313 312 311 311 312 313 313 313 314 314 314 314 314 315 316 317 320 323 325 330 331
310 311 309 309 310 309 308 309 306 303 304 306 307 308 307 306 306 306 307 309 311 314 314 314 313 313 312 311 311 312 313 313 313 313 313 313 313 314 315 316 318 323 325 328
310 312 311 309 310 310 308 307 305 306 309 308 305 309 308 305 305 307 308 308 310 313 314 314 313 312 312 313 311 312 312 312 312 312 312 312 312 312 313 314 317 317 319 322
307 310 309 309 309 308 308 304 304 302 301 301 305 304 302 305 306 307 307 309 310 312 314 315 314 313 312 312 311 312 312 312 312 312 311 311 311 311 311 311 312 314 317 319
307 310 311 310 310 308 308 305 307 297 299 305 303 304 304 307 308 305 305 307 310 313 314 315 314 312 312 314 312 311 311 311 311 312 312 312 311 311 310 310 312 313 313 316
307 308 312 310 310 309 309 306 305 303 303 304 307 304 302 305 307 307 305 311 313 314 314 314 313 313 313 313 312 311 312 311 310 310 310 310 310 310 311 312 313 313 314 315
308 308 312 311 307 307 307 307 305 302 303 300 302 305 305 303 305 306 307 311 314 314 312 312 312 312 312 313 312 311 311 311 311 311 310 310 310 312 313 314 316 316 317 319
308 305 302 309 307 305 308 307 304 302 300 300 303 306 304 303 304 307 308 312 312 311 309 310 311 311 311 311 311 312 311 311 311 311 311 312 313 316 316 317 319 319 319 318
307 304 305 306 305 304 305 308 305 303 305 304 302 304 306 306 305 307 309 311 309 306 306 308 310 311 311 311 312 312 312 312 312 313 313 314 314 316 316 317 317 316 315 316
306 307 307 307 306 307 307 307 306 301 304 302 305 305 307 306 307 307 310 308 305 304 304 309 307 307 309 310 310 310 311 311 311 311 312 312 312 313 313 313 314 313 314 314
304 305 304 301 306 306 306 307 306 306 306 306 308 308 308 308 310 314 308 305 302 301 299 304 301 304 305 305 305 307 308 306 306 308 309 309 308 310 310 309 308 306 306 304
309 307 302 305 305 307 307 307 307 306 306 308 309 309 308 311 313 311 306 305 300 299 299 299 299 303 304 304 304 305 304 304 303 302 302 302 303 305 304 304 302 302 302 300
307 307 306 307 304 308 307 308 307 307 307 307 307 308 310 311 311 308 306 302 298 298 299 298 298 301 304 303 303 304 302 302 301 300 301 301 301 302 302 301 299 298 298 298
307 308 309 308 309 306 312 312 309 310 313 307 307 307 310 312 309 307 306 300 298 298 298 298 298 299 301 301 301 301 301 300 299 299 299 299 300 298 300 299 298 298 299 299
307 306 308 310 310 310 309 310 312 311 314 310 309 310 311 311 312 311 304 300 298 297 297 297 297 297 298 299 299 298 297 297 297 297 297 297 298 298 298 298 298 297 298 299
311 311 309 310 311 306 305 308 312 317 313 311 311 311 312 312 310 307 304 300 298 297 296 296 296 296 296 296 296 296 296 296 296 295 296 297 298 298 298 298 298 298 299 298
310 309 312 309 312 310 308 312 316 313 312 311 310 310 311 311 309 307 304 301 299 298 296 295 295 295 295 295 296 299 298 297 298 298 298 298 297 297 297 298 293 289 289 289
310 306 307 307 306 307 309 311 311 312 311 310 309 310 311 311 308 308 305 303 301 300 300 297 295 294 295 298 298 299 297 298 298 298 298 297 296 292 289 289 289 289 289 288
309 307 308 310 312 310 311 313 313 312 311 310 309 309 310 312 310 307 306 304 302 302 301 300 298 299 299 299 299 299 298 298 298 298 295 291 290 289 289 289 289 288 287 286
308 308 308 308 310 312 312 313 313 312 311 311 309 308 309 311 310 307 306 305 304 302 301 301 301 301 300 299 299 299 299 298 296 292 290 289 289 289 289 288 287 287 286 285
307 310 312 313 310 310 311 312 312 312 311 310 309 308 309 310 311 308 305 305 305 303 302 301 300 299 298 298 298 296 296 295 293 291 290 289 289 289 288 287 286 285 284 283

GFSCGP_850_thetae_057.txt.gz
Theta_e
318 319 319 320 317 314 315 315 316 315 312 313 313 312 312 311 311 311 313 315 315 315 315 316 317 317 317 317 318 317 317 317 320 321 322 324 324 327 331 329 332 332 333 334
318 320 319 317 316 316 315 316 316 314 311 311 310 310 311 311 310 310 310 311 311 311 311 312 313 313 314 315 316 316 317 317 317 318 319 320 322 323 323 326 330 331 331 331
315 318 319 318 319 319 317 316 314 315 310 308 308 312 309 308 307 306 306 307 309 311 310 310 311 312 312 312 313 314 316 317 317 318 317 317 319 319 320 321 323 325 328 331
314 316 320 320 320 319 320 314 312 311 313 316 308 317 311 307 306 306 307 310 312 313 312 312 311 311 311 312 313 313 313 315 316 317 317 317 317 318 318 319 320 320 325 329
312 318 316 317 317 316 316 310 310 309 309 309 309 312 310 306 307 306 306 309 312 314 313 313 312 312 311 311 312 312 313 313 313 314 315 317 317 317 317 318 319 320 321 324
310 311 313 312 315 314 309 307 307 305 306 311 307 309 308 308 307 306 306 308 311 313 315 314 313 313 312 311 311 312 312 312 313 313 314 315 315 316 316 317 317 319 319 320
312 311 309 309 310 309 309 313 311 309 310 312 307 308 309 306 306 306 307 308 309 313 315 315 314 314 314 313 312 311 312 312 312 312 312 312 312 313 313 314 316 320 319 321
311 315 311 309 310 311 308 312 310 309 310 309 306 311 309 305 305 307 307 309 311 313 315 315 315 313 313 313 313 312 311 311 312 312 312 312 312 312 312 312 312 313 316 318
308 311 309 308 308 308 308 308 304 303 301 306 306 305 303 305 304 306 306 310 312 314 314 314 314 313 313 313 313 314 311 312 311 311 311 311 311 311 311 311 310 311 311 313
307 311 310 308 309 307 308 305 308 302 305 307 303 303 304 307 307 306 306 307 311 314 314 314 313 313 313 313 313 313 312 311 311 311 311 311 311 311 311 311 311 310 310 311
307 309 311 310 309 309 308 307 305 304 304 306 306 305 302 304 305 306 306 308 311 313 312 311 311 311 311 311 312 312 311 311 311 310 310 310 310 310 310 310 310 310 311 312
307 309 312 310 307 306 307 307 304 307 306 302 304 307 304 303 304 305 306 308 312 310 309 310 310 310 311 310 310 311 311 311 311 311 311 310 310 310 311 313 313 314 315 315
307 305 309 310 308 306 308 306 304 302 302 304 307 306 303 303 304 305 306 310 309 308 309 310 310 309 310 310 311 311 311 312 312 312 312 312 311 311 311 313 316 316 317 316
307 305 306 310 307 305 306 307 304 304 305 304 303 304 305 305 305 306 308 310 308 307 305 305 305 307 308 308 309 310 310 311 311 311 312 312 312 311 311 312 315 315 316 316
306 308 307 306 306 306 307 308 306 303 304 306 305 305 306 306 305 307 309 308 306 305 303 302 305 307 307 306 308 308 309 309 308 309 308 309 310 310 311 313 312 311 311 310
304 307 302 302 306 306 307 307 306 306 306 306 306 308 308 308 308 312 309 306 302 302 300 304 303 305 305 304 307 308 308 309 308 305 305 303 304 306 305 303 305 304 305 304
308 304 302 306 305 306 307 307 307 306 305 308 308 308 307 309 310 311 307 305 301 300 301 301 301 302 303 305 305 307 307 306 305 304 302 299 299 300 300 300 301 301 300 298
307 307 305 308 304 307 306 306 306 307 307 306 307 307 308 308 311 308 307 305 300 299 300 300 300 300 301 302 302 303 303 303 303 302 301 300 298 300 299 298 299 298 298 298
307 308 307 307 308 305 311 308 308 309 314 306 306 306 306 311 310 308 306 303 300 299 298 298 299 299 299 300 299 299 299 300 300 300 299 298 298 298 297 297 296 296 297 297
307 306 305 306 309 310 307 309 311 310 315 310 307 307 311 311 313 310 305 302 300 298 297 297 297 298 298 298 296 296 297 298 298 297 298 297 297 297 297 297 297 297 298 298
310 310 308 306 308 306 304 306 310 318 314 311 311 311 311 311 310 308 305 303 300 298 297 296 297 297 297 297 295 297 297 298 297 297 297 297 297 297 297 298 297 297 297 295
308 308 308 307 309 306 307 311 316 313 312 311 311 310 310 311 310 308 306 303 301 299 297 295 296 296 296 297 298 299 298 297 297 297 297 298 298 298 297 295 291 289 289 289
310 306 306 305 305 305 308 311 311 311 311 311 310 310 310 311 310 309 306 305 303 301 298 296 296 296 298 299 299 299 297 296 297 298 298 297 294 290 289 290 290 289 288 287
308 306 307 309 310 307 311 313 312 312 311 311 310 309 309 310 310 308 307 306 304 302 300 298 298 299 299 299 299 298 297 297 298 297 292 290 289 289 290 289 288 287 287 286
307 307 308 307 307 310 311 313 311 312 311 311 310 309 308 309 310 309 308 306 304 303 301 302 302 301 300 300 300 299 299 298 294 291 290 289 289 289 288 287 287 286 286 285
306 307 310 313 309 308 310 311 312 311 311 310 310 308 308 309 309 308 307 307 305 303 301 301 301 300 300 299 298 298 296 293 291 290 289 289 289 288 287 287 286 285 284 284

GFSCGP_850_thetae_060.txt.gz
Theta_e
317 318 321 320 318 316 317 317 316 317 314 317 318 319 318 317 316 316 316 316 316 316 315 315 316 316 317 317 317 317 316 317 318 330 324 331 337 334 330 330 328 332 333 333
318 319 319 318 318 317 317 316 317 316 314 316 317 317 317 317 316 314 314 314 314 312 311 311 313 315 315 316 316 317 317 317 317 319 327 321 329 333 333 329 327 328 332 331
318 317 317 318 319 318 318 317 318 318 314 312 314 317 315 310 309 308 309 310 312 312 312 312 311 311 311 312 312 313 314 316 317 317 320 329 330 329 324 322 324 325 326 327
315 314 319 319 319 318 319 317 317 316 318 320 313 318 314 311 311 312 313 313 314 313 313 313 312 311 311 312 312 312 312 313 315 316 316 322 328 328 320 319 320 321 321 323
312 314 320 320 319 319 318 316 315 314 316 315 314 318 313 311 312 312 312 313 314 315 314 314 313 312 312 311 312 312 312 312 312 313 314 316 326 326 326 328 322 318 318 319
310 311 313 315 316 313 310 312 312 312 314 319 314 315 312 311 312 311 311 312 312 314 315 315 314 313 313 313 312 311 312 312 312 312 312 313 314 321 327 324 324 319 320 319
308 311 310 314 312 312 312 315 320 320 320 319 310 312 313 310 309 311 312 312 312 314 315 315 314 314 314 314 314 313 312 311 312 311 311 312 313 314 323 326 327 325 324 318
318 317 312 311 312 314 313 317 320 317 314 314 309 314 312 310 308 310 308 310 312 314 315 315 314 314 314 314 314 314 314 312 311 311 311 311 311 311 311 311 312 313 315 315
316 315 310 310 309 312 312 316 309 312 308 313 312 311 309 308 308 309 310 311 312 314 314 314 313 313 313 313 313 313 314 314 312 311 311 311 311 311 311 311 311 311 310 311
312 315 311 309 310 309 312 309 314 314 316 315 310 309 312 310 310 310 311 312 313 314 313 311 310 311 312 311 312 312 312 312 312 311 311 311 310 311 311 311 311 311 311 311
311 314 313 312 313 313 311 313 309 310 309 313 310 310 311 313 312 310 310 311 313 313 310 309 309 310 310 310 310 311 311 311 311 311 311 311 310 310 310 311 311 311 311 310
310 313 314 313 309 309 310 311 310 314 312 309 312 311 308 311 311 308 310 311 313 310 307 308 309 309 310 310 310 311 311 311 312 312 311 311 311 311 311 311 311 311 312 313
310 312 313 312 311 309 311 310 308 307 309 312 314 311 308 309 309 309 310 313 312 308 306 305 304 306 309 309 309 309 310 310 311 311 312 312 312 312 311 310 311 312 313 314
309 309 311 313 312 311 312 310 308 312 315 312 312 310 310 310 310 311 311 312 310 307 304 305 304 307 306 306 308 309 309 309 308 309 309 310 310 309 310 310 310 311 312 312
310 312 310 309 308 309 310 311 309 309 312 316 311 310 311 310 311 311 312 309 307 305 303 302 303 304 301 302 306 306 306 306 307 308 309 308 308 309 308 307 309 309 307 306
308 312 307 309 308 308 310 310 310 309 310 310 311 311 311 311 310 312 312 308 304 302 300 300 301 302 301 302 306 306 306 306 306 307 307 305 305 304 305 305 305 304 305 302
310 309 311 312 308 309 312 311 310 310 309 311 312 312 311 311 310 312 310 307 303 300 301 299 300 301 302 303 305 303 303 303 304 305 305 303 303 301 302 302 301 302 302 300
310 310 310 312 309 315 310 309 310 310 310 310 310 310 310 310 310 309 307 305 302 299 300 299 298 299 300 301 301 300 300 302 302 302 302 302 301 300 299 299 299 298 297 296
309 310 311 311 311 311 312 309 310 312 316 311 310 310 310 309 311 310 306 304 300 298 298 299 299 300 299 300 300 298 300 300 300 300 300 299 298 298 298 298 297 297 298 297
308 309 311 310 311 313 313 311 311 311 319 313 310 312 312 313 319 316 305 303 301 299 298 298 298 298 298 299 297 298 299 298 298 298 298 298 297 297 297 297 297 297 298 297
311 311 312 311 312 310 309 308 308 319 318 312 312 312 313 314 315 309 308 304 302 300 299 298 298 298 297 297 297 298 298 298 298 298 297 297 297 297 297 297 297 297 295 290
310 311 310 309 311 311 307 312 317 315 312 311 311 311 311 311 311 310 307 304 302 302 300 298 298 296 296 299 299 298 298 298 298 297 296 297 297 297 295 292 290 290 289 288
311 310 311 310 310 308 308 310 310 311 310 311 310 310 309 310 310 308 306 305 304 303 300 298 297 296 298 299 299 299 297 297 298 298 297 296 291 290 289 290 289 288 287 286
310 308 310 310 312 309 308 308 313 312 311 310 310 310 309 309 309 308 306 305 305 304 301 298 297 299 299 299 299 298 298 297 297 296 291 290 290 290 289 288 287 287 287 286
311 309 311 311 310 310 312 311 314 312 310 310 309 309 308 308 309 309 308 307 305 304 302 301 301 300 300 300 300 298 297 297 294 291 290 290 290 289 288 288 287 287 286 285
309 311 312 312 311 312 312 311 312 312 311 310 310 309 308 308 308 308 308 307 306 304 304 302 301 301 301 300 300 299 297 293 291 290 290 290 289 288 287 287 286 286 285 285

GFSCGP_850_thetae_063.txt.gz
Theta_e
317 319 319 318 318 317 316 317 317 316 318 318 317 318 317 317 317 317 317 317 317 317 317 317 316 315 316 317 317 318 319 319 320 324 331 336 328 323 330 333 334 338 337 336
318 319 317 317 317 317 317 318 317 317 316 317 317 318 318 318 317 317 317 317 317 317 316 314 312 312 314 314 315 316 318 318 319 318 322 330 328 322 322 326 330 332 332 334
318 318 316 319 319 318 317 317 317 317 316 316 317 318 317 316 313 312 312 313 314 314 314 314 314 313 313 313 313 314 315 316 318 318 319 322 331 333 335 330 329 333 332 332
317 317 317 319 320 317 317 316 316 317 317 316 316 315 318 315 313 313 314 315 315 315 315 314 314 314 314 312 311 312 312 312 313 315 317 318 323 329 332 332 333 332 329 326
315 318 318 320 320 318 319 318 318 318 319 318 317 318 316 314 314 315 315 315 316 316 316 316 315 315 314 311 311 312 312 311 312 312 312 314 316 321 327 330 329 330 331 332
309 310 313 317 314 317 317 317 317 317 318 322 319 318 316 315 314 314 313 314 315 316 317 317 316 316 316 314 313 312 311 313 312 311 312 312 313 319 325 327 328 329 330 330
309 309 309 312 314 313 315 319 322 323 323 322 313 315 316 313 314 313 314 314 315 316 317 317 316 316 316 316 315 314 314 313 312 312 312 311 312 313 318 323 326 328 328 327
318 317 308 310 313 315 318 319 324 323 321 320 312 315 315 312 312 313 312 313 315 316 317 316 316 316 316 315 315 314 314 314 314 312 311 312 312 311 311 312 315 322 324 325
318 317 310 312 311 314 314 318 313 315 312 316 314 313 311 310 311 311 312 313 315 316 316 315 314 313 314 312 312 313 313 313 312 312 312 312 312 311 312 312 313 314 316 318
315 316 312 311 311 311 314 313 317 318 319 316 314 313 314 310 311 311 313 314 315 316 315 313 312 312 310 310 311 311 311 311 311 311 311 311 311 310 310 311 311 311 311 312
314 315 314 313 314 315 313 314 313 312 312 317 312 312 313 312 311 313 313 313 315 315 313 312 311 309 308 308 309 309 309 310 311 311 311 311 311 311 311 310 311 311 312 312
313 314 316 315 311 311 313 314 314 315 315 313 315 312 312 313 312 311 312 313 315 312 311 310 308 307 307 307 307 309 309 309 310 310 310 311 311 311 311 310 310 310 311 311
312 315 314 313 312 311 312 313 312 311 313 317 317 314 313 313 312 310 312 314 314 312 309 308 307 306 305 305 306 307 309 309 309 309 309 310 311 311 311 311 310 310 310 310
310 312 314 315 316 314 313 313 312 312 316 314 313 312 311 311 311 312 313 314 314 311 308 307 306 305 304 304 306 306 308 308 309 309 308 309 309 310 309 308 308 308 310 311
312 314 312 311 311 311 313 313 312 312 314 319 314 312 312 312 312 313 313 313 311 308 306 304 305 304 304 304 305 304 305 307 307 307 306 304 306 307 308 308 309 309 307 308
311 313 311 312 310 310 312 312 312 311 311 312 312 313 312 312 312 313 314 313 310 306 304 302 302 302 303 303 303 303 302 304 305 305 302 303 303 306 306 305 305 304 304 304
312 312 313 313 310 310 313 312 312 312 311 312 313 313 312 312 312 312 314 312 309 305 303 302 301 301 301 301 302 301 300 302 304 303 303 303 303 304 303 303 303 301 301 300
312 312 312 313 311 316 313 311 311 312 311 311 312 312 312 311 311 312 311 312 308 304 302 300 300 299 299 299 299 299 300 302 302 302 302 302 301 302 300 299 299 298 298 298
310 311 312 313 314 313 311 311 311 313 316 311 311 312 312 312 312 314 310 306 305 303 301 299 298 300 299 298 298 299 299 300 300 301 300 300 300 299 298 298 298 298 298 297
309 310 312 312 313 314 316 313 312 312 319 315 313 313 314 313 319 318 308 305 302 300 299 298 298 299 299 298 297 297 299 300 299 299 300 299 298 298 297 296 297 297 297 297
312 312 313 312 312 312 311 312 310 319 319 314 314 314 314 315 315 312 309 306 302 300 299 298 297 299 298 297 298 298 299 299 298 298 298 298 298 297 297 297 296 294 291 289
312 312 311 311 311 312 309 311 313 316 314 313 313 313 313 313 312 310 308 305 304 302 299 298 298 298 298 299 298 299 299 299 298 297 298 297 296 296 292 290 289 289 288 288
311 311 312 310 311 310 310 312 311 312 313 313 312 312 311 311 309 309 308 306 304 302 299 298 299 298 299 300 299 299 298 299 299 298 297 294 290 290 290 289 288 288 287 287
311 311 310 311 312 311 309 310 310 314 312 311 310 310 310 311 309 308 309 308 307 304 300 298 299 299 301 299 299 298 298 298 298 296 291 290 290 290 289 288 288 287 286 286
312 312 312 312 312 312 313 313 312 313 313 312 310 309 309 309 309 308 308 309 307 305 301 297 299 301 301 300 298 298 298 298 295 291 290 290 290 289 288 288 288 287 286 286
311 312 313 313 312 312 313 312 313 312 313 312 310 309 309 308 309 307 306 309 308 305 303 301 301 301 301 301 300 299 297 295 291 290 290 291 290 289 288 288 287 286 286 286

GFSCGP_850_thetae_066.txt.gz
Theta_e
317 318 318 319 319 318 317 317 317 316 318 318 318 319 317 317 317 317 317 317 317 317 317 317 317 317 318 318 319 320 320 321 321 326 332 336 336 331 331 327 334 335 335 335
317 318 317 317 318 319 318 317 316 316 318 318 317 317 316 316 316 317 317 317 317 317 316 316 315 315 315 314 315 316 317 318 319 319 320 325 329 332 328 326 324 327 332 335
316 316 316 317 317 318 317 316 315 317 316 316 316 316 316 316 317 315 314 314 315 314 315 314 314 313 313 312 313 315 316 316 318 318 319 319 320 325 332 327 322 320 323 329
316 317 317 318 319 318 319 315 317 317 316 316 314 312 315 316 312 312 312 313 314 314 314 314 314 314 313 312 312 312 312 313 314 317 318 318 319 321 331 331 328 327 327 327
314 316 317 315 315 318 317 317 317 317 316 317 315 315 316 313 312 312 313 315 315 315 315 315 315 315 315 312 311 312 312 312 312 312 312 313 316 318 321 326 330 332 332 329
310 311 314 315 315 318 318 317 317 317 318 318 317 316 314 312 313 313 314 315 316 317 317 316 316 316 316 315 314 313 312 313 312 312 311 311 312 312 314 318 324 327 328 329
311 309 309 312 313 314 318 316 319 319 320 318 314 316 315 312 313 312 312 314 315 316 317 317 316 316 317 316 315 314 314 314 314 312 312 312 312 311 312 317 322 324 326 327
317 315 311 310 314 316 317 317 317 318 319 315 312 314 312 311 313 313 314 314 315 316 317 316 316 315 315 315 315 314 314 314 314 314 313 313 314 313 312 311 313 318 324 325
318 316 309 311 311 315 315 318 313 314 312 313 311 311 310 310 310 311 312 314 315 316 316 315 314 313 313 313 312 312 312 312 312 312 313 313 312 312 312 312 312 312 313 315
314 316 312 311 312 312 315 315 316 313 313 316 311 312 311 309 310 310 311 313 315 316 315 313 312 312 311 310 310 310 310 310 311 311 311 311 311 311 310 310 310 311 311 311
314 315 314 312 314 314 313 315 314 311 312 314 311 309 310 309 310 309 311 314 315 316 314 312 312 310 309 309 309 309 309 309 310 310 311 311 311 311 311 311 310 310 310 311
313 313 315 315 311 311 312 314 313 313 315 310 309 310 309 308 309 312 312 313 315 314 312 311 309 308 307 308 308 308 308 308 309 309 309 310 310 310 311 311 310 310 310 310
312 313 311 313 312 311 312 313 313 310 311 315 314 309 310 308 309 310 312 313 315 313 310 309 308 307 306 306 306 307 307 308 308 308 309 309 310 310 310 309 308 309 309 309
311 312 313 313 314 312 311 312 312 309 308 313 310 310 310 310 309 310 312 314 315 312 310 308 307 306 305 305 306 306 307 308 307 307 308 308 308 309 309 308 308 308 308 309
312 313 312 311 311 312 313 312 312 308 310 307 312 311 309 309 309 311 313 314 314 311 308 306 306 305 304 304 305 305 306 307 307 306 306 306 306 307 308 307 307 307 306 306
311 310 308 306 310 310 310 311 311 311 310 310 311 311 310 311 312 312 313 313 312 310 307 304 303 303 304 304 305 305 306 306 305 305 304 304 304 304 304 303 302 303 303 304
311 309 308 310 310 310 308 310 310 311 310 310 310 310 311 311 312 312 314 314 312 309 305 303 302 302 302 303 304 305 305 304 304 303 302 302 301 301 301 300 300 301 301 301
311 311 309 309 310 309 312 311 311 311 311 310 311 311 311 311 311 311 313 313 310 306 304 303 301 301 302 302 302 303 303 303 302 302 301 301 299 300 299 299 300 300 299 299
309 311 310 309 311 311 311 309 310 311 312 310 310 310 311 311 311 312 312 310 308 305 303 301 300 300 300 300 300 300 301 301 301 300 299 299 298 299 299 300 299 299 298 298
309 309 310 311 311 314 315 311 312 311 318 313 310 310 312 312 314 315 312 309 308 305 302 301 300 300 300 300 298 299 299 300 300 299 299 298 299 299 299 299 298 297 297 295
311 311 310 311 313 310 312 311 311 318 317 314 314 314 314 312 313 313 311 308 306 304 301 299 299 299 300 299 299 299 299 299 299 299 299 299 299 299 298 296 293 290 289 289
310 310 310 311 312 309 311 310 312 314 313 313 313 313 313 313 312 311 310 308 306 305 302 300 300 299 299 299 300 300 299 298 297 297 298 298 298 294 291 291 290 289 288 288
310 309 308 308 309 310 310 311 312 313 313 312 312 312 311 311 311 310 310 309 307 305 303 301 301 301 299 300 300 300 299 298 296 298 298 295 291 291 290 290 289 288 287 287
310 310 309 309 309 308 309 311 311 313 313 312 311 311 310 311 311 309 309 309 308 305 303 301 301 300 300 300 300 300 299 299 298 297 292 290 291 290 289 289 288 288 287 287
311 310 309 309 309 311 313 311 310 313 312 312 313 311 310 310 310 310 309 309 308 306 303 301 301 301 301 301 301 300 299 298 297 292 291 291 290 290 289 289 288 288 287 286
310 310 310 310 311 311 311 312 312 312 312 312 312 311 310 310 309 309 308 308 308 308 304 302 302 302 301 301 300 300 299 298 295 291 291 291 290 289 289 288 288 287 287 286

GFSCGP_850_thetae_069.txt.gz
Theta_e
317 318 318 317 317 317 316 318 317 316 316 318 318 318 317 317 316 316 317 317 316 317 317 317 317 317 317 317 319 319 322 322 322 322 325 333 335 332 333 334 333 334 334 333
317 317 314 316 317 318 317 317 316 314 315 317 317 318 317 316 315 317 317 317 317 316 315 316 316 316 317 317 317 318 319 320 320 320 320 321 325 327 329 329 330 332 330 330
316 315 315 317 318 319 318 316 315 315 315 314 315 316 317 314 315 316 316 316 316 315 314 314 314 315 315 315 315 314 316 316 317 319 319 319 319 319 321 323 327 328 327 324
316 316 316 317 317 316 317 315 315 315 315 316 313 315 313 314 313 311 313 313 314 314 314 314 314 314 314 313 313 313 313 314 315 316 317 318 318 319 319 323 331 330 328 326
314 317 316 316 316 317 317 317 316 314 313 314 314 313 312 313 311 310 309 312 314 314 314 314 314 313 313 312 311 312 312 312 311 312 313 315 317 317 318 319 321 327 331 331
311 311 313 314 314 315 317 317 315 314 315 314 315 313 313 312 314 310 310 314 315 315 315 316 315 316 316 315 314 313 312 313 312 312 312 311 312 312 312 313 316 319 324 327
310 311 310 312 312 313 316 317 317 318 313 313 313 314 314 312 310 310 312 315 316 316 317 316 316 316 316 316 315 314 314 314 313 313 312 311 312 311 311 312 312 317 322 325
309 310 313 310 313 313 313 315 311 315 315 314 310 315 313 307 311 313 315 315 316 316 317 317 316 315 315 315 315 314 314 314 314 314 313 313 312 312 313 312 311 312 316 320
312 312 310 310 312 312 316 316 313 311 310 308 310 309 309 309 310 311 313 315 316 316 316 316 314 314 313 313 312 312 312 312 312 312 312 312 313 312 312 312 312 312 312 313
314 312 311 312 312 312 315 315 315 310 313 314 309 309 310 310 311 310 311 313 315 316 315 314 313 313 312 311 311 310 310 311 311 311 311 311 311 312 311 311 310 310 310 310
313 313 314 312 314 315 315 316 314 312 309 310 310 308 306 309 310 309 310 313 315 316 314 313 312 312 310 310 310 309 309 309 310 310 310 310 310 310 311 311 310 310 310 310
312 310 313 314 313 312 313 314 314 311 313 307 306 309 307 305 307 309 311 313 315 315 314 312 311 310 309 308 308 308 308 308 309 309 309 309 309 310 310 310 310 310 310 310
311 310 308 311 309 310 310 311 314 310 309 310 307 308 305 306 308 311 312 314 315 315 313 311 309 308 307 307 307 307 307 308 308 308 309 309 309 309 309 309 308 308 308 309
310 310 309 308 311 309 310 311 311 309 308 311 308 309 308 307 307 308 311 312 314 314 312 309 308 307 306 306 306 306 307 307 308 308 308 308 308 308 308 308 308 306 307 307
309 309 310 310 311 311 310 311 310 306 309 306 310 308 309 307 306 308 310 314 314 312 310 308 307 306 305 305 305 306 306 307 307 306 306 306 306 306 307 308 307 307 306 307
308 305 302 301 309 309 309 310 310 309 309 309 309 310 308 309 309 311 311 313 313 311 309 307 306 305 304 304 304 305 306 305 305 305 305 305 305 305 306 305 305 305 304 302
310 305 303 306 309 308 306 308 309 309 309 310 310 309 309 309 310 311 312 313 313 313 310 308 305 304 304 304 304 305 304 304 303 304 304 304 304 303 304 303 302 301 299 300
308 307 303 304 306 305 305 309 308 309 310 308 309 308 309 310 311 312 312 313 314 312 309 306 304 302 302 303 304 304 303 303 303 304 304 303 302 301 300 299 299 299 299 299
307 310 306 307 307 306 310 309 309 309 309 308 308 308 309 311 311 311 311 313 312 310 306 304 303 302 301 302 302 302 302 302 303 303 302 301 300 300 299 299 299 298 298 299
308 308 306 310 307 312 313 309 311 310 315 312 308 308 308 311 311 310 312 312 310 308 306 304 302 301 300 301 301 301 301 301 301 301 301 300 300 299 299 299 298 298 295 291
309 309 310 308 309 308 309 311 312 316 314 313 309 310 310 310 311 315 313 310 308 307 305 303 301 301 300 300 300 299 300 301 300 300 299 299 298 298 298 296 291 290 289 289
309 310 309 308 311 309 310 309 313 313 312 313 313 313 313 313 314 314 312 309 308 306 305 303 301 301 300 300 299 299 300 300 300 300 299 298 298 296 292 290 290 289 288 288
308 307 307 306 307 307 310 311 313 313 313 312 313 312 312 312 311 311 310 309 307 306 304 302 302 302 301 300 301 301 300 299 299 299 298 297 294 291 290 289 289 289 288 287
308 307 307 307 308 307 309 311 312 313 313 312 312 312 311 311 311 310 309 308 308 307 305 305 303 301 301 301 302 301 301 299 299 299 298 292 291 291 290 289 289 288 287 287
307 307 307 307 307 309 309 309 311 312 312 311 311 310 310 310 310 311 310 309 308 309 306 304 303 302 302 303 302 301 300 300 299 297 292 291 291 291 290 289 288 288 287 287
308 308 307 308 308 308 311 311 310 311 312 312 312 311 310 310 310 310 310 309 308 308 307 305 303 303 303 303 302 301 299 299 298 294 291 291 291 290 289 289 288 288 287 287

GFSCGP_850_thetae_072.txt.gz
Theta_e
316 317 316 315 315 315 317 317 318 317 316 317 319 317 317 317 317 315 317 318 319 318 319 318 317 317 317 317 319 322 323 323 324 325 325 329 336 337 337 337 337 337 337 335
317 317 314 315 316 317 317 317 316 314 314 316 316 318 316 316 316 316 317 318 318 316 315 316 316 317 317 317 317 317 319 319 320 321 322 324 323 324 329 332 333 333 333 332
317 316 315 316 317 318 317 315 315 315 314 314 315 315 315 314 315 316 316 317 317 316 315 315 315 316 316 316 316 316 317 318 318 318 319 319 319 320 320 321 324 325 328 333
316 314 315 316 317 316 319 314 315 314 315 316 313 315 310 314 315 313 315 315 315 314 314 314 314 315 315 315 315 315 314 314 315 316 316 317 318 318 318 319 319 319 320 322
314 316 315 317 316 315 317 317 315 314 313 313 313 313 311 310 313 313 310 314 314 314 314 314 314 314 314 313 312 312 312 312 312 313 314 315 315 316 317 317 318 319 321 325
312 311 312 313 313 315 315 315 313 313 315 314 313 312 311 310 311 312 308 311 312 313 314 314 314 314 314 313 312 312 312 312 312 312 311 311 311 312 313 314 314 315 316 318
312 311 311 311 312 312 316 313 317 319 319 316 311 312 314 310 310 311 308 311 314 314 315 315 315 315 315 315 315 314 314 313 313 313 312 312 311 311 311 311 311 312 313 317
313 316 313 311 312 312 315 315 311 316 315 312 310 314 314 308 308 311 312 314 315 315 316 316 315 316 315 315 315 314 314 314 313 313 313 313 313 313 312 312 312 311 311 313
312 313 310 310 313 312 314 316 313 308 307 306 309 308 307 309 309 311 313 314 316 316 316 316 316 315 314 314 313 312 312 312 312 312 312 313 313 313 313 312 312 312 312 312
310 314 311 312 312 312 314 314 314 305 309 312 310 308 311 310 309 311 312 313 315 316 316 316 315 314 313 312 311 311 310 310 311 311 311 311 311 311 311 311 311 310 310 310
312 309 312 312 313 314 314 315 313 311 308 309 310 308 304 308 310 312 312 314 316 316 315 315 314 313 312 311 310 310 309 309 309 310 310 310 310 310 310 310 310 310 310 310
311 309 312 314 313 312 314 315 312 311 314 305 304 307 304 304 308 311 311 314 315 315 315 314 313 312 311 310 309 309 309 308 308 308 308 308 309 309 309 309 309 309 309 309
310 306 313 312 310 312 313 313 315 310 305 302 306 307 305 305 306 310 311 312 315 315 314 313 312 311 309 308 308 308 308 308 308 308 308 308 309 309 309 309 309 308 307 308
309 308 307 310 308 308 308 310 313 314 311 308 307 309 308 307 308 309 312 313 315 315 314 313 311 309 308 307 307 307 307 307 307 307 307 307 307 307 308 308 308 308 308 308
307 308 309 308 310 309 309 310 309 308 311 312 313 308 309 308 308 309 312 313 314 314 313 312 311 309 307 307 306 306 306 306 307 307 307 306 306 307 307 307 308 307 306 306
306 304 301 301 308 309 308 309 309 308 308 309 308 310 308 308 307 308 309 311 312 313 313 311 309 308 307 306 306 305 306 306 306 306 305 305 305 305 306 306 306 305 304 304
308 304 301 304 308 306 307 308 308 309 308 309 310 309 308 307 308 309 309 309 313 314 312 310 309 307 306 305 305 305 305 305 305 304 304 304 304 305 305 304 303 303 302 302
307 304 301 303 304 304 306 307 307 308 308 307 308 307 307 308 309 310 311 312 313 313 312 310 308 306 304 303 304 304 304 304 303 303 303 304 303 303 303 302 301 301 301 300
306 307 305 306 306 305 307 308 308 308 308 307 308 306 308 309 310 311 312 312 312 313 312 310 307 305 303 302 302 303 303 303 303 303 303 303 302 301 301 300 300 300 299 299
306 308 306 308 307 310 308 309 308 309 311 308 307 306 307 309 309 307 311 311 313 313 311 308 305 303 302 301 302 302 302 302 302 302 302 301 301 300 300 299 299 298 294 290
310 310 310 308 311 306 305 309 310 314 312 312 309 308 308 308 309 311 312 312 312 311 309 306 304 302 301 301 301 301 301 301 301 301 301 300 300 299 299 298 293 290 289 289
309 311 311 310 311 309 308 309 312 311 312 312 309 309 309 310 311 313 314 312 310 309 307 304 303 302 301 300 300 300 299 300 301 300 299 299 300 299 296 291 290 289 289 288
308 305 307 307 307 306 308 309 310 312 313 313 313 313 313 313 313 313 313 311 309 308 307 304 303 302 301 301 300 300 300 301 301 299 298 299 299 295 291 290 290 289 288 288
305 305 306 306 306 305 308 310 313 313 313 313 312 312 312 313 312 312 311 310 309 308 308 306 304 304 303 303 301 301 301 300 299 299 299 298 295 291 291 290 289 289 288 288
305 305 305 305 305 308 309 309 311 312 312 312 311 311 310 310 311 312 311 310 309 309 308 307 306 305 304 303 302 302 300 300 299 299 298 295 291 291 290 289 289 288 288 287
306 306 306 307 307 307 308 310 309 311 312 312 312 312 311 311 310 310 310 310 309 308 308 308 306 303 303 303 304 302 301 301 300 300 298 292 291 291 290 289 289 288 288 287

GFSCGP_850_thetae_075.txt.gz
Theta_e
316 316 315 313 314 314 315 316 318 317 316 318 318 317 317 318 316 315 316 316 319 319 319 318 317 318 320 321 325 327 330 332 335 338 339 339 339 338 338 338 337 337 338 338
315 316 313 314 314 316 316 316 316 315 314 317 317 318 316 316 316 317 317 316 317 318 318 318 318 317 317 317 318 321 322 323 324 326 327 329 329 330 331 334 336 336 335 333
315 315 314 316 316 317 315 315 315 316 314 313 315 316 316 316 315 316 317 317 315 317 317 316 316 316 316 316 316 316 317 318 319 319 320 321 322 323 324 323 323 325 330 333
316 314 315 315 317 315 318 314 315 313 315 316 314 317 311 314 314 312 316 317 317 315 315 315 315 315 315 315 315 315 315 316 316 316 316 317 317 318 318 319 319 319 319 319
313 315 315 316 316 315 315 316 314 314 314 314 313 314 313 309 311 313 314 315 316 315 314 314 314 314 314 315 315 315 314 314 314 313 313 313 314 315 315 316 316 317 318 318
313 311 312 313 313 315 315 313 313 313 312 311 313 314 312 310 309 310 311 313 315 315 314 313 314 314 314 314 314 313 312 312 312 312 312 312 311 312 312 313 313 314 314 315
313 312 312 311 312 312 315 314 319 317 317 314 310 312 315 309 308 308 309 310 312 313 313 314 314 314 314 314 313 313 312 312 312 312 312 312 311 311 311 311 311 311 311 312
313 317 313 311 311 313 315 312 313 316 315 312 309 313 313 309 310 310 311 312 311 312 313 314 314 315 314 315 315 314 314 313 313 313 313 313 313 313 312 312 312 312 311 311
309 312 310 311 312 311 313 317 309 307 305 304 308 307 306 306 307 308 309 310 311 313 314 315 315 315 315 315 314 313 313 312 312 312 312 313 313 313 312 312 312 312 312 312
308 310 311 312 313 312 313 312 315 306 312 311 309 308 310 308 308 308 309 311 313 314 315 315 316 315 314 313 312 312 311 311 311 311 311 311 311 311 311 311 311 311 311 310
308 309 312 311 314 315 315 316 315 313 307 309 311 308 303 305 306 308 310 312 314 315 316 316 315 314 313 312 312 311 310 310 310 309 310 310 310 310 309 309 309 309 310 310
310 308 311 312 313 311 312 314 314 309 312 303 302 307 305 303 303 309 311 313 315 316 316 315 314 314 313 312 311 310 310 309 309 308 308 308 308 309 309 309 309 309 309 309
310 310 313 313 311 313 314 314 315 310 303 300 307 309 305 304 306 310 311 314 315 315 315 314 313 313 312 311 310 309 308 308 308 308 308 308 308 308 308 308 308 308 308 307
310 307 309 311 310 309 313 312 313 314 307 307 305 309 309 308 307 308 311 314 315 315 314 314 313 312 311 309 308 307 307 307 307 307 307 307 307 307 307 307 307 308 308 307
308 309 307 306 306 307 308 308 311 313 313 312 313 309 309 307 307 308 311 312 313 314 314 314 313 312 310 308 308 307 306 306 306 306 306 306 306 306 306 306 307 307 307 306
305 304 302 302 307 308 308 308 308 311 312 313 312 308 308 308 307 308 310 312 313 314 314 313 313 311 310 309 307 306 306 306 306 306 305 305 305 305 306 306 306 305 305 304
306 303 301 304 307 306 306 307 307 308 308 309 309 311 308 307 306 308 309 311 312 312 312 313 313 312 310 308 307 306 305 305 305 305 305 304 304 304 305 304 304 303 303 303
304 303 301 302 304 305 306 305 306 307 308 307 308 307 308 308 309 308 310 310 310 310 311 313 313 311 308 307 305 304 304 304 304 304 304 303 303 304 303 303 302 301 301 301
304 305 306 306 306 304 307 306 307 307 308 306 307 307 307 308 308 309 308 310 310 310 312 313 312 311 308 305 304 303 303 303 303 303 303 303 303 302 301 301 301 300 300 300
304 306 307 302 307 308 304 308 307 307 309 309 306 306 306 308 308 307 311 311 312 312 312 313 310 308 305 304 303 302 302 302 302 302 301 301 302 300 300 300 299 299 298 293
310 309 309 307 310 306 304 304 308 312 308 311 309 307 307 306 307 310 311 311 311 312 312 310 308 306 304 303 302 301 301 301 301 300 300 300 300 300 300 299 299 294 290 290
308 311 311 309 310 309 306 308 310 308 311 312 309 308 307 309 310 310 311 311 311 312 310 309 308 305 304 302 301 301 301 300 300 300 299 300 299 299 299 298 292 290 290 289
308 306 307 306 307 305 307 310 310 310 312 312 312 311 309 309 309 311 312 313 311 310 310 311 307 305 304 303 301 301 301 299 299 298 298 298 298 298 297 292 290 290 289 288
304 303 305 306 306 304 307 308 310 312 313 313 312 312 313 313 312 313 313 312 310 309 310 309 307 306 304 303 302 301 299 298 299 298 297 297 298 297 292 291 290 289 289 288
303 303 304 304 304 306 308 309 309 311 312 312 312 311 311 311 311 312 312 312 310 309 309 308 308 306 304 303 302 301 300 301 299 298 299 299 298 294 291 291 290 289 289 288
304 303 305 305 306 307 308 309 309 309 311 312 311 311 311 311 310 310 310 311 311 310 308 308 307 306 304 303 302 301 302 302 302 301 300 299 297 292 291 291 290 289 289 288

GFSCGP_850_thetae_078.txt.gz
Theta_e
312 315 314 312 313 312 314 315 316 316 316 317 319 317 319 318 318 318 319 318 316 318 318 318 321 324 326 331 336 337 338 338 339 339 338 338 338 338 338 338 337 337 337 336
313 315 311 313 313 315 315 315 316 315 315 317 317 318 316 316 316 318 318 317 317 317 318 318 317 318 319 321 324 330 334 335 335 334 335 336 337 337 337 336 335 336 335 335
313 314 313 315 315 315 314 314 314 315 313 314 315 317 316 316 316 316 316 316 317 316 316 317 317 317 317 317 318 320 323 324 324 325 329 331 329 329 328 327 328 328 330 332
314 314 314 315 316 314 317 314 314 314 314 317 314 319 313 316 315 313 315 316 317 317 316 315 315 317 316 316 316 316 316 317 318 318 318 318 318 318 319 321 323 324 323 321
313 315 314 315 316 314 315 315 314 313 312 313 313 314 314 310 311 314 315 315 316 316 316 315 314 314 315 315 315 315 315 315 315 315 315 314 314 314 315 316 317 317 317 317
313 311 312 313 313 314 314 313 312 311 310 316 311 313 314 312 310 310 310 313 315 316 316 315 313 313 314 314 314 314 314 314 313 313 312 312 312 312 312 312 313 313 314 314
313 313 312 311 312 313 313 315 313 312 317 316 309 311 315 311 308 308 309 311 313 315 315 314 313 313 314 314 314 313 313 312 312 312 312 312 312 311 311 311 311 311 311 311
316 317 313 311 311 314 313 313 311 314 314 311 308 312 312 309 310 311 312 311 312 312 313 313 313 314 314 314 314 313 313 313 313 313 313 312 312 312 312 312 312 312 312 311
310 313 311 312 312 311 313 313 308 310 303 304 308 307 306 305 305 306 308 308 310 311 311 312 314 314 314 314 314 314 313 313 313 312 312 312 312 312 312 312 312 312 312 312
309 309 312 311 312 312 313 310 314 310 313 312 309 307 309 308 307 306 307 309 309 309 311 313 314 315 315 314 314 313 312 312 311 311 311 311 311 311 311 311 311 311 311 311
307 307 312 312 313 315 315 315 312 310 307 308 310 309 303 306 305 303 306 310 310 310 312 314 315 315 314 313 313 312 312 311 311 310 310 310 310 310 309 309 309 309 309 309
309 306 308 312 312 311 313 314 314 315 312 304 301 310 304 303 302 303 307 311 311 312 314 315 315 315 314 313 312 311 311 311 310 309 309 309 308 308 308 308 308 309 308 308
308 307 310 314 311 312 313 313 313 311 306 302 313 312 304 304 305 308 310 312 313 313 314 315 314 314 313 312 311 310 310 310 309 309 308 308 308 308 308 308 307 308 308 308
311 309 308 308 308 309 314 311 312 313 315 313 309 309 308 307 307 307 310 312 314 315 315 314 314 313 312 312 310 310 309 308 308 308 307 307 307 307 307 306 307 307 307 307
310 309 308 308 306 308 309 311 312 313 314 314 310 308 309 309 307 307 310 312 313 314 314 314 314 313 312 311 310 309 308 308 307 307 306 306 306 306 306 306 306 306 306 306
305 308 303 303 306 306 308 307 308 311 312 313 312 312 310 308 308 307 308 310 313 314 314 314 313 313 312 311 310 308 307 306 306 306 306 306 306 305 305 305 304 305 305 304
305 304 303 306 306 305 305 307 307 307 308 311 313 312 309 307 307 307 308 309 312 313 313 313 313 313 313 311 309 308 307 305 305 305 305 304 304 304 304 304 303 303 302 302
304 303 302 303 304 306 305 305 305 306 307 307 308 309 308 309 310 310 309 309 311 311 312 313 312 312 312 310 308 306 305 304 304 304 304 304 303 303 302 302 302 301 301 301
303 304 308 310 306 304 306 305 305 306 307 304 306 307 307 307 308 308 310 309 310 311 311 310 311 312 312 310 308 306 304 304 303 303 303 302 302 302 301 301 301 300 300 299
304 305 310 305 309 308 303 308 306 306 308 307 306 304 304 306 307 307 310 310 309 309 310 311 312 312 311 309 306 304 303 303 302 302 302 301 300 300 301 300 300 299 298 297
308 309 310 309 310 305 303 304 306 310 307 310 309 308 305 304 306 309 309 310 309 311 311 311 313 311 308 306 304 303 302 302 302 301 301 299 298 298 298 299 299 298 295 290
308 308 310 309 311 309 305 307 308 307 311 311 311 309 306 307 308 309 309 310 311 310 311 312 310 309 307 305 303 302 302 301 301 300 300 297 297 297 299 298 298 294 290 289
307 305 307 306 306 304 306 309 310 310 309 312 312 310 308 308 309 309 310 310 311 310 311 310 309 307 306 305 303 302 301 301 300 299 297 297 296 297 298 298 294 290 289 289
304 303 304 306 305 303 306 307 308 309 311 312 312 312 311 310 311 312 312 311 311 311 310 308 308 307 305 304 304 302 301 300 299 299 297 297 297 298 298 296 291 289 289 289
302 302 303 303 303 305 308 308 308 308 311 312 311 311 312 312 313 312 312 311 311 310 309 308 308 307 305 304 304 303 301 300 299 298 297 296 297 298 298 292 290 290 289 289
303 302 304 304 305 306 307 308 309 308 309 311 311 310 310 310 310 310 310 311 311 313 313 310 308 307 306 305 304 303 302 301 301 300 298 299 299 299 296 291 290 290 289 289

GFSCGP_850_thetae_081.txt.gz
Theta_e
313 314 316 313 314 313 315 317 317 316 316 320 321 320 319 319 318 320 320 320 319 320 319 317 323 333 334 334 335 337 337 338 339 339 338 338 337 338 337 337 337 337 337 337
311 315 311 312 314 315 315 315 316 315 315 319 318 320 317 319 319 318 319 320 319 320 319 317 317 321 331 333 331 332 335 336 337 337 337 337 336 335 334 336 337 337 336 335
312 313 312 314 315 315 313 315 314 316 314 314 317 319 317 316 317 318 318 320 320 319 318 317 317 317 319 323 324 326 329 334 335 333 332 331 331 330 331 332 331 330 330 331
314 313 314 314 314 314 316 313 313 314 316 320 313 322 315 317 317 316 317 318 320 319 318 317 316 317 317 317 318 319 321 325 326 325 326 326 325 325 323 321 321 323 325 327
313 315 314 315 315 313 314 313 313 312 313 314 313 317 314 312 317 316 315 316 317 316 316 317 317 316 316 316 316 316 317 318 318 318 317 317 316 316 315 315 316 317 318 318
313 311 312 313 312 313 312 312 312 310 311 316 313 315 315 313 313 312 315 317 317 318 317 317 317 315 314 315 315 315 315 315 315 315 314 314 314 313 312 312 312 313 313 314
313 313 312 311 313 313 314 313 316 315 316 315 309 312 315 313 310 310 311 311 313 315 316 315 316 315 314 314 314 314 314 314 314 314 313 312 312 311 311 311 311 311 311 311
316 315 314 311 311 313 314 314 313 315 315 313 308 314 314 310 309 311 311 310 310 311 312 314 315 315 314 314 314 314 314 314 313 312 312 312 312 312 312 312 312 311 311 311
313 314 311 312 311 311 313 316 308 310 304 308 310 308 307 306 307 307 308 309 310 311 311 312 313 313 313 313 313 313 313 313 313 313 312 312 312 312 312 312 312 312 312 312
309 311 312 312 312 311 313 309 314 313 314 314 310 308 312 309 308 307 306 307 309 310 310 310 311 313 313 314 314 314 313 313 312 312 311 311 311 311 311 311 311 311 310 310
307 308 312 312 314 315 315 315 312 310 309 313 311 310 305 307 307 305 304 305 308 310 309 310 312 314 314 314 314 313 312 312 312 311 311 311 310 310 310 309 309 309 308 308
307 307 312 313 312 311 313 313 314 316 312 305 305 312 305 303 303 303 304 309 310 310 310 311 313 314 314 314 313 312 312 311 311 311 310 310 309 309 308 308 308 308 308 308
308 309 312 312 311 311 313 313 314 309 309 304 312 312 304 304 305 307 309 310 311 310 311 313 314 314 314 314 312 312 311 311 310 310 309 309 308 308 308 308 308 307 307 308
310 309 308 311 308 308 311 312 312 313 314 311 311 311 310 309 307 306 309 311 312 312 312 314 314 314 314 313 312 311 310 310 309 309 308 308 307 307 307 307 307 307 307 307
312 313 309 308 307 309 309 310 310 312 312 313 311 310 310 309 309 307 308 309 312 313 313 314 314 314 314 313 312 311 310 309 308 308 307 306 306 306 306 306 306 306 307 306
306 311 305 305 307 306 307 308 309 310 311 311 312 312 311 310 309 309 310 309 309 313 313 314 315 314 314 313 313 311 309 308 307 307 306 306 305 305 305 305 305 305 305 306
306 307 307 310 306 305 305 307 308 309 309 311 312 311 310 310 309 310 311 311 310 310 313 314 315 314 313 313 312 311 309 307 306 306 305 305 305 304 304 304 303 303 303 303
305 305 306 310 305 308 306 304 305 307 308 307 308 309 309 309 310 310 311 309 309 309 311 314 314 313 313 312 311 310 308 307 306 305 305 304 304 304 303 303 302 302 302 301
305 305 309 310 307 304 307 304 304 305 306 304 306 307 307 307 307 308 309 310 310 310 312 313 312 312 312 312 311 310 308 306 305 304 304 304 304 303 302 300 300 300 300 300
303 307 310 306 307 308 303 306 305 305 308 306 304 304 304 304 306 307 308 308 310 309 309 311 312 310 311 312 311 309 307 305 304 303 303 302 302 301 299 299 299 299 299 298
308 309 311 309 308 306 303 304 306 310 307 309 310 309 307 304 306 307 308 309 309 309 308 310 310 311 312 311 309 307 305 304 303 302 302 301 300 298 298 298 299 299 298 295
309 309 309 309 310 310 304 304 307 306 309 310 311 310 307 306 307 307 308 309 309 308 309 311 311 312 311 309 307 305 304 303 302 301 301 300 298 297 297 297 298 298 297 291
309 304 306 306 306 304 305 307 308 309 309 311 311 311 308 307 308 308 309 309 309 310 310 311 311 310 309 307 306 304 303 301 301 300 300 299 297 297 296 297 298 297 292 290
304 302 304 306 305 303 306 307 307 308 309 311 312 312 309 309 309 309 311 311 311 310 309 309 309 309 308 307 306 304 302 301 300 300 299 297 297 296 296 297 298 294 290 289
302 301 302 302 303 304 307 307 308 308 307 311 312 311 312 312 312 312 312 311 311 310 310 309 309 308 309 307 306 304 303 301 300 300 299 297 296 296 297 298 297 291 289 289
301 302 303 304 304 305 307 308 308 308 308 310 311 310 310 310 310 310 310 311 311 311 311 312 310 309 307 307 306 304 303 302 301 300 299 297 296 296 298 298 294 290 289 289

GFSCGP_850_thetae_084.txt.gz
Theta_e
310 316 317 316 318 317 319 319 320 319 320 321 321 322 321 320 320 320 321 322 322 323 322 320 317 332 335 333 333 335 337 338 339 339 339 338 338 338 338 337 337 337 337 337
311 316 315 315 316 316 318 318 318 318 318 321 321 322 320 320 320 319 320 321 322 322 322 320 317 317 331 333 333 331 332 335 336 338 338 338 337 337 337 336 335 336 336 337
313 314 314 315 316 317 317 317 318 318 318 320 319 320 321 320 319 320 319 321 323 322 322 320 318 316 317 330 331 330 329 330 331 332 334 336 335 333 333 332 331 333 334 333
314 313 314 316 316 317 318 317 317 318 319 320 319 321 320 320 319 320 319 319 320 322 322 320 318 316 317 317 324 326 328 328 329 331 336 336 335 334 331 329 328 327 325 325
315 314 315 316 316 316 316 316 317 317 319 319 318 320 319 318 319 319 319 318 318 320 321 317 320 317 317 317 316 318 320 323 328 331 330 328 326 323 320 319 317 316 316 317
313 313 314 314 315 315 315 316 316 316 317 319 316 319 318 318 317 317 318 318 318 318 320 317 317 317 317 317 316 316 316 318 320 320 318 317 316 315 315 314 314 313 313 313
314 314 314 314 316 315 316 317 319 320 320 317 314 317 316 316 316 316 316 316 317 317 318 318 315 315 317 317 315 315 315 315 315 315 314 314 314 314 313 312 312 311 311 311
317 316 315 314 316 317 316 316 316 316 315 315 312 316 315 315 314 314 314 313 311 312 315 317 320 315 315 316 316 315 314 314 314 314 314 313 312 312 311 311 311 311 311 311
317 315 312 313 313 315 317 318 314 316 310 316 315 315 314 315 314 313 312 311 312 312 312 313 314 313 313 314 313 313 313 313 313 313 313 312 312 312 312 312 312 312 312 312
314 315 313 313 313 313 315 314 316 317 318 317 315 314 314 313 313 313 312 311 309 310 310 311 311 312 312 313 313 313 313 313 313 313 312 312 312 312 312 311 311 311 311 311
311 313 314 313 315 317 314 315 315 314 315 317 314 314 313 312 312 311 312 309 310 310 310 310 310 311 311 313 313 313 314 313 313 312 312 312 311 311 311 311 310 310 310 309
310 312 314 314 313 313 315 314 315 316 315 314 314 315 310 310 309 309 311 312 312 311 310 310 310 311 312 313 314 314 313 312 312 311 311 311 311 310 310 309 309 308 308 308
310 315 315 314 313 313 315 315 315 315 313 316 316 315 309 309 309 310 312 313 313 311 310 311 311 312 313 314 314 314 313 312 311 311 310 310 310 309 309 308 308 308 307 307
311 313 314 315 313 313 314 313 314 316 318 315 316 314 313 312 313 311 311 311 313 312 311 312 312 312 313 314 314 313 312 311 311 311 310 309 309 308 307 307 307 307 307 306
311 314 313 311 310 311 312 313 314 315 315 315 314 313 312 312 313 312 311 310 311 313 312 312 312 313 314 314 314 312 312 311 310 309 309 308 308 307 306 306 306 306 306 306
311 313 311 313 312 311 312 312 312 313 313 313 313 314 312 312 312 312 311 311 310 311 313 312 312 312 314 314 313 312 312 311 310 309 308 308 307 306 306 306 306 305 305 304
311 311 311 314 310 310 313 311 311 311 312 313 315 313 312 312 312 312 312 311 312 312 311 312 313 313 314 314 314 313 312 311 309 308 308 307 306 306 305 305 305 304 302 303
310 311 312 312 309 313 310 306 308 310 310 311 311 311 311 311 310 310 310 310 311 310 310 311 312 313 314 314 313 312 312 310 309 308 307 306 305 305 305 304 303 302 301 300
308 310 313 313 312 310 310 307 307 308 309 309 309 310 309 309 308 308 308 309 310 310 310 310 311 314 314 314 313 312 311 310 308 307 306 305 304 304 304 303 301 300 300 299
306 309 312 311 312 311 308 308 305 307 311 309 307 309 310 308 312 314 308 307 308 309 309 309 311 313 314 313 312 311 310 309 307 306 305 304 303 303 303 301 299 299 298 298
309 311 313 311 312 311 308 307 306 310 311 310 311 312 311 309 309 308 307 308 308 308 308 308 311 312 312 311 311 311 310 309 307 305 304 303 302 302 301 299 298 298 297 298
311 312 312 311 312 311 305 306 309 310 310 310 312 311 309 308 307 307 308 308 309 309 308 308 310 310 310 311 311 310 309 307 305 304 303 302 301 301 299 298 297 296 296 297
311 309 310 311 310 307 306 308 308 309 310 311 312 311 309 307 308 308 308 309 309 309 309 308 309 311 311 311 309 307 306 305 304 303 302 301 300 299 297 297 296 295 296 297
306 302 308 308 309 308 306 306 308 308 308 309 311 312 310 309 308 308 310 309 309 309 309 310 310 310 309 308 307 306 305 304 303 302 301 301 300 298 297 296 295 296 297 297
303 302 306 307 307 306 307 307 307 307 307 306 310 311 311 312 312 311 311 310 310 310 309 309 308 308 308 308 307 306 305 304 303 302 301 300 299 297 297 296 296 298 297 292
298 301 306 308 304 305 306 306 306 308 308 307 310 310 310 310 310 310 310 310 310 309 310 312 312 310 308 309 309 307 304 304 303 302 301 300 299 297 297 296 297 297 294 290

GFSCGP_850_thetae_087.txt.gz
Theta_e
310 316 317 316 317 317 317 318 318 318 320 322 322 322 322 321 321 322 322 322 322 323 324 323 324 325 328 338 340 341 339 339 339 339 339 338 339 340 339 340 341 340 340 338
314 318 316 316 316 318 319 318 319 319 319 320 320 320 320 320 321 321 321 321 322 323 324 323 323 319 323 332 334 337 335 335 337 340 340 339 339 339 338 338 338 338 338 337
315 316 315 316 317 318 318 318 319 319 319 319 320 321 320 320 320 320 320 320 321 322 323 324 321 318 317 323 332 333 333 334 336 338 339 337 335 335 338 338 337 337 335 336
314 314 315 316 316 316 318 317 317 318 319 321 319 319 318 319 320 320 320 320 320 322 324 324 322 319 317 316 326 332 332 332 331 330 328 328 330 334 334 336 334 326 327 329
316 315 315 316 316 316 317 317 318 318 319 319 320 320 319 319 320 320 320 320 319 320 323 324 322 320 318 316 317 322 329 330 328 329 329 327 326 331 331 327 328 322 319 317
314 314 314 315 316 316 317 317 317 318 318 322 319 319 318 319 319 319 319 319 319 319 320 323 321 319 320 317 317 317 317 321 324 327 328 330 332 329 325 319 316 315 314 314
314 316 315 315 317 316 316 317 320 319 320 319 316 316 318 317 317 317 317 317 319 319 319 320 320 319 318 319 317 317 316 316 317 320 323 323 319 316 315 314 314 313 312 312
317 318 315 315 315 315 315 316 318 317 317 316 315 315 315 315 315 316 316 316 315 316 319 319 320 319 317 317 316 316 315 316 315 315 315 315 314 314 313 313 312 311 311 311
319 319 314 315 315 316 316 319 316 317 315 316 315 315 314 314 315 315 315 315 315 315 314 316 319 319 316 317 315 315 315 315 314 314 313 313 313 313 312 312 312 312 312 312
316 317 315 314 314 315 317 315 317 318 317 315 313 315 314 314 314 315 314 313 313 312 313 313 314 319 317 316 315 314 314 314 314 313 313 313 313 312 312 312 312 312 312 312
313 315 315 314 316 315 316 316 316 316 314 315 314 315 314 314 314 314 314 313 313 313 312 312 312 312 314 314 314 314 314 314 313 313 313 313 312 312 311 311 311 311 311 310
313 315 318 315 314 315 314 314 314 317 316 315 315 316 312 313 312 312 314 315 315 314 313 312 313 313 312 312 312 313 313 313 313 313 312 312 312 312 311 311 311 310 309 309
312 315 316 316 315 314 316 317 316 315 315 320 317 316 312 312 312 312 314 313 313 314 313 313 312 312 312 311 312 313 313 313 313 312 312 312 312 311 311 310 310 309 309 308
313 314 314 316 315 314 314 314 315 317 319 316 317 315 314 313 312 312 312 313 313 313 314 314 313 312 312 312 312 313 313 313 312 312 311 311 311 311 310 310 309 308 308 308
310 314 314 314 311 313 314 314 314 316 316 317 316 315 314 314 313 313 314 313 312 312 314 314 314 313 313 312 311 312 312 312 312 311 311 310 310 309 309 308 308 307 307 307
311 314 313 314 313 312 313 313 314 314 314 314 315 315 313 313 313 313 313 312 312 312 312 314 314 314 313 312 311 313 313 312 312 311 310 310 309 309 308 307 306 306 306 306
308 311 313 316 314 313 315 313 314 313 313 314 316 314 313 313 313 312 312 312 312 312 312 312 314 314 314 313 312 312 312 312 312 311 310 309 309 308 307 306 306 305 305 305
307 307 313 314 312 315 311 309 313 313 313 313 312 312 312 312 311 311 311 311 311 311 312 312 313 314 314 313 312 311 312 312 312 311 310 309 308 306 306 305 305 305 304 301
304 308 313 314 312 311 311 308 309 310 310 310 310 311 310 310 310 310 311 311 310 310 311 312 311 313 314 313 312 312 312 312 311 310 309 307 306 305 305 305 304 304 302 300
305 306 312 314 315 311 309 308 307 309 311 311 310 311 312 312 313 314 310 309 308 309 310 311 311 312 313 313 312 313 312 312 311 310 309 307 305 305 304 304 303 302 300 300
309 309 311 313 312 311 310 309 308 310 312 312 312 313 313 313 312 311 309 308 308 308 309 309 309 313 313 311 313 313 312 312 310 309 308 306 305 304 303 302 301 299 299 299
311 312 313 313 313 311 308 308 309 311 311 311 312 314 312 311 309 308 308 308 309 308 307 308 308 310 311 312 312 312 311 311 310 308 307 305 304 303 302 301 299 299 298 297
310 310 312 311 311 308 308 309 309 309 310 311 313 313 312 310 309 309 308 308 308 307 307 307 308 310 311 310 310 311 311 309 308 306 305 304 303 302 301 300 298 298 297 297
307 304 309 309 309 309 309 308 308 309 309 310 311 312 312 309 310 309 309 308 307 308 308 308 308 308 309 310 310 309 308 307 306 304 303 303 302 301 300 299 298 298 297 296
302 304 307 308 308 308 308 308 308 308 308 307 308 310 312 312 311 310 310 310 309 309 308 308 308 308 308 308 307 307 306 305 305 304 302 302 302 301 299 298 298 297 296 295
300 301 302 305 307 307 307 306 306 307 307 307 307 310 310 310 310 310 309 310 310 309 309 309 309 308 308 308 308 309 308 305 304 303 302 302 302 300 299 298 297 296 295 296

GFSCGP_850_thetae_090.txt.gz
Theta_e
311 316 317 316 317 316 317 317 317 319 322 323 321 322 320 320 322 322 322 322 322 323 324 325 325 327 333 337 339 337 339 339 339 338 338 339 338 337 336 337 337 339 338 338
314 317 315 316 316 317 318 316 316 319 320 322 320 320 319 319 320 322 322 321 322 322 323 325 324 324 329 332 337 339 337 336 337 338 337 336 335 337 336 336 337 337 336 338
314 317 316 316 317 318 318 317 318 319 319 318 318 318 317 317 318 320 321 321 321 321 322 324 324 324 325 329 332 335 336 336 334 336 338 335 334 334 335 334 335 335 336 336
315 314 315 317 318 317 318 317 318 319 319 319 317 318 317 317 317 317 319 320 320 320 321 322 324 323 323 327 329 332 333 333 333 334 334 333 332 331 330 330 331 329 327 330
315 315 315 317 315 315 317 317 318 318 318 317 319 318 315 316 318 317 317 319 320 320 320 321 322 322 321 320 324 330 332 332 332 333 331 332 329 330 328 327 325 323 326 324
314 314 315 315 316 315 317 317 317 317 317 318 318 318 316 315 315 318 317 319 319 320 320 321 322 321 319 318 317 319 328 331 331 331 330 328 327 329 325 326 329 326 321 316
313 315 315 315 317 316 317 317 318 318 319 315 315 316 316 315 315 316 315 316 318 319 319 320 322 321 320 318 317 317 316 318 322 327 329 326 329 330 331 329 323 316 314 314
311 315 315 315 316 316 316 316 318 317 316 314 313 315 313 313 314 315 316 316 316 316 318 320 322 321 320 319 318 318 316 316 316 318 320 323 325 323 321 317 314 314 313 313
315 314 314 314 315 315 315 314 315 317 315 312 314 314 312 311 313 314 315 315 316 315 315 319 319 320 319 319 319 317 315 315 315 315 316 317 317 315 314 314 313 312 312 312
316 316 314 315 315 315 317 315 316 313 313 315 310 310 312 313 312 313 312 313 314 314 314 315 318 318 318 319 317 317 315 315 315 314 314 314 314 314 314 313 312 312 312 311
314 315 315 313 315 315 316 318 317 315 313 311 313 313 310 312 311 311 312 314 314 313 312 313 313 313 316 316 316 318 318 314 315 314 313 314 314 313 312 312 312 311 311 311
312 314 315 315 314 314 314 316 316 318 316 313 310 313 312 309 309 312 314 315 314 313 313 313 312 312 313 315 317 319 320 317 314 314 319 314 312 312 312 312 312 311 311 311
312 312 316 317 315 315 316 314 314 314 314 313 313 312 310 311 311 312 314 313 313 314 313 313 313 313 312 313 314 315 315 315 313 313 313 313 312 312 312 311 311 311 310 310
311 313 311 313 315 314 314 315 315 315 317 314 315 315 313 311 311 311 313 313 312 312 314 314 313 313 312 312 312 312 313 312 312 313 313 312 311 311 311 311 311 310 310 309
308 311 313 313 313 313 314 314 315 315 315 315 314 315 313 313 312 312 312 312 312 312 312 313 314 313 312 312 312 312 312 312 312 312 311 311 311 310 310 311 310 309 308 308
305 312 309 314 314 313 313 313 314 314 315 315 314 314 312 313 313 312 312 313 312 313 312 312 314 314 313 312 312 311 312 312 312 311 311 311 310 310 310 310 309 308 308 307
305 307 310 314 312 311 313 312 313 313 313 314 314 313 312 312 312 312 312 312 312 312 312 312 312 313 314 313 312 311 312 313 312 311 311 311 310 310 310 309 308 307 307 306
303 304 306 314 312 313 312 308 311 312 312 312 312 311 311 311 311 311 311 310 310 310 311 311 312 313 313 314 313 312 312 313 312 311 311 310 310 309 309 308 307 306 306 305
303 304 308 313 312 311 309 307 310 311 310 310 310 309 310 310 310 309 311 311 310 310 311 310 311 312 313 314 313 312 312 313 312 312 312 311 310 309 308 307 306 305 305 304
304 303 308 312 313 314 309 307 308 308 308 310 309 309 312 312 310 310 311 310 310 309 309 310 311 311 312 314 313 313 312 313 313 312 311 310 309 308 307 306 305 304 303 302
308 307 306 310 312 311 308 307 309 309 311 312 312 313 313 311 310 310 309 308 308 308 308 309 310 311 312 314 313 313 312 312 312 310 310 309 308 307 306 305 303 303 302 299
308 309 310 310 310 312 308 308 309 310 311 311 312 313 313 312 310 309 309 308 308 308 307 308 309 311 313 313 313 312 311 310 310 310 309 308 306 305 304 303 302 302 300 299
308 308 309 312 311 308 308 308 308 309 308 310 312 313 313 310 310 309 309 308 308 307 306 307 308 310 312 312 311 311 310 309 309 308 307 306 305 304 303 302 301 300 298 298
306 304 307 307 308 308 308 308 307 308 308 309 310 311 312 311 311 310 309 308 308 307 307 307 307 308 309 309 309 309 308 308 308 307 306 305 304 303 302 301 300 299 297 297
300 300 303 304 304 307 307 306 306 307 307 307 307 307 311 312 312 310 309 309 309 308 307 307 307 308 308 308 308 308 307 306 306 306 305 305 304 303 302 301 299 298 298 297
299 299 299 300 301 303 305 302 306 307 308 307 307 308 310 311 311 310 309 309 308 308 308 308 307 308 308 308 307 307 307 308 307 306 306 304 304 304 302 300 299 298 297 296

GFSCGP_850_thetae_093.txt.gz
Theta_e
311 312 314 314 315 316 316 317 318 319 320 320 322 323 321 320 321 321 322 323 323 322 324 324 324 329 338 338 338 339 339 338 339 339 341 338 336 336 336 336 337 336 336 334
311 314 314 315 314 315 316 315 317 319 322 321 321 321 321 319 319 321 322 322 322 322 322 325 324 324 331 338 339 338 339 337 337 337 336 339 336 336 336 336 335 334 336 335
312 315 315 316 316 316 316 316 316 319 320 320 319 318 317 318 317 321 321 321 321 321 321 323 324 324 325 328 334 336 336 337 337 337 337 337 336 337 335 334 334 334 333 333
313 314 314 315 317 316 318 317 318 319 319 319 315 315 313 316 314 314 319 321 321 320 321 321 324 324 324 324 326 332 333 334 335 335 336 335 333 333 333 333 333 332 331 331
312 314 315 316 316 314 316 316 317 318 317 315 317 316 314 312 313 315 313 317 320 320 320 320 322 323 323 323 325 331 334 335 333 335 333 333 334 333 332 330 330 328 325 322
313 313 313 314 315 315 315 316 315 315 314 313 315 317 314 312 313 314 314 317 318 320 319 319 320 320 322 320 322 327 332 334 335 332 332 332 331 332 331 328 328 328 324 323
309 311 313 314 315 315 315 316 316 312 311 312 313 314 315 313 311 312 312 315 317 319 319 320 320 320 321 319 318 321 324 330 332 332 332 332 331 330 329 326 327 327 328 328
305 304 313 314 314 314 315 314 313 315 315 312 311 313 311 310 312 314 315 316 316 316 318 319 320 321 320 319 318 318 318 319 324 329 329 330 330 328 327 329 329 327 320 315
310 310 313 313 314 313 313 313 313 314 313 308 311 311 310 310 312 312 314 315 315 315 315 318 320 321 322 320 318 317 317 316 316 317 321 326 328 327 327 324 321 317 314 313
313 311 313 313 314 314 315 313 314 314 318 315 309 312 311 311 310 311 309 311 313 314 315 317 319 320 320 320 320 319 318 316 315 315 316 317 317 316 315 315 313 313 313 313
313 314 315 314 314 314 315 315 315 313 311 310 311 309 308 308 309 310 311 313 313 312 312 313 314 317 318 319 318 318 316 315 315 314 314 314 314 313 313 313 313 313 312 312
312 314 315 317 314 313 314 315 315 310 314 309 308 311 309 307 308 312 313 313 312 312 312 312 312 312 313 316 317 317 317 317 316 319 319 315 312 312 313 312 312 312 312 311
311 312 313 315 314 313 314 315 315 314 311 306 310 310 307 307 308 312 314 314 313 313 313 312 312 312 312 313 315 316 316 316 316 316 318 318 315 314 317 318 318 315 312 310
310 308 312 313 314 314 315 314 314 314 315 311 309 313 310 309 309 309 312 312 312 313 313 313 312 312 312 312 314 315 315 316 316 317 318 317 316 314 312 312 311 311 310 310
308 309 311 310 311 312 314 314 315 314 313 312 312 313 313 312 310 310 311 312 311 311 313 312 312 312 312 312 312 313 313 313 313 313 313 312 311 310 310 311 310 310 310 309
304 309 308 309 311 312 312 314 314 314 314 314 313 313 311 312 312 311 312 312 312 312 312 312 312 312 312 313 312 311 312 312 312 312 312 311 310 310 310 310 310 310 309 308
302 304 301 310 313 311 312 311 313 312 313 314 314 313 312 312 310 311 312 312 311 311 311 312 312 312 312 312 313 312 312 312 312 312 311 310 310 310 310 310 310 309 308 307
300 300 300 306 312 312 310 309 311 312 311 312 312 311 311 312 312 312 311 310 310 310 310 310 311 311 312 313 313 313 312 312 311 311 311 310 310 310 309 309 308 308 306 306
300 300 301 307 313 310 309 308 311 310 311 310 309 309 310 310 309 309 310 310 310 310 310 310 310 310 312 313 313 313 312 311 311 311 311 310 310 310 309 309 308 307 306 305
301 301 304 307 311 312 309 306 307 306 308 309 307 307 308 310 308 306 311 310 309 309 309 309 309 310 311 312 313 313 313 312 311 311 310 310 309 309 308 307 307 305 304 304
306 306 305 306 310 309 308 306 308 307 306 311 312 313 312 310 309 310 309 308 308 308 309 308 309 310 311 311 313 313 313 312 312 310 309 309 309 308 307 306 305 304 303 302
307 306 307 307 307 309 307 307 308 307 309 310 311 313 312 312 310 309 309 308 308 308 307 307 308 309 310 311 313 313 313 312 311 309 309 309 308 307 307 305 304 303 302 301
304 306 309 311 309 308 308 305 306 307 308 309 312 312 312 310 309 309 309 309 307 308 306 307 308 310 312 313 313 313 312 311 310 309 309 308 308 306 305 304 303 302 301 300
302 303 303 304 306 306 303 304 306 307 307 307 309 310 310 311 311 310 309 309 308 307 307 306 307 309 311 311 311 310 310 310 309 308 308 307 306 305 305 304 303 301 300 298
298 298 299 300 299 303 304 303 304 305 306 307 307 307 307 311 311 310 309 309 308 307 307 307 308 307 308 308 309 308 308 308 308 307 306 305 305 304 304 303 302 301 300 298
297 297 297 297 298 299 300 300 301 303 303 306 307 307 309 310 311 310 309 309 308 307 307 307 307 307 307 307 306 306 306 306 306 305 305 304 304 304 303 302 302 301 300 298

GFSCGP_850_thetae_096.txt.gz
Theta_e
312 310 313 314 314 315 315 319 320 318 319 321 321 321 322 321 320 319 321 322 323 325 324 324 330 335 337 338 338 340 339 339 339 340 339 339 337 336 336 336 336 334 334 334
308 310 314 314 315 314 315 316 316 319 319 319 319 318 319 321 320 318 320 322 322 322 324 324 325 331 332 335 337 338 338 337 338 338 338 339 339 337 336 336 335 336 336 335
309 313 314 315 315 315 314 314 316 320 321 319 319 319 319 319 319 319 320 321 322 322 322 322 323 324 330 329 330 334 336 337 337 337 336 337 338 338 336 335 336 336 334 334
312 313 314 314 316 315 317 316 316 320 321 322 319 319 313 313 316 316 317 319 321 322 321 321 321 322 324 330 332 331 331 332 334 336 336 335 335 335 336 336 335 334 334 333
311 313 314 315 315 314 315 316 317 318 316 315 316 317 314 312 313 314 312 317 319 320 320 320 320 321 323 324 329 335 336 336 335 336 335 334 333 334 335 336 335 333 333 333
311 312 312 313 314 314 314 315 315 317 315 318 314 317 315 313 312 312 312 315 317 319 320 320 320 321 322 323 324 332 333 335 336 336 335 334 332 333 332 333 333 333 332 330
307 310 313 313 314 314 315 318 318 319 319 319 311 316 316 312 310 310 310 313 316 317 318 320 319 319 320 321 321 322 325 332 332 331 330 331 331 332 332 332 331 330 329 328
304 304 311 312 312 313 314 315 315 316 316 313 312 315 313 310 312 313 314 315 315 317 317 319 319 319 319 319 320 320 320 324 330 331 330 331 330 330 330 330 330 329 328 327
309 309 310 312 313 312 313 314 312 312 310 308 310 310 309 309 310 311 312 313 314 315 316 317 318 319 319 319 321 322 319 319 320 325 329 329 330 329 329 329 328 327 325 322
311 314 311 313 314 314 313 312 316 313 317 316 309 311 311 310 309 309 309 311 313 314 314 317 318 318 319 321 321 319 317 316 316 316 319 322 326 327 327 326 325 324 322 318
310 312 312 313 314 313 315 314 314 313 312 312 310 308 304 307 307 308 308 311 312 312 313 316 318 319 319 320 319 318 317 316 316 316 315 316 318 319 318 317 317 314 313 312
310 313 314 313 314 312 313 314 314 313 312 308 307 310 308 308 308 310 311 312 312 312 312 312 313 314 316 318 318 318 317 317 317 315 315 314 314 314 314 313 312 312 312 313
311 311 313 313 313 312 314 314 314 311 310 306 309 309 306 306 309 312 312 312 312 312 312 311 311 311 312 312 314 317 317 316 315 314 315 315 315 315 316 314 315 315 315 314
309 307 310 310 312 312 313 315 314 313 313 309 306 309 309 306 307 310 312 312 312 312 312 312 312 311 311 312 312 313 316 316 315 315 315 315 315 315 316 318 317 317 314 311
306 305 308 309 310 311 311 314 314 314 313 311 311 310 311 307 308 309 311 311 311 311 312 312 312 312 311 311 311 312 313 315 315 315 315 315 316 317 318 317 315 311 309 309
302 306 299 303 308 310 311 312 314 314 314 313 312 312 310 311 310 310 312 312 312 311 311 312 312 312 312 312 311 312 312 313 314 314 314 314 313 312 311 310 310 309 309 310
299 298 295 300 306 310 309 309 312 312 312 313 315 313 312 312 311 311 311 311 311 311 311 311 311 311 312 311 311 312 312 311 312 312 312 311 311 310 310 310 309 309 309 308
299 297 298 298 309 312 311 308 310 312 312 311 312 311 311 312 312 312 312 311 310 310 310 310 310 310 311 311 312 312 312 312 311 311 311 311 310 310 310 309 309 309 308 308
297 298 298 304 308 310 309 307 310 310 311 309 309 310 311 311 310 309 309 309 310 310 310 310 310 310 310 310 311 312 313 312 311 311 311 311 310 310 310 309 308 308 307 307
300 301 302 304 309 310 309 305 306 307 308 309 308 307 307 307 307 305 309 310 309 308 308 308 308 309 310 310 311 312 313 312 311 311 311 311 309 309 308 308 307 307 306 305
302 301 300 299 302 307 306 304 307 307 304 309 311 312 311 309 308 310 308 308 308 308 309 308 308 308 310 310 310 312 313 313 312 311 311 310 309 308 308 307 307 306 305 304
305 303 302 305 305 307 305 306 306 304 304 308 311 312 312 311 310 309 309 309 309 308 307 307 307 308 310 310 311 311 312 313 312 311 310 310 309 308 308 307 306 305 304 303
307 304 307 306 304 306 305 304 303 304 305 306 307 312 312 311 310 309 309 309 309 308 307 306 308 309 309 309 310 312 313 312 311 310 309 309 308 307 306 306 305 304 303 303
299 301 302 303 303 302 304 305 304 304 303 305 307 307 310 310 310 311 310 309 309 308 308 307 307 309 310 311 312 312 311 311 310 309 308 308 307 307 306 304 304 303 303 302
296 297 297 298 298 301 301 299 299 301 302 304 306 306 306 309 311 310 310 310 308 308 308 307 307 307 308 309 310 310 310 309 309 308 307 307 306 305 304 304 303 303 302 301
295 296 296 297 297 297 297 297 297 300 302 304 304 306 308 309 310 309 309 308 307 308 308 308 307 306 307 307 307 307 307 307 306 306 306 305 305 304 303 302 303 303 303 302

GFSCGP_850_thetae_099.txt.gz
Theta_e
310 310 315 313 312 313 316 318 319 318 319 320 319 320 321 321 321 319 320 320 321 324 324 330 335 338 337 338 339 337 337 337 339 340 339 338 338 337 337 336 335 335 334 334
307 310 313 313 314 314 314 317 316 317 319 319 321 321 319 319 320 320 319 320 319 322 324 324 327 331 332 336 338 338 338 337 337 337 338 340 338 338 337 336 335 335 335 334
307 312 313 314 314 315 314 314 314 318 319 319 319 320 319 318 320 320 320 320 319 319 323 323 324 324 327 330 334 335 337 338 338 338 338 338 338 338 338 337 336 335 334 334
312 312 313 314 315 314 316 314 314 320 320 320 317 320 313 318 319 319 319 319 319 319 322 322 322 322 323 324 324 327 332 332 334 337 337 337 337 337 336 336 335 335 336 335
308 313 313 314 315 314 315 315 316 319 316 315 320 316 315 312 316 316 317 317 318 318 321 322 322 321 321 322 323 327 328 327 332 332 334 334 336 335 334 333 334 333 334 334
309 311 311 312 313 314 313 313 314 316 316 320 314 317 315 313 313 312 313 316 318 319 319 320 321 320 320 320 322 325 330 332 331 331 331 332 333 333 333 333 333 333 333 334
305 309 311 312 314 313 314 313 319 318 320 315 311 317 315 313 310 309 310 314 315 317 318 318 319 320 319 320 321 323 326 330 333 332 333 333 333 331 332 332 332 331 331 331
304 304 310 311 311 312 313 315 313 316 316 316 312 318 314 311 310 312 313 313 314 315 315 317 318 318 320 319 320 322 322 322 325 327 328 328 328 329 331 331 331 330 330 330
308 308 308 311 313 312 313 311 312 315 309 307 313 309 308 308 308 310 310 312 313 314 314 315 317 317 319 319 319 319 319 320 321 322 325 328 329 329 329 330 330 329 329 329
309 308 310 311 313 313 312 311 314 313 317 316 310 309 310 310 309 309 309 311 312 314 315 316 317 317 318 319 319 319 319 318 319 320 321 321 325 328 329 329 330 329 328 327
308 310 310 312 313 312 314 312 313 312 314 311 311 308 305 307 307 308 308 311 311 312 313 315 317 317 316 317 318 319 320 318 317 317 316 316 316 319 324 326 327 327 325 323
308 309 310 309 311 312 313 315 314 315 313 306 303 308 306 305 306 307 308 311 311 312 312 313 315 318 318 318 319 319 319 317 317 315 316 315 315 316 318 320 320 318 316 313
309 309 309 307 313 312 315 313 314 311 310 307 309 308 305 306 309 310 311 311 311 311 311 311 311 312 314 317 319 319 319 318 317 317 316 315 315 315 314 313 313 313 313 312
308 307 307 305 310 309 312 313 313 313 313 309 309 309 309 308 309 310 311 311 312 312 311 311 311 311 311 311 311 312 314 317 317 316 315 314 314 314 313 313 312 315 316 317
306 305 306 307 308 310 309 312 314 313 313 310 309 309 309 307 307 308 310 311 311 311 312 312 312 312 312 311 311 311 312 314 315 315 315 315 315 315 314 313 314 317 317 317
300 297 302 297 304 307 309 309 311 313 313 313 311 311 308 310 308 309 311 311 311 311 312 312 312 311 312 312 312 311 311 312 313 314 315 315 314 313 314 316 316 315 313 311
298 298 300 297 301 304 305 308 309 310 311 313 314 312 311 312 311 310 311 311 311 311 312 312 312 311 311 311 311 311 311 311 312 313 314 314 314 314 315 314 311 310 309 310
298 296 301 297 305 307 306 307 307 308 310 310 311 310 310 312 312 311 311 312 312 311 311 310 310 310 311 311 311 311 311 312 312 312 312 312 312 311 311 310 309 309 309 309
295 297 298 302 304 304 308 305 309 310 310 308 308 308 310 311 311 310 311 310 309 309 309 309 309 310 309 309 309 310 311 312 312 311 311 311 311 310 310 309 309 308 308 308
299 300 302 304 304 308 307 305 305 306 308 304 304 306 306 307 307 306 308 309 309 309 308 308 308 308 309 310 310 309 310 312 312 312 311 311 310 310 309 308 308 308 307 307
301 300 299 297 298 303 306 305 304 307 304 303 305 310 308 307 306 309 309 308 308 308 308 308 308 308 308 308 309 309 310 312 312 312 311 311 310 309 308 308 308 307 306 306
301 303 303 302 302 303 305 305 306 304 303 304 304 306 310 310 309 308 308 308 308 308 308 307 307 307 308 310 310 310 310 312 312 312 311 310 309 308 308 308 307 307 306 305
304 303 304 301 302 304 305 304 303 303 302 302 304 305 306 309 309 309 309 309 309 308 308 307 307 308 308 309 309 310 311 311 312 311 310 309 308 308 307 307 307 306 305 304
297 300 302 303 301 300 302 304 301 301 304 305 303 304 305 306 309 309 310 309 308 308 308 307 306 308 310 311 311 310 311 311 311 311 310 309 308 307 307 307 306 305 304 304
295 296 296 297 297 301 301 298 297 297 299 302 304 304 305 307 309 310 309 309 307 307 307 307 307 307 308 309 310 311 311 310 310 309 308 308 307 307 306 305 304 303 303 303
294 295 296 296 296 296 297 297 298 299 299 301 301 303 305 306 308 309 309 308 307 306 307 308 307 306 306 307 308 309 309 308 308 307 307 306 306 305 305 304 303 303 303 304

GFSCGP_850_thetae_102.txt.gz
Theta_e
309 314 316 314 312 313 316 318 318 317 318 316 317 317 318 317 317 317 319 320 320 328 331 332 334 335 335 335 333 332 332 328 330 336 336 335 330 336 337 337 336 335 335 334
307 313 313 312 313 313 315 317 317 318 319 318 318 317 319 317 317 317 318 320 320 320 324 328 332 333 335 334 335 335 335 335 333 333 329 332 331 335 337 336 336 335 335 334
307 311 312 313 313 314 313 314 314 319 320 318 318 319 319 317 317 317 318 319 320 320 320 323 325 331 333 335 335 335 335 335 335 334 333 331 334 336 337 337 337 336 335 335
310 311 312 314 315 313 315 313 314 319 319 319 317 318 317 318 318 317 318 318 320 320 320 321 323 324 327 328 330 333 334 335 337 335 334 334 334 334 334 336 334 335 335 336
308 312 312 314 314 313 314 314 314 318 316 318 319 317 315 316 319 318 316 317 319 319 320 319 322 322 322 323 324 328 333 333 334 335 333 333 333 335 336 334 334 335 336 335
308 309 311 311 312 313 312 314 314 314 315 318 315 317 315 313 315 316 316 316 317 318 319 319 320 322 322 322 321 322 325 330 331 329 330 332 332 334 333 333 333 333 333 334
304 307 308 311 313 311 314 314 317 319 320 315 310 317 317 313 311 310 311 314 316 318 319 318 318 319 321 320 319 320 321 323 329 331 332 332 331 330 330 332 332 332 332 331
303 304 308 310 311 311 313 312 310 315 315 312 312 317 315 311 310 310 311 312 313 314 315 314 316 318 319 320 319 319 320 322 323 325 327 329 328 330 330 331 330 330 330 330
308 307 307 309 312 312 313 311 311 309 308 305 311 310 307 308 308 308 309 311 313 313 314 314 315 316 317 318 319 319 320 322 323 322 322 324 324 326 327 327 328 328 330 329
307 306 308 310 312 312 313 310 315 316 317 316 310 308 309 309 309 309 309 309 311 312 315 315 315 315 317 317 318 319 319 320 320 319 320 321 322 324 326 327 328 329 329 330
308 310 306 310 311 311 314 316 313 312 312 311 311 308 304 307 306 307 307 310 310 311 313 315 316 316 316 317 318 318 319 319 319 319 319 319 318 318 317 318 323 327 328 328
308 310 308 307 309 312 313 314 313 314 313 305 303 308 305 305 305 306 307 310 311 311 312 313 315 317 317 316 316 317 318 319 319 318 317 316 316 316 316 319 323 325 326 325
308 304 306 301 310 311 313 313 313 312 308 304 307 308 305 305 307 308 309 310 311 311 311 311 311 312 317 318 318 318 318 318 317 317 317 316 316 315 315 317 319 319 318 315
306 303 300 301 301 307 306 310 309 313 314 308 309 309 308 307 309 309 310 310 311 311 311 311 311 311 311 311 312 314 316 317 318 317 317 316 315 314 314 314 313 312 312 311
302 296 302 304 304 307 308 309 309 311 313 311 309 308 308 307 307 308 310 310 310 311 311 311 311 311 311 312 311 311 311 311 313 316 316 315 314 314 314 313 312 312 312 316
299 293 299 297 301 302 305 307 309 310 309 312 311 310 307 309 307 308 309 309 310 311 312 311 312 311 311 311 311 311 311 311 311 312 315 314 314 314 314 314 312 312 314 316
297 299 296 299 300 305 302 306 308 309 311 311 312 312 311 311 310 311 310 311 311 311 312 311 311 311 311 311 311 311 311 311 311 311 313 314 314 314 314 313 312 314 315 311
297 295 300 299 303 302 304 306 307 307 307 309 310 309 311 311 311 311 311 311 311 311 311 311 311 310 310 310 310 311 311 311 311 311 312 313 314 313 313 313 314 313 309 309
294 296 295 301 303 301 306 306 304 309 309 305 304 305 307 308 310 310 311 311 311 310 310 310 309 309 309 309 309 309 309 310 311 311 312 312 313 313 312 312 310 309 308 308
299 298 297 298 302 305 306 305 305 302 309 304 304 304 306 307 308 309 310 309 309 309 309 310 309 309 309 308 308 309 309 309 309 311 312 311 312 311 310 309 308 308 308 308
298 298 298 296 297 299 303 305 304 307 304 303 304 304 304 306 306 308 308 309 309 308 308 308 308 308 308 308 308 308 309 310 309 311 312 311 311 310 309 308 308 308 307 307
300 300 302 300 300 300 304 304 306 303 303 302 303 303 304 306 308 307 308 308 308 308 308 308 307 307 307 308 309 310 309 309 309 311 311 311 310 310 309 308 307 307 307 307
301 299 300 300 300 301 304 303 303 304 304 304 304 304 304 304 306 307 308 308 308 309 308 307 306 307 308 308 309 309 309 309 311 311 311 310 309 309 308 307 307 307 307 306
297 299 301 302 301 300 300 303 300 297 298 300 301 303 305 304 305 308 308 308 308 308 308 307 306 307 309 310 309 309 310 310 311 311 311 310 309 308 308 307 306 306 306 305
295 297 297 296 296 300 301 298 298 298 298 298 300 301 302 304 305 307 307 307 307 307 307 307 306 306 308 309 309 310 310 310 310 310 310 309 308 307 307 306 306 305 304 304
293 295 296 296 295 296 297 298 298 298 298 298 298 299 300 300 304 306 307 307 306 307 306 306 306 306 306 307 308 309 308 308 308 309 309 308 307 306 306 306 305 304 303 303

GFSCGP_850_thetae_105.txt.gz
Theta_e
309 315 316 314 312 313 316 317 316 315 313 316 316 317 317 316 317 318 318 318 320 330 332 333 331 331 330 328 328 329 327 326 328 332 334 333 334 333 332 331 330 333 334 334
309 314 313 313 312 313 316 318 318 317 316 316 316 316 316 317 316 317 318 319 319 321 330 331 331 334 330 329 328 328 328 328 328 329 332 333 333 333 334 334 334 332 333 334
309 311 311 313 313 313 313 316 316 318 318 318 317 318 318 317 316 317 319 321 320 319 319 325 331 331 333 332 331 328 330 330 328 328 327 328 327 331 334 330 334 333 334 335
309 310 312 313 314 312 315 312 314 320 320 320 317 319 317 316 317 316 318 321 321 321 320 320 321 330 331 331 333 333 334 333 330 329 330 329 328 327 329 330 327 333 333 333
308 311 312 313 313 312 314 314 316 318 316 318 319 319 317 314 317 316 316 319 322 322 321 320 320 322 326 330 330 332 333 333 332 327 333 334 331 330 331 328 330 332 332 334
308 308 310 311 311 312 312 313 314 314 316 319 316 317 316 317 317 316 315 317 319 322 321 320 320 320 322 323 325 329 331 331 332 332 332 333 332 332 332 330 330 332 332 333
303 306 307 311 313 311 313 313 316 320 320 317 310 317 316 313 312 312 313 314 316 317 318 318 319 320 321 321 321 322 322 324 328 329 331 330 331 331 331 330 330 331 332 331
305 302 307 310 311 313 313 312 312 315 316 314 312 318 317 312 312 312 313 312 311 313 316 317 319 319 320 322 321 321 319 319 321 324 328 330 330 329 330 330 330 330 330 330
307 306 306 308 311 312 312 315 311 309 306 310 312 311 308 308 308 308 308 309 311 311 313 315 316 318 319 320 321 320 319 319 320 322 325 326 326 327 325 326 326 327 327 327
306 306 307 310 311 311 313 311 317 316 315 315 310 309 312 309 308 307 309 309 310 311 314 314 314 315 315 318 319 319 319 319 320 322 322 322 323 324 324 324 325 326 327 327
307 309 306 307 310 310 314 315 313 313 314 314 311 310 304 307 306 306 305 309 310 311 314 316 315 314 313 315 317 318 318 319 319 320 319 319 320 321 322 322 322 323 326 329
307 308 307 306 309 310 311 312 312 315 314 306 307 310 305 304 306 306 306 309 310 310 312 315 316 316 315 315 316 316 318 319 319 318 319 319 319 318 317 317 318 321 325 326
307 303 298 300 304 307 309 308 307 309 309 305 312 311 304 306 307 307 308 309 310 310 310 311 311 316 317 316 315 316 317 318 318 319 318 317 316 316 316 316 318 322 325 325
304 300 299 300 298 306 306 307 309 307 314 310 308 309 308 306 308 308 309 310 310 310 311 311 311 310 311 313 316 317 317 317 317 317 316 316 316 316 315 315 317 320 321 319
299 296 300 302 302 303 304 305 307 305 308 313 309 308 308 307 306 308 309 309 310 311 311 311 311 311 311 311 311 311 311 312 314 316 316 316 316 315 314 314 314 314 313 311
296 294 293 293 300 301 303 303 304 307 307 307 309 310 308 309 309 307 308 310 311 311 312 312 311 311 311 311 311 311 311 311 311 312 314 315 315 314 314 313 312 312 311 311
296 296 293 297 299 302 301 306 306 307 308 309 309 311 311 310 309 310 310 309 309 311 311 312 311 311 311 311 311 311 311 311 311 311 312 314 314 314 313 313 313 311 311 313
296 295 299 300 297 300 306 304 307 307 307 306 308 308 307 307 309 310 310 311 311 311 311 311 311 310 310 310 310 310 310 311 311 311 311 312 313 313 313 313 313 312 311 314
293 296 296 300 302 300 306 306 305 306 309 306 305 305 306 306 305 308 309 309 310 310 310 310 310 310 309 309 309 309 309 309 310 310 311 311 312 313 313 313 312 312 313 311
298 296 294 296 300 305 305 305 304 302 308 304 304 304 304 306 309 308 307 307 308 308 309 309 309 309 309 309 309 309 309 310 309 309 310 311 311 312 312 312 312 312 309 307
298 297 296 297 298 299 298 303 303 308 305 303 303 303 304 305 305 306 307 307 308 307 308 308 308 308 308 307 308 308 308 308 309 309 309 311 311 311 312 311 310 308 307 307
297 296 298 299 300 299 303 303 306 303 302 302 303 304 304 304 305 306 307 307 308 309 309 309 308 308 307 307 307 307 308 309 308 308 309 311 311 311 310 309 308 307 307 307
300 298 299 299 299 299 304 304 303 303 302 301 301 301 302 304 305 305 307 307 307 308 308 308 308 306 307 308 309 308 309 309 308 308 310 311 310 310 309 308 307 307 306 306
296 298 301 301 300 300 300 302 303 297 298 298 298 299 301 301 304 305 306 307 307 307 307 307 307 306 307 309 309 308 309 309 309 310 311 311 310 309 309 308 306 306 306 306
295 296 297 297 296 297 300 300 297 297 298 298 298 298 299 300 300 304 305 306 306 306 306 306 306 306 307 308 308 309 309 309 309 310 310 310 309 309 308 307 306 306 305 305
293 294 296 297 296 296 297 297 298 297 297 297 297 297 298 298 300 302 304 306 305 305 306 306 306 306 306 306 308 308 308 308 308 309 308 308 308 307 307 306 305 305 305 304

GFSCGP_850_thetae_108.txt.gz
Theta_e
311 319 317 315 317 317 318 318 316 317 315 316 316 316 318 319 323 323 323 325 329 331 331 330 332 332 332 329 329 333 330 332 335 336 336 335 333 331 328 323 323 325 326 329
314 318 315 314 315 316 319 319 320 318 316 317 317 317 318 318 322 322 321 321 325 329 330 329 331 332 331 331 330 329 329 328 329 330 332 335 335 335 333 332 327 326 327 331
315 315 313 315 315 317 319 319 319 319 318 317 319 320 319 319 320 321 320 320 320 325 330 330 333 331 329 330 329 328 328 328 327 327 329 331 332 332 333 333 334 334 333 333
313 312 313 315 316 315 317 316 318 319 320 322 318 323 321 318 322 322 323 321 320 320 323 329 332 331 325 326 329 329 328 328 328 327 326 327 328 327 328 328 331 331 329 332
313 314 313 314 315 315 316 316 317 319 319 318 319 320 322 319 319 321 324 323 322 321 320 323 328 331 331 329 326 329 330 328 328 327 326 327 327 327 328 328 328 328 329 327
311 309 312 313 314 314 315 318 319 319 319 320 317 319 317 321 322 321 321 321 322 322 321 320 321 323 328 330 330 331 332 329 331 331 330 326 326 326 328 327 327 327 327 326
309 309 310 312 315 314 316 318 320 319 321 318 314 319 317 316 317 317 317 319 318 320 320 319 319 319 319 322 329 331 330 332 331 331 332 329 328 330 328 329 327 327 329 329
311 310 310 311 314 315 315 316 318 316 317 317 315 319 317 316 315 316 314 315 314 314 318 320 319 318 319 320 322 324 327 330 331 331 332 331 331 331 331 331 330 330 329 330
310 310 308 309 312 313 316 317 314 316 312 317 317 316 314 312 313 313 313 311 312 312 317 320 319 317 318 319 321 321 321 320 321 327 329 329 329 329 329 329 329 330 330 329
310 311 310 311 311 312 313 313 318 319 319 316 314 313 314 313 312 311 313 312 312 312 314 319 320 317 318 319 319 320 321 319 319 320 322 327 329 329 330 329 328 328 328 328
310 311 310 309 311 310 312 313 314 314 317 316 314 314 309 311 311 312 311 311 312 313 315 315 314 314 314 317 315 318 319 319 319 319 321 323 324 325 326 325 325 326 327 327
310 310 309 308 308 310 310 311 312 316 316 314 313 313 309 311 311 309 310 310 310 311 313 315 315 314 313 313 313 316 318 318 319 320 321 320 319 320 321 322 322 323 324 325
308 308 307 305 309 307 308 308 309 309 312 316 316 314 310 312 312 310 311 311 311 310 310 312 316 316 314 314 314 316 317 317 318 319 318 319 319 319 318 317 317 318 319 322
305 307 307 306 306 306 307 306 307 309 311 313 314 313 311 311 311 312 311 311 311 311 310 310 310 313 316 316 315 316 316 317 318 318 319 319 317 316 316 316 316 318 321 323
304 304 303 303 302 303 304 304 304 307 308 311 313 313 313 312 312 309 310 310 311 311 311 310 310 310 311 311 314 316 316 317 317 317 317 316 317 317 316 316 316 318 322 324
301 304 300 301 303 305 303 303 305 306 307 308 308 310 309 310 311 311 309 309 310 311 311 311 310 310 311 311 311 311 311 312 314 316 316 317 316 316 315 315 315 317 318 318
301 302 303 306 303 304 307 309 309 309 309 309 310 311 311 311 311 312 311 311 312 311 311 311 311 310 310 310 311 311 311 311 311 311 312 314 315 315 315 314 314 313 313 311
301 301 302 306 305 310 309 307 309 309 307 307 308 308 308 309 308 308 309 311 311 311 310 310 310 309 309 309 309 310 310 311 311 311 310 311 313 314 314 313 313 312 311 310
299 301 304 306 306 305 308 308 308 308 310 306 306 306 307 308 307 308 307 307 307 307 308 309 309 309 309 309 309 309 309 309 310 310 311 311 312 313 313 313 312 312 311 310
301 301 303 304 305 306 309 306 305 306 311 305 305 306 306 308 312 310 306 306 307 307 307 308 308 309 309 309 309 309 308 309 309 309 309 311 311 312 313 312 312 312 311 311
301 301 303 303 305 303 303 304 304 310 309 305 305 304 305 306 305 304 306 307 308 308 308 307 308 308 308 308 308 308 307 308 308 308 308 309 311 311 312 312 312 311 311 311
303 303 304 302 304 306 302 305 307 306 304 304 304 304 304 304 304 305 305 307 306 306 307 307 307 307 307 307 307 307 307 307 308 308 308 308 310 311 311 311 311 311 309 307
304 303 305 304 305 302 305 305 304 304 304 302 301 300 301 302 302 303 305 306 306 306 307 307 307 307 307 308 309 309 308 308 309 309 307 308 310 310 311 311 310 308 306 306
301 300 304 305 304 302 302 303 303 300 299 298 298 298 298 300 301 301 303 306 306 306 306 307 307 307 307 308 309 309 308 308 308 307 307 309 310 310 310 309 308 307 306 306
301 301 304 304 303 300 300 301 300 298 297 298 298 297 298 298 300 300 301 305 306 305 305 306 306 306 306 307 308 308 308 308 308 308 309 310 310 310 309 309 308 307 306 305
297 303 304 304 301 300 301 298 297 297 297 297 297 297 298 297 298 299 301 304 305 304 305 306 306 306 305 305 306 307 308 308 308 308 309 309 308 308 307 307 307 305 305 305

GFSCGP_850_thetae_111.txt.gz
Theta_e
313 317 320 316 316 318 318 319 318 316 317 317 319 320 319 318 324 326 329 332 332 331 332 330 330 329 330 333 335 338 338 336 335 332 329 327 326 329 334 334 334 335 336 332
315 318 317 315 317 318 319 319 319 319 317 317 320 321 321 319 324 326 328 331 332 331 331 330 330 329 328 328 329 337 336 335 337 336 333 329 330 329 328 329 330 332 334 333
316 317 315 316 316 317 319 320 319 319 319 318 320 323 323 320 324 324 325 328 331 331 330 330 330 330 329 328 328 329 329 335 336 336 337 336 335 335 334 334 331 326 326 326
314 314 314 315 316 316 318 317 318 319 320 321 319 327 325 322 325 325 324 324 326 328 329 325 324 330 330 326 326 327 324 329 329 333 332 332 334 333 331 332 332 332 332 332
315 314 315 314 314 315 317 317 318 318 319 319 319 320 325 324 325 326 325 324 323 325 330 329 326 331 330 325 323 325 325 328 329 329 328 330 328 329 328 327 328 329 330 330
312 311 312 315 314 315 316 317 317 318 318 321 318 318 323 324 325 325 325 324 323 322 323 326 330 332 330 328 323 328 325 328 328 328 328 328 327 326 325 326 326 327 327 327
311 310 310 312 315 314 316 317 320 320 322 319 317 318 318 318 319 323 324 324 324 323 322 321 323 326 331 329 327 327 326 324 328 326 326 326 327 325 325 325 326 325 323 325
311 313 310 310 313 315 315 316 319 321 319 317 317 318 319 316 316 317 317 319 319 321 322 321 320 321 324 327 327 328 327 326 327 329 327 326 326 326 327 326 324 323 325 326
310 310 309 310 312 313 315 317 315 317 315 315 316 316 314 314 315 316 316 315 315 315 316 321 320 319 319 319 325 329 327 329 329 329 330 330 330 329 328 329 327 326 326 325
311 311 310 310 311 312 313 313 317 317 318 315 315 314 314 314 314 314 314 314 314 314 316 318 316 317 319 319 320 321 323 327 329 329 330 329 330 329 330 329 331 330 330 330
310 310 311 309 310 310 311 312 313 313 316 320 317 313 312 314 313 313 313 313 314 316 316 316 315 316 316 317 318 319 320 321 322 323 323 328 327 329 329 329 328 329 328 328
310 310 310 307 308 310 310 310 311 314 317 316 316 315 313 313 312 312 313 313 313 313 314 315 315 314 314 314 317 316 318 320 320 321 320 322 325 327 329 328 328 329 328 327
308 309 309 308 310 309 308 308 309 310 312 317 316 316 313 313 313 312 313 313 312 312 312 314 315 315 313 313 313 314 316 318 319 319 320 322 324 324 324 324 324 324 325 326
306 309 308 307 307 306 306 306 306 308 313 311 315 315 314 313 313 312 312 312 312 312 312 312 312 314 315 315 314 315 316 317 318 319 320 320 320 320 321 320 320 319 319 321
305 306 304 304 304 304 304 305 305 307 308 310 311 310 313 312 312 312 312 312 312 312 312 311 311 311 312 314 315 315 316 317 318 318 319 320 320 319 317 316 316 317 318 319
304 307 303 304 305 305 304 304 304 306 308 308 309 311 311 311 312 313 312 311 312 312 312 312 311 310 310 311 311 313 315 316 317 318 318 317 316 316 316 316 316 317 318 321
303 304 306 307 306 307 310 309 309 310 309 310 310 311 310 310 310 311 311 312 312 312 312 311 309 309 309 310 310 311 311 311 312 314 315 315 316 316 315 315 316 317 319 321
302 303 305 309 307 313 310 309 310 309 309 308 309 308 309 310 310 309 309 309 310 310 309 309 309 309 309 309 309 310 310 311 311 311 311 311 313 314 315 315 314 315 316 317
302 304 307 309 307 307 308 308 309 309 310 307 308 308 309 309 309 309 307 307 308 308 308 308 308 308 309 309 310 310 309 309 309 310 311 311 311 312 313 314 314 313 313 312
302 302 306 307 308 307 310 309 307 308 311 307 306 306 307 309 312 309 306 307 307 307 307 307 307 307 307 308 308 309 309 309 309 309 309 310 310 311 311 313 313 312 311 310
304 304 306 306 307 305 308 306 307 310 311 307 307 306 306 308 306 306 306 306 306 308 309 309 309 308 307 307 307 307 307 307 307 308 308 309 309 310 311 312 312 312 311 310
305 305 306 305 306 307 306 306 309 308 307 307 306 305 304 305 304 304 305 306 307 307 308 308 309 309 307 307 307 307 308 307 307 307 307 307 308 309 310 311 312 311 311 311
305 305 307 306 307 306 306 307 306 305 306 305 303 302 301 301 302 302 302 305 306 305 305 305 307 307 308 307 308 309 309 308 307 308 308 308 307 308 310 311 311 311 311 310
303 303 304 306 306 305 305 306 305 305 303 301 300 300 299 300 300 301 301 302 305 306 306 305 305 305 306 307 308 308 308 307 307 307 307 306 306 308 309 310 311 310 310 310
304 303 304 305 305 303 303 303 304 301 299 299 299 299 299 299 299 300 301 301 303 305 305 305 305 306 306 305 307 307 308 308 307 307 306 306 306 308 309 310 310 310 309 307
301 304 305 305 305 304 304 303 300 299 299 298 298 298 298 299 299 299 299 301 303 305 304 305 305 306 306 306 305 306 307 307 307 307 307 308 308 309 309 309 308 307 306 305

GFSCGP_850_thetae_114.txt.gz
Theta_e
315 317 318 317 316 316 317 317 318 316 317 318 318 317 318 320 319 321 322 325 330 329 330 328 327 329 326 326 326 327 329 333 333 333 332 330 332 330 330 329 329 321 320 320
316 316 316 317 316 316 317 318 319 319 317 316 317 318 319 320 319 323 325 327 330 330 330 328 328 329 329 329 328 328 330 331 329 330 333 333 333 333 332 329 329 329 328 327
314 315 315 315 315 316 317 319 319 319 319 317 318 320 319 320 320 322 326 328 329 329 330 330 330 330 330 330 330 330 333 331 329 327 327 330 335 335 335 336 336 334 333 333
314 313 313 314 315 315 317 317 317 317 318 322 319 318 323 322 320 323 324 329 331 330 330 329 326 329 329 329 328 328 329 333 332 331 328 328 327 328 329 326 326 326 327 327
314 314 313 314 315 314 316 315 316 317 317 317 318 317 324 322 323 323 322 326 329 330 330 329 325 323 323 324 327 327 325 327 330 331 329 329 329 330 333 333 333 332 331 332
311 310 311 313 312 313 313 315 316 316 318 316 317 317 321 322 324 324 323 324 325 328 329 326 324 323 324 324 323 324 324 324 329 330 328 328 328 329 330 328 328 329 330 330
311 310 310 312 313 313 314 314 314 314 313 315 316 316 317 316 318 322 321 323 323 324 327 328 326 327 327 327 325 323 324 323 326 325 327 327 327 327 327 326 327 327 326 326
310 308 309 309 311 312 313 315 318 322 322 321 316 320 313 313 315 319 318 317 323 323 322 324 327 330 327 328 326 324 325 326 323 324 325 324 326 327 327 326 325 325 325 325
311 309 309 310 309 311 312 313 313 318 315 314 314 312 311 312 312 313 315 317 316 315 321 322 322 323 325 326 327 327 328 326 324 324 324 325 326 326 326 326 326 325 325 324
310 309 310 309 310 311 312 312 314 315 312 315 312 311 314 312 311 312 312 313 315 316 316 319 320 320 319 319 325 327 328 324 324 325 326 327 327 326 326 325 326 325 324 324
309 310 309 309 309 309 311 310 311 311 313 319 319 317 312 310 310 311 311 313 314 315 316 316 316 317 319 319 319 320 325 327 327 327 328 329 328 328 329 328 325 323 327 327
308 308 306 308 309 308 308 309 309 310 310 313 317 316 311 310 310 312 312 312 312 313 315 316 315 315 315 317 319 319 321 322 325 328 327 327 328 328 329 328 328 328 328 328
306 306 302 307 309 307 307 307 307 307 309 308 315 316 312 309 309 312 312 312 312 311 312 314 315 315 314 314 314 317 319 320 322 325 323 321 324 325 327 327 328 328 328 328
306 305 304 303 302 304 304 305 305 306 307 303 312 313 311 310 311 310 312 312 312 312 311 311 312 314 315 315 316 316 316 319 319 320 321 321 324 324 324 324 325 325 325 325
304 300 303 304 304 304 304 304 305 300 305 303 307 307 310 310 310 311 311 312 313 312 312 310 310 311 312 314 315 316 317 317 319 320 321 320 320 322 322 322 322 322 322 322
302 302 298 298 305 305 304 304 304 305 307 308 308 310 309 310 310 310 310 311 312 311 311 309 309 309 310 311 311 314 315 316 317 318 319 319 319 321 321 320 318 317 317 318
302 300 300 304 306 304 302 309 309 310 309 309 309 309 308 309 309 309 309 309 309 309 309 309 309 309 308 308 309 310 311 314 315 316 317 317 316 316 316 316 316 316 317 317
301 300 303 302 302 304 309 309 310 309 308 308 308 307 308 309 308 308 308 308 308 308 308 308 308 308 308 309 309 309 309 310 311 311 312 314 314 315 315 315 315 316 316 317
301 302 303 303 303 307 307 307 309 309 308 307 307 307 307 307 308 306 307 307 307 307 307 307 307 307 307 308 309 309 309 309 309 309 310 311 311 311 312 313 314 314 315 316
301 301 300 303 305 306 310 308 307 307 308 306 306 307 306 307 311 308 306 306 307 308 308 309 309 309 309 308 308 308 308 308 308 308 309 309 309 310 311 311 313 313 313 313
299 299 301 302 303 305 307 307 307 309 308 307 306 306 305 305 306 306 306 306 307 307 308 309 309 309 309 309 309 308 308 308 307 307 307 308 308 309 309 311 311 312 312 311
303 301 301 302 303 302 306 306 308 307 307 307 307 305 304 305 304 303 303 304 306 306 307 308 308 308 308 308 308 308 308 308 308 307 307 307 307 307 308 309 311 311 311 310
301 302 305 303 304 305 306 307 306 306 306 306 305 304 302 301 300 301 302 302 303 306 306 306 306 307 307 307 308 308 309 309 309 308 307 307 307 306 307 308 309 310 310 310
302 303 301 303 304 304 305 306 305 305 304 303 301 300 300 299 300 300 300 301 301 303 305 305 306 306 306 306 306 308 308 309 308 308 307 307 306 306 306 307 308 309 309 309
301 301 301 302 302 304 304 305 305 304 302 301 300 299 299 298 298 299 299 300 301 302 305 305 305 305 306 305 305 305 306 307 308 307 307 306 305 306 305 306 308 308 309 308
301 300 301 301 304 303 304 303 303 303 300 299 298 298 298 298 299 298 299 299 300 301 304 304 304 305 305 305 304 305 304 306 307 307 307 306 305 305 305 306 308 309 309 309

GFSCGP_850_thetae_117.txt.gz
Theta_e
313 315 315 315 315 315 316 316 318 318 317 319 318 317 316 314 318 318 321 322 323 328 329 328 326 326 325 324 328 330 330 330 330 330 330 331 331 332 331 329 330 329 328 326
315 314 313 315 316 316 315 316 319 320 317 317 316 317 315 316 318 319 319 321 326 329 328 328 328 326 326 325 326 327 329 327 331 330 329 329 329 329 330 330 329 327 324 322
313 312 313 314 313 314 314 317 317 318 316 316 317 316 317 317 319 320 320 324 327 327 328 328 327 328 328 327 328 329 329 331 328 333 330 329 328 327 326 326 326 323 321 321
311 312 313 312 313 314 315 315 314 315 315 317 318 319 319 319 321 320 321 328 328 326 326 325 328 329 329 330 330 330 329 329 330 331 331 330 330 330 329 328 328 326 328 329
308 311 311 311 313 311 313 313 313 314 314 314 315 319 319 322 323 322 322 326 328 328 326 328 328 328 327 329 329 329 332 330 327 323 328 328 327 329 330 327 330 332 333 333
309 309 309 311 310 311 312 312 312 313 315 311 316 319 318 315 321 322 319 321 327 328 329 326 324 324 324 326 324 328 328 330 327 325 324 325 324 326 327 333 334 335 335 333
307 309 308 309 309 310 311 311 306 311 307 312 313 315 313 312 319 318 318 317 324 327 327 325 324 324 324 324 324 324 327 329 328 326 322 324 324 324 325 326 328 328 328 330
303 304 308 308 309 311 310 313 316 319 319 316 314 312 313 310 312 318 318 316 317 322 325 326 325 325 325 324 324 324 324 326 325 328 325 324 326 326 326 327 327 327 328 327
305 306 308 308 309 310 310 310 312 316 316 316 312 311 309 310 309 312 315 314 316 316 320 322 324 325 325 324 325 325 325 324 323 324 326 327 326 327 327 327 326 327 326 326
308 305 308 308 307 307 311 310 309 308 312 318 315 313 314 311 310 310 311 312 314 317 316 317 320 320 322 324 326 327 326 325 324 323 324 324 323 323 324 324 324 325 326 325
305 306 305 306 307 308 308 307 308 304 311 318 316 317 311 309 308 309 308 311 314 315 316 315 316 316 318 319 319 321 326 327 326 324 324 324 324 325 325 324 323 326 325 326
305 305 300 308 306 306 306 306 305 303 307 313 310 316 311 309 307 308 309 310 311 313 315 315 314 315 316 317 320 320 323 326 326 325 325 324 325 326 327 327 326 325 325 325
304 301 293 300 299 301 304 304 306 304 305 303 314 316 311 307 309 309 309 311 311 310 312 313 314 315 314 314 317 319 320 322 324 326 327 327 325 325 325 325 325 326 327 325
305 299 297 297 299 301 302 303 304 301 296 306 306 307 309 307 308 309 310 311 311 309 309 311 312 314 315 316 315 315 317 320 323 323 322 324 322 323 322 323 323 323 325 324
300 295 300 302 303 303 303 303 303 296 302 300 306 310 309 308 307 308 309 309 309 309 309 308 309 310 311 313 315 316 316 318 320 324 321 320 320 320 320 323 322 323 324 325
299 297 293 295 304 304 303 303 303 304 305 307 307 311 307 309 308 307 307 308 308 308 308 308 308 308 309 310 311 313 315 316 317 319 320 320 320 320 319 318 320 322 322 321
298 294 295 300 304 299 298 306 307 309 308 307 305 307 306 308 308 306 307 307 307 307 307 308 308 308 308 308 308 309 311 313 315 317 318 319 319 317 317 319 320 318 317 317
299 296 298 297 296 297 303 308 308 308 307 307 307 307 307 308 307 307 307 307 307 307 307 307 307 307 308 308 308 309 309 309 310 311 312 314 315 316 316 315 315 316 316 316
298 298 298 299 298 302 307 307 308 307 306 305 305 305 306 306 307 306 306 307 307 307 308 308 308 307 308 308 308 308 308 309 309 309 309 310 310 311 312 313 314 314 315 315
300 298 296 298 302 304 305 306 307 306 305 305 305 305 306 306 307 307 306 306 306 307 307 308 309 309 308 308 308 308 308 308 308 308 308 309 309 309 310 311 312 312 313 314
294 294 297 298 299 301 305 306 307 306 301 306 306 306 305 303 305 305 304 304 304 306 306 306 307 308 308 308 308 308 308 308 307 307 307 307 307 308 308 309 310 311 312 312
300 297 297 298 299 299 305 305 304 303 307 307 306 306 304 304 304 303 302 302 302 305 306 306 306 307 307 307 307 308 308 308 308 308 308 307 307 307 307 307 309 310 310 310
300 300 302 299 300 300 306 305 306 306 306 306 306 305 304 303 301 300 300 301 301 302 305 306 306 306 307 307 307 307 308 308 309 309 308 307 307 307 307 306 307 308 309 309
300 301 300 301 300 302 305 306 306 306 305 305 305 303 301 300 299 299 299 300 300 301 301 304 305 306 306 306 306 306 306 307 308 308 307 307 306 306 306 306 306 306 308 308
298 299 299 299 299 302 304 305 306 305 304 303 301 301 300 299 298 298 298 298 299 300 301 303 305 305 305 305 305 305 305 305 307 308 308 307 305 305 304 304 305 305 305 306
299 299 299 299 301 301 303 304 305 305 304 302 300 299 298 297 298 298 298 299 299 299 301 302 304 304 304 305 304 303 303 305 305 306 306 305 305 305 305 305 304 304 305 306